     2              OBSERVATION DATA    GPS                 RINEX VERSION / TYPE
ASHTORIN MIT 11                                             PGM / RUN BY / DATE
                                                            COMMENT
Original Marker Name: cg25                                  COMMENT
Campaign Name: STRC/NBC 1997                                COMMENT
4-Character Station Name: CG25                              COMMENT
6-Character Antenna Code: DMRCHT                            COMMENT
Vertical Measurement Point: BCR                             COMMENT
Vertical Offset to Rinex Ref. Point: 0.0349                 COMMENT
Radial Measurement Point: ECF                               COMMENT
Radial Offset to Rinex Ref. Point: 0.1896                   COMMENT
Antenna Height from Field Measurement: 1.3280 m             COMMENT
Additional Antenna Identification Info.:                    COMMENT
Turborogue and Ashtech Choke Ring                           COMMENT
Original XYZ: 0.0000 0.0000 0.0000                          COMMENT
New XYZ position is based on association with SCEC monument COMMENT
E1C9D2K6+0011. Position of that monument is believed to be  COMMENT
valid to within 1 m horizontally; vertical accuracy         COMMENT
should be no worse than 3-times this value.                 COMMENT
                                                            COMMENT
Revised Rinex header created by UCSD GPS archive for        COMMENT
GSAC on 12-Apr-1999 (1999:102) 00:16:31 GMT                 COMMENT
For assistance contact dagnew@ucsd.edu or hjohnson@ucsd.edu COMMENT
                                                            COMMENT
CG25                                                        MARKER NAME
cg25 cgcp 25 cfe                                            MARKER NUMBER
FFS CICESE (ENSENADA)                                       OBSERVER / AGENCY
134 ASHTECH Z12-XII3 1E951D0                                REC # / TYPE / VERS
758 DORNE-MARGOL. TYPE T                                    ANT # / TYPE
 -2297348.0000 -4877389.0000  3396444.0000                  APPROX POSITION XYZ
        1.2795        0.0000        0.0000                  ANTENNA: DELTA H/E/N
     1     1     0                                          WAVELENGTH FACT L1/2
     7    L1    L2    C1    P1    P2    D1    D2            # / TYPES OF OBSERV
    30                                                      INTERVAL
  1997     3     8    20     1   30.000000                  TIME OF FIRST OBS
  1997     3     8    23    59   30.000000                  TIME OF LAST OBS
     0                                                      # OF SATELLITES
                                                            END OF HEADER
 97  3  8 20  1 30.0000000  0  5  2 27 19 15  7                      0.000000000
    -43489.68319    -30945.73059  21502546.576    21502546.2675   21502552.4115
        -0.000          -0.000
      5089.55719      3663.53559  20437131.850    20437132.0785   20437137.6595
        -0.000          -0.000
    125293.39119     91301.62957  22512129.822    22512129.8675   22512137.0535
        -0.000          -0.000
    -98435.80119    -72069.41655  23881142.487    23881142.7095   23881148.9455
        -0.000          -0.000
   -190960.12519   -134454.05452         0.000           0.0005          0.0005
        -0.000          -0.000
 97  3  8 20  2  0.0000000  0  6  2 27 26 19 15  7                   0.000857286
    -62397.046 9    -45678.72649  21498948.948    21498948.3484   21498954.5314
        -0.000          -0.000
      8060.796 9      5978.77349  20437697.476    20437697.4564   20437703.0484
        -0.000          -0.000
   -194205.07619   -132199.11156  23698294.637    23698295.2725   23698302.3785
        -0.000          -0.000
    188186.778 9    140309.42047  22524097.825    22524098.2014   22524105.2984
        -0.000          -0.000
   -138286.763 9   -103122.08345  23873559.085    23873559.0494   23873566.1184
        -0.000          -0.000
   -265659.69619    -12217.10656         0.000           0.0005   21365015.7695
        -0.000          -0.000
 97  3  8 20  2 30.0000000  0  6  2 27 26 19 15  7                   0.000850975
    -81129.621 9    -60275.52849  21495384.322    21495383.6464   21495389.8394
        -0.000          -0.000
     11540.989 9      8690.60349  20438359.635    20438359.7084   20438365.2844
        -0.000          -0.000
   -261966.549 9   -185000.23646  23685400.935    23685400.8194   23685407.5704
        -0.000          -0.000
    251404.346 9    189569.81147  22536128.769    22536128.1624   22536135.1734
        -0.000          -0.000
   -177641.611 9   -133788.16346  23866070.537    23866069.9734   23866077.2064
        -0.000          -0.000
   -339937.43119    -70095.80348  21350874.641    21350874.2375   21350881.1274
        -0.000          -0.000
 97  3  8 20  3  0.0000000  0  6  2 27 26 19 15  7                   0.000844742
    -99701.727 9    -74747.28849  21491849.990    21491849.5024   21491855.6484
        -0.000          -0.000
     15517.200 9     11788.93649  20439116.389    20439116.3944   20439121.9084
        -0.000          -0.000
   -329299.604 9   -237467.52846  23672587.810    23672587.8794   23672594.4904
        -0.000          -0.000
    314922.704 9    239064.58747  22548215.632    22548215.3954   22548222.3064
        -0.000          -0.000
   -216519.864 9   -164082.86446  23858672.209    23858671.7254   23858678.8694
        -0.000          -0.000
   -413813.269 9   -127661.34648  21336816.557    21336816.2204   21336823.0024
        -0.000          -0.000
 97  3  8 20  3 30.0000000  0  6  2 27 26 19 15  7                   0.000838491
   -118105.434 9    -89087.82649  21488347.772    21488347.3474   21488353.4454
        -0.000          -0.000
     19984.671 9     15270.07149  20439966.538    20439966.5564   20439972.0334
        -0.000          -0.000
   -396181.957 9   -289583.62246  23659860.469    23659860.6394   23659867.2544
        -0.000          -0.000
    378730.115 9    288784.60247  22560357.766    22560357.6294   22560364.5174
        -0.000          -0.000
   -254912.854 9   -193999.44946  23851366.291    23851365.9124   23851372.9414
        -0.000          -0.000
   -487283.079 9   -184910.49748  21322835.729    21322835.3884   21322842.0994
        -0.000          -0.000
 97  3  8 20  4  0.0000000  0  6  2 27 26 19 15  7                   0.000832235
   -136321.530 9   -103282.17949  21484881.295    21484880.9064   21484886.9834
        -0.000          -0.000
     24935.646 9     19127.96349  20440908.764    20440908.7534   20440914.1394
        -0.000          -0.000
   -462585.541 9   -341326.64446  23647224.282    23647224.4974   23647231.0854
        -0.000          -0.000
    442824.276 9    338728.05347  22572554.472    22572554.3664   22572561.3004
        -0.000          -0.000
   -292812.750 9   -223531.78646  23844154.238    23844153.8654   23844160.8854
        -0.000          -0.000
   -560341.015 9   -241838.71548  21308933.297    21308932.9824   21308939.6264
        -0.000          -0.000
 97  3  8 20  4 30.0000000  0  6  2 27 26 19 15  7                   0.000825994
   -154360.812 9   -117338.75049  21481448.517    21481448.1634   21481454.2054
        -0.000          -0.000
     30340.361 9     23339.42049  20441937.285    20441937.2714   20441942.6034
        -0.000          -0.000
   -528498.463 9   -392687.32746  23634681.441    23634681.7104   23634688.3474
        -0.000          -0.000
    507204.602 9    388894.49247  22584805.656    22584805.6054   22584812.5764
        -0.000          -0.000
   -330224.934 9   -252684.10746  23837034.941    23837034.5544   23837041.7144
        -0.000          -0.000
   -632983.109 9   -298442.89848  21295109.990    21295109.6624   21295116.2524
        -0.000          -0.000
 97  3  8 20  5  0.0000000  0  6  2 27 26 19 15  7                   0.000819774
   -172251.006 9   -131279.15749  21478044.148    21478043.8004   21478049.8214
        -0.000          -0.000
     36162.285 9     27875.96949  20443045.196    20443045.1844   20443050.4854
        -0.000          -0.000
   -593935.520 9   -443677.23346  23622229.289    23622229.5314   23622236.0084
        -0.000          -0.000
    571856.740 9    439272.73647  22597108.515    22597108.4974   22597115.5004
        -0.000          -0.000
   -367163.868 9   -281467.63146  23830005.545    23830005.1814   23830012.6494
        -0.000          -0.000
   -705211.292 9   -354724.55348  21281365.399    21281365.0584   21281371.6474
        -0.000          -0.000
 97  3  8 20  5 30.0000000  0  6  2 27 26 19 15  7                   0.000813582
   -190013.097 9   -145119.73349  21474664.131    21474663.7904   21474669.8184
        -0.000          -0.000
     42389.406 9     32728.25849  20444230.188    20444230.1744   20444235.4294
        -0.000          -0.000
   -658898.512 9   -494297.72446  23609867.227    23609867.5394   23609873.9104
        -0.000          -0.000
    636765.377 9    489850.84347  22609460.189    22609460.1574   22609467.1964
        -0.000          -0.000
   -403628.993 9   -309881.95645  23823066.120    23823065.8164   23823073.5594
        -0.000          -0.000
   -777014.673 9   -410675.19349  21267701.618    21267701.2974   21267707.9334
        -0.000          -0.000
 97  3  8 20  6  0.0000000  0  6  2 27 26 19 15  7                   0.000807434
   -207627.014 9   -158844.85049  21471312.305    21471311.9704   21471318.0264
        -0.000          -0.000
     49055.350 9     37922.48649  20445498.709    20445498.6964   20445503.9144
        -0.000          -0.000
   -723369.706 9   -544535.01646  23597598.754    23597599.1224   23597605.3974
        -0.000          -0.000
    701969.471 9    540659.19147  22621868.095    22621868.1174   22621875.0494
        -0.000          -0.000
   -439589.102 9   -337902.77045  23816223.012    23816222.7034   23816230.4714
        -0.000          -0.000
   -848358.860 9   -466268.01849  21254125.303    21254124.9754   21254131.6234
        -0.000          -0.000
 97  3  8 20  6 30.0000000  0  6  2 27 26 19 15  7                   0.000801318
   -225125.309 9   -172479.87049  21467982.459    21467982.1354   21467988.1894
        -0.000          -0.000
     56146.425 9     43447.98549  20446848.109    20446848.0924   20446853.3064
        -0.000          -0.000
   -787380.828 9   -594413.78946  23585417.874    23585418.2454   23585424.5214
        -0.000          -0.000
    767459.446 9    591690.30147  22634330.483    22634330.5194   22634337.3324
        -0.000          -0.000
   -475062.666 9   -365544.47445  23809472.706    23809472.4054   23809479.9154
        -0.000          -0.000
   -919255.343 9   -521511.99049  21240634.107    21240633.7654   21240640.4194
        -0.000          -0.000
 97  3  8 20  7  0.0000000  0  6  2 27 26 19 15  7                   0.000795233
   -242498.859 9   -186017.69049  21464676.336    21464676.0344   21464682.1054
        -0.000          -0.000
     63709.412 9     49341.21149  20448287.312    20448287.2854   20448292.5214
        -0.000          -0.000
   -850919.949 9   -643924.78646  23573326.659    23573327.0964   23573333.2944
        -0.000          -0.000
    833256.402 9    642960.63247  22646851.242    22646851.2524   22646858.1074
        -0.000          -0.000
   -510024.740 9   -392787.59045  23802819.901    23802819.4714   23802826.5544
        -0.000          -0.000
   -989680.066 9   -576388.34849  21227232.700    21227232.3634   21227239.0184
        -0.000          -0.000
 97  3  8 20  7 30.0000000  0  6  2 27 26 19 15  7                   0.000789161
   -259742.945 9   -199454.63349  21461394.860    21461394.5864   21461400.6434
        -0.000          -0.000
     71767.892 9     55620.53149  20449820.767    20449820.7944   20449826.0534
        -0.000          -0.000
   -914001.836 9   -693079.48846  23561322.509    23561322.8564   23561329.0894
        -0.000          -0.000
    899369.235 9    694477.08147  22659431.954    22659432.0124   22659438.9864
        -0.000          -0.000
   -544471.662 9   -419629.30545  23796264.802    23796264.3684   23796271.2404
        -0.000          -0.000
  -1059642.755 9   -630904.69449  21213919.210    21213918.8904   21213925.5014
        -0.000          -0.000
 97  3  8 20  8  0.0000000  0  6  2 27 26 19 15  7                   0.000783068
   -276881.173 9   -212809.09249  21458133.596    21458133.3034   21458139.3274
        -0.000          -0.000
     80289.622 9     62260.82749  20451442.363    20451442.3714   20451447.7374
        -0.000          -0.000
   -976666.370 9   -741908.98346  23549397.575    23549397.9514   23549404.3344
        -0.000          -0.000
    965775.640 9    746222.28246  22672068.518    22672068.6044   22672075.7294
        -0.000          -0.000
   -578443.051 9   -446100.45845  23789800.264    23789799.7244   23789806.5944
        -0.000          -0.000
  -1129193.997 9   -685100.42249  21200684.021    21200683.6724   21200690.2904
        -0.000          -0.000
 97  3  8 20  8 30.0000000  0  6  2 27 26 19 15  7                   0.000776967
   -293890.824 9   -226063.35549  21454896.814    21454896.4944   21454902.5134
        -0.000          -0.000
     89295.413 9     69278.31349  20453156.061    20453156.0754   20453161.5304
        -0.000          -0.000
  -1038890.669 9   -790395.41446  23537556.592    23537556.9294   23537563.3904
        -0.000          -0.000
   1032495.069 9    798211.39746  22684764.710    22684764.8444   22684772.1054
        -0.000          -0.000
   -611918.044 9   -472184.80845  23783429.950    23783429.4354   23783436.4024
        -0.000          -0.000
  -1198318.627 9   -738963.72849  21187529.900    21187529.5694   21187536.2484
        -0.000          -0.000
 97  3  8 20  9  0.0000000  0  6  2 27 26 19 15  7                   0.000770851
   -310773.881 9   -239218.97349  21451684.078    21451683.7584   21451689.8004
        -0.000          -0.000
     98783.179 9     76671.36448  20454961.485    20454961.4954   20454967.0454
        -0.000          -0.000
  -1100681.144 9   -838543.82346  23525798.153    23525798.4694   23525804.9754
        -0.000          -0.000
   1099520.979 9    850439.32646  22697519.415    22697519.5344   22697526.6754
        -0.000          -0.000
   -644898.455 9   -497883.76945  23777153.545    23777153.1704   23777160.5014
        -0.000          -0.000
  -1267025.748 9   -792501.70348  21174455.246    21174454.9404   21174461.6124
        -0.000          -0.000
 97  3  8 20  9 30.0000000  0  6  2 27 26 19 15  7                   0.000764718
   -327504.312 9   -252255.66049  21448500.375    21448500.0424   21448506.0984
        -0.000          -0.000
    108728.222 9     84420.74248  20456853.915    20456853.9254   20456859.5274
        -0.000          -0.000
  -1162038.018 9   -886354.35146  23514122.283    23514122.6124   23514129.2354
        -0.000          -0.000
   1166850.727 9    902904.04646  22710331.994    22710332.0744   22710338.9854
        -0.000          -0.000
   -677386.995 9   -523199.44845  23770970.978    23770970.7094   23770978.4404
        -0.000          -0.000
  -1335320.313 9   -845718.21148  21161459.216    21161458.8974   21161465.5314
        -0.000          -0.000
 97  3  8 20 10  0.0000000  0  6  2 27 26 19 15  7                   0.000758575
   -344085.736 9   -265176.24249  21445345.021    21445344.6874   21445350.7394
        -0.000          -0.000
    119117.616 9     92516.36848  20458830.986    20458830.9764   20458836.6124
        -0.000          -0.000
  -1222950.282 9   -933818.41246  23502531.062    23502531.3264   23502538.0124
        -0.000          -0.000
   1234471.071 9    955595.18646  22723199.806    22723199.8954   22723206.6754
        -0.000          -0.000
   -709388.396 9   -548135.54546  23764881.512    23764881.1654   23764888.8824
        -0.000          -0.000
  -1403199.113 9   -898610.74748  21148542.293    21148541.9594   21148548.5494
        -0.000          -0.000
 97  3  8 20 10 30.0000000  0  6  2 27 26 19 15  7                   0.000752421
   -360520.850 9   -277982.82849  21442217.498    21442217.2024   21442223.2124
        -0.000          -0.000
    129961.451 9    100966.10648  20460894.484    20460894.4974   20460900.1474
        -0.000          -0.000
  -1283413.999 9   -980932.97546  23491025.111    23491025.4124   23491032.0184
        -0.000          -0.000
   1302373.716 9   1008506.30246  22736121.400    22736121.4514   22736128.0934
        -0.000          -0.000
   -740892.097 9   -572683.82346  23758886.734    23758886.4254   23758893.9424
        -0.000          -0.000
  -1470648.490 9   -951168.66648  21135707.054    21135706.7654   21135713.3364
        -0.000          -0.000
 97  3  8 20 11  0.0000000  0  6  2 27 26 19 15  7                   0.000746259
   -376804.483 9   -290671.37249  21439118.873    21439118.5674   21439124.5224
        -0.000          -0.000
    141266.818 9    109775.48248  20463045.853    20463045.8684   20463051.5114
        -0.000          -0.000
  -1343412.918 9  -1027685.35946  23479607.740    23479608.0754   23479614.5174
        -0.000          -0.000
   1370549.858 9   1061630.50947  22749094.845    22749094.9094   22749101.6414
        -0.000          -0.000
   -771894.409 9   -596841.41846  23752987.290    23752986.9394   23752994.2844
        -0.000          -0.000
  -1537660.609 9  -1003385.86348  21122955.047    21122954.7134   21122961.3304
        -0.000          -0.000
 97  3  8 20 11 30.0000000  0  6  2 27 26 19 15  7                   0.000740100
   -392928.835 9   -303235.79849  21436050.508    21436050.2114   21436056.1484
        -0.000          -0.000
    153040.862 9    118950.06148  20465286.384    20465286.4074   20465292.0284
        -0.000          -0.000
  -1402925.742 9  -1074058.96246  23468282.834    23468283.1654   23468289.5184
        -0.000          -0.000
   1439001.689 9   1114969.53947  22762120.818    22762120.9014   22762127.6904
        -0.000          -0.000
   -802386.851 9   -620601.70646  23747184.774    23747184.4064   23747191.5594
        -0.000          -0.000
  -1604219.201 9  -1055249.66948  21110289.368    21110289.0514   21110295.6444
        -0.000          -0.000
 97  3  8 20 12  0.0000000  0  6  2 27 26 19 15  7                   0.000733957
   -408924.316 9   -315699.80049  21433006.710    21433006.3884   21433012.3014
        -0.000          -0.000
    165290.935 9    128495.57548  20467617.527    20467617.5534   20467623.1184
        -0.000          -0.000
  -1461948.606 9  -1120050.76846  23457051.176    23457051.5414   23457057.8214
        -0.000          -0.000
   1507737.719 9   1168530.03947  22775200.965    22775201.0164   22775207.8714
        -0.000          -0.000
   -832366.766 9   -643962.62446  23741479.709    23741479.4064   23741486.3984
        -0.000          -0.000
  -1670326.699 9  -1106761.97248  21097709.528    21097709.1904   21097715.7704
        -0.000          -0.000
 97  3  8 20 12 30.0000000  0  6  2 27 26 19 15  7                   0.000727827
   -424784.437 9   -328058.32549  21429988.655    21429988.3384   21429994.2334
        -0.000          -0.000
    178022.168 9    138416.01648  20470040.268    20470040.2864   20470045.7894
        -0.000          -0.000
  -1520481.309 9  -1165660.64346  23445912.737    23445913.0824   23445919.2244
        -0.000          -0.000
   1576769.022 9   1222320.60247  22788337.258    22788337.3124   22788344.1174
        -0.000          -0.000
   -861827.115 9   -666918.68446  23735873.489    23735873.1574   23735880.0704
        -0.000          -0.000
  -1735993.603 9  -1157930.95548  21085213.514    21085213.1614   21085219.7604
        -0.000          -0.000
 97  3  8 20 13  0.0000000  0  6  2 27 26 19 15  7                   0.000721709
   -440528.796 9   -340326.64849  21426992.595    21426992.2824   21426998.1604
        -0.000          -0.000
    191211.117 9    148693.12749  20472550.092    20472550.0984   20472555.5664
        -0.000          -0.000
  -1578543.093 9  -1210903.58046  23434863.958    23434864.3504   23434870.3304
        -0.000          -0.000
   1646092.188 9   1276338.61747  22801529.055    22801529.0904   22801535.9164
        -0.000          -0.000
   -890781.411 9   -689480.43046  23730363.528    23730363.2214   23730370.1084
        -0.000          -0.000
  -1801232.188 9  -1208766.18448  21072798.928    21072798.5954   21072805.1984
        -0.000          -0.000
 97  3  8 20 13 30.0000000  0  6  2 27 26 19 15  7                   0.000715603
   -456162.156 9   -352508.47649  21424017.644    21424017.3414   21424023.1874
        -0.000          -0.000
    204869.640 9    159336.13549  20475149.235    20475149.2294   20475154.6734
        -0.000          -0.000
  -1636145.876 9  -1255788.84546  23423902.644    23423903.0194   23423908.9754
        -0.000          -0.000
   1715723.238 9   1330596.53647  22814779.395    22814779.4574   22814786.3134
        -0.000          -0.000
   -919220.403 9   -711640.61946  23724951.733    23724951.4684   23724958.5084
        -0.000          -0.000
  -1866037.454 9  -1259263.76948  21060466.882    21060466.5524   21060473.1134
        -0.000          -0.000
 97  3  8 20 14  0.0000000  0  6  2 27 26 19 15  7                   0.000709493
   -471697.878 9   -364614.22149  21421061.289    21421060.9584   21421066.8064
        -0.000          -0.000
    218991.382 9    170340.09549  20477836.480    20477836.4894   20477841.9534
        -0.000          -0.000
  -1693310.359 9  -1300332.57646  23413024.663    23413025.0104   23413030.9494
        -0.000          -0.000
   1785646.241 9   1385081.95447  22828085.334    22828085.3964   22828092.2854
        -0.000          -0.000
   -947152.941 9   -733406.16946  23719636.521    23719636.2074   23719643.2654
        -0.000          -0.000
  -1930419.259 9  -1309431.38048  21048215.432    21048215.0944   21048221.6884
        -0.000          -0.000
 97  3  8 20 14 30.0000000  0  6  2 27 26 19 15  7                   0.000703374
   -487098.964 9   -376615.05649  21418130.482    21418130.1674   21418136.0634
        -0.000          -0.000
    233596.606 9    181720.79349  20480615.714    20480615.7354   20480621.2384
        -0.000          -0.000
  -1750025.308 9  -1344526.01646  23402232.181    23402232.5914   23402238.5684
        -0.000          -0.000
   1855865.106 9   1439797.92046  22841447.487    22841447.5654   22841454.4724
        -0.000          -0.000
   -974560.887 9   -754762.96646  23714421.071    23714420.7574   23714427.8644
        -0.000          -0.000
  -1994342.565 9  -1359241.71548  21036051.254    21036050.9154   21036057.5294
        -0.000          -0.000
 97  3  8 20 15  0.0000000  0  6  2 27 26 19 15  7                   0.000697254
   -502366.233 9   -388511.61149  21415225.208    21415224.9184   21415230.8374
        -0.000          -0.000
    248698.036 9    193488.14449  20483489.386    20483489.4054   20483494.9534
        -0.000          -0.000
  -1806280.354 9  -1388361.08646  23391527.215    23391527.6024   23391533.7174
        -0.000          -0.000
   1926384.598 9   1494748.12746  22854866.964    22854867.0844   22854873.8754
        -0.000          -0.000
  -1001439.814 9   -775707.53846  23709306.307    23709305.9194   23709313.1114
        -0.000          -0.000
  -2057776.823 9  -1408670.97949  21023980.114    21023979.7624   21023986.3814
        -0.000          -0.000
 97  3  8 20 15 30.0000000  0  6  2 27 26 19 15  7                   0.000691113
   -517509.765 9   -400311.74749  21412343.513    21412343.2234   21412349.1454
        -0.000          -0.000
    264276.087 9    205626.88149  20486453.771    20486453.7834   20486459.3484
        -0.000          -0.000
  -1862084.096 9  -1431844.49746  23380908.132    23380908.5444   23380914.6924
        -0.000          -0.000
   1997173.504 9   1549908.25547  22868337.673    22868337.7694   22868344.6394
        -0.000          -0.000
  -1027817.743 9   -796261.73046  23704286.584    23704286.2044   23704293.3794
        -0.000          -0.000
  -2120756.666 9  -1457746.15149  21011995.467    21011995.1384   21012001.7144
        -0.000          -0.000
 97  3  8 20 16  0.0000000  0  6  2 27 26 19 15  7                   0.000684982
   -532488.118 9   -411983.17149  21409493.251    21409492.9564   21409498.9134
        -0.000          -0.000
    280345.213 9    218148.28249  20489511.580    20489511.6064   20489517.1734
        -0.000          -0.000
  -1917388.187 9  -1474938.56746  23370384.202    23370384.5794   23370390.7304
        -0.000          -0.000
   2068260.985 9   1605301.03947  22881865.262    22881865.4144   22881872.2924
        -0.000          -0.000
  -1053663.215 9   -816401.00246  23699368.262    23699367.9594   23699375.1214
        -0.000          -0.000
  -2183250.818 9  -1506442.86248  21000103.188    21000102.8414   21000109.4074
        -0.000          -0.000
 97  3  8 20 16 30.0000000  0  6  2 27 26 19 15  7                   0.000678851
   -547321.468 9   -423541.60749  21406670.562    21406670.2514   21406676.2374
        -0.000          -0.000
    296875.563 9    231029.07349  20492657.233    20492657.2494   20492662.7814
        -0.000          -0.000
  -1972201.032 9  -1517649.85046  23359953.647    23359954.0204   23359960.2234
        -0.000          -0.000
   2139620.462 9   1660905.78747  22895444.623    22895444.7734   22895451.6934
        -0.000          -0.000
  -1078999.248 9   -836143.30546  23694546.769    23694546.4574   23694553.6984
        -0.000          -0.000
  -2245299.507 9  -1554792.45448  20988295.647    20988295.3264   20988301.8474
        -0.000          -0.000
 97  3  8 20 17  0.0000000  0  6  2 27 26 19 15  7                   0.000672718
   -562028.257 9   -435001.42249  21403871.927    21403871.6284   21403877.6184
        -0.000          -0.000
    313859.242 9    244263.10449  20495889.114    20495889.1414   20495894.6354
        -0.000          -0.000
  -2026519.572 9  -1559975.97846  23349617.177    23349617.5464   23349623.6514
        -0.000          -0.000
   2211228.626 9   1716704.30747  22909071.220    22909071.3804   22909078.3354
        -0.000          -0.000
  -1103833.738 9   -855494.81746  23689820.735    23689820.4884   23689827.4924
        -0.000          -0.000
  -2306932.794 9  -1602818.35048  20976567.183    20976566.8554   20976573.3614
        -0.000          -0.000
 97  3  8 20 17 30.0000000  0  6  2 27 26 19 15  7                   0.000666578
   -576605.708 9   -446360.45449  21401097.878    21401097.5794   21401103.5794
        -0.000          -0.000
    331286.872 9    257843.07349  20499205.507    20499205.5554   20499211.0174
        -0.000          -0.000
  -2080346.961 9  -1601919.37146  23339374.183    23339374.5574   23339380.5474
        -0.000          -0.000
   2283074.296 9   1772687.91246  22922743.082    22922743.1754   22922750.1854
        -0.000          -0.000
  -1128160.451 9   -874450.66746  23685191.733    23685191.4134   23685198.2414
        -0.000          -0.000
  -2368165.394 9  -1650532.01548  20964914.991    20964914.6524   20964921.1304
        -0.000          -0.000
 97  3  8 20 18  0.0000000  0  6  2 27 26 19 15  7                   0.000660463
   -591028.323 9   -457598.83549  21398353.300    21398353.0184   21398359.0414
        -0.000          -0.000
    349196.720 9    271798.79449  20502613.703    20502613.7364   20502619.1354
        -0.000          -0.000
  -2133641.780 9  -1643447.78346  23329232.504    23329232.8994   23329238.8824
        -0.000          -0.000
   2355192.492 9   1828883.86346  22936466.731    22936466.8054   22936473.8344
        -0.000          -0.000
  -1151930.848 9   -892973.00046  23680668.464    23680668.0754   23680674.8424
        -0.000          -0.000
  -2428945.812 9  -1697893.33348  20953348.831    20953348.4794   20953354.9444
        -0.000          -0.000
 97  3  8 20 18 30.0000000  0  6  2 27 26 19 15  7                   0.000654340
   -605332.836 9   -468745.18849  21395631.215    21395630.9234   21395636.9694
        -0.000          -0.000
    367565.589 9    286112.19149  20506109.245    20506109.2564   20506114.6384
        -0.000          -0.000
  -2186446.805 9  -1684594.53046  23319183.977    23319184.3654   23319190.4344
        -0.000          -0.000
   2427543.483 9   1885261.21147  22950234.665    22950234.7624   22950241.8984
        -0.000          -0.000
  -1175177.332 9   -911087.10346  23676244.742    23676244.3784   23676251.2404
        -0.000          -0.000
  -2489311.763 9  -1744931.68548  20941861.492    20941861.1714   20941867.5524
        -0.000          -0.000
 97  3  8 20 19  0.0000000  0  6  2 27 26 19 15  7                   0.000648224
   -619512.664 9   -479794.38349  21392932.896    21392932.6014   21392938.6184
        -0.000          -0.000
    386414.934 9    300799.98149  20509696.117    20509696.1734   20509701.6164
        -0.000          -0.000
  -2238755.885 9  -1725354.84146  23309229.755    23309230.1864   23309236.3274
        -0.000          -0.000
   2500161.533 9   1941846.65147  22964053.387    22964053.5164   22964060.7894
        -0.000          -0.000
  -1197883.546 9   -928780.20346  23671923.835    23671923.5084   23671930.5264
        -0.000          -0.000
  -2549232.407 9  -1791623.05148  20930458.986    20930458.6454   20930464.9624
        -0.000          -0.000
 97  3  8 20 19 30.0000000  0  6  2 27 26 19 15  7                   0.000642122
   -633580.062 9   -490755.97449  21390255.981    21390255.6844   21390261.6784
        -0.000          -0.000
    405727.510 9    315848.72949  20513371.172    20513371.2194   20513376.7044
        -0.000          -0.000
  -2290582.425 9  -1765739.15346  23299367.308    23299367.7144   23299374.0344
        -0.000          -0.000
   2573061.507 9   1998651.77647  22977925.825    22977925.8934   22977933.3484
        -0.000          -0.000
  -1220056.316 9   -946057.63546  23667704.371    23667704.0004   23667711.2134
        -0.000          -0.000
  -2608701.439 9  -1837962.50448  20919142.412    20919142.0604   20919148.3544
        -0.000          -0.000
 97  3  8 20 20  0.0000000  0  6  2 27 26 19 15  7                   0.000636027
   -647538.476 9   -501632.63949  21387599.761    21387599.4534   21387605.4684
        -0.000          -0.000
    425513.530 9    331266.39549  20517136.365    20517136.4024   20517141.9204
        -0.000          -0.000
  -2341929.209 9  -1805749.63046  23289596.260    23289596.6584   23289603.0484
        -0.000          -0.000
   2646241.221 9   2055674.88847  22991851.467    22991851.5524   22991859.0644
        -0.000          -0.000
  -1241699.790 9   -962922.63246  23663585.572    23663585.3004   23663592.6154
        -0.000          -0.000
  -2667711.646 9  -1883944.43848  20907913.096    20907912.7634   20907919.0724
        -0.000          -0.000
 97  3  8 20 20 30.0000000  0  6  2 27 26 19 15  7                   0.000629917
   -661403.583 9   -512436.60149  21384961.258    21384960.9704   21384967.0204
        -0.000          -0.000
    445772.915 9    347052.92048  20520991.582    20520991.6034   20520997.1434
        -0.000          -0.000
  -2392829.081 9  -1845411.86046  23279910.275    23279910.6544   23279917.1374
        -0.000          -0.000
   2719692.388 9   2112909.51347  23005828.800    23005828.8964   23005836.4634
        -0.000          -0.000
  -1262833.262 9   -979390.24346  23659563.948    23659563.6554   23659570.9114
        -0.000          -0.000
  -2726273.124 9  -1929576.71448  20896769.254    20896768.9084   20896775.1804
        -0.000          -0.000
 97  3  8 20 21  0.0000000  0  6  2 27 26 19 15  7                   0.000623804
   -675165.565 9   -523160.20849  21382342.407    21382342.1134   21382348.1974
        -0.000          -0.000
    466524.172 9    363222.72248  20524940.413    20524940.4494   20524945.9954
        -0.000          -0.000
  -2443260.553 9  -1884709.10346  23270313.445    23270313.8474   23270320.2394
        -0.000          -0.000
   2793426.853 9   2170364.89347  23019860.167    23019860.2624   23019867.7364
        -0.000          -0.000
  -1283440.676 9   -995447.91346  23655642.530    23655642.1994   23655649.3324
        -0.000          -0.000
  -2784349.067 9  -1974830.65349  20885717.738    20885717.4194   20885723.6054
        -0.000          -0.000
 97  3  8 20 21 30.0000000  0  6  2 27 26 19 15  7                   0.000617692
   -688798.551 9   -533783.29649  21379748.096    21379747.8294   21379753.8864
        -0.000          -0.000
    487792.481 9    379795.42248  20528987.686    20528987.7184   20528993.2144
        -0.000          -0.000
  -2493202.914 9  -1923625.22446  23260809.794    23260810.1664   23260816.4274
        -0.000          -0.000
   2867448.159 9   2228043.79447  23033946.091    23033946.1714   23033953.5524
        -0.000          -0.000
  -1303496.222 9  -1011075.56946  23651826.148    23651825.8324   23651832.7294
        -0.000          -0.000
  -2841915.733 9  -2019687.75249  20874763.199    20874762.8634   20874769.0424
        -0.000          -0.000
 97  3  8 20 22  0.0000000  0  6  2 27 26 19 15  7                   0.000611559
   -702314.654 9   -544315.31149  21377176.150    21377175.8594   21377181.8534
        -0.000          -0.000
    509568.731 9    396763.91348  20533131.578    20533131.5894   20533137.0534
        -0.000          -0.000
  -2542673.089 9  -1962173.39846  23251395.891    23251396.3034   23251402.4094
        -0.000          -0.000
   2941733.081 9   2285928.09847  23048082.167    23048082.2444   23048089.5694
        -0.000          -0.000
  -1323018.826 9  -1026287.95146  23648111.274    23648110.9034   23648117.4874
        -0.000          -0.000
  -2899006.010 9  -2064173.64449  20863899.222    20863898.8834   20863905.0774
        -0.000          -0.000
 97  3  8 20 22 30.0000000  0  6  2 27 26 19 15  7                   0.000605420
   -715706.632 9   -554750.60549  21374627.770    21374627.4734   21374633.3924
        -0.000          -0.000
    531826.670 9    414107.75148  20537367.146    20537367.1564   20537372.5354
        -0.000          -0.000
  -2591657.714 9  -2000343.22846  23242074.520    23242074.8964   23242080.9114
        -0.000          -0.000
   3016284.975 9   2344020.44747  23062269.041    23062269.1134   23062276.2974
        -0.000          -0.000
  -1342010.610 9  -1041086.72546  23644497.402    23644496.9454   23644503.1614
        -0.000          -0.000
  -2955638.274 9  -2108302.63949  20853122.405    20853122.0844   20853128.3234
        -0.000          -0.000
 97  3  8 20 23  0.0000000  0  6  2 27 26 19 15  7                   0.000599291
   -728942.880 9   -565064.54849  21372108.977    21372108.6674   21372114.5564
        -0.000          -0.000
    554563.886 9    431825.05148  20541693.902    20541693.9314   20541699.2574
        -0.000          -0.000
  -2640120.822 9  -2038106.67146  23232852.276    23232852.6514   23232858.6164
        -0.000          -0.000
   3091106.643 9   2402323.02247  23076507.213    23076507.2664   23076514.3964
        -0.000          -0.000
  -1360453.748 9  -1055457.96046  23640987.662    23640987.3254   23640993.3104
        -0.000          -0.000
  -3011816.797 9  -2152078.07849  20842431.903    20842431.5754   20842437.8874
        -0.000          -0.000
 97  3  8 20 23 30.0000000  0  6  2 27 26 19 15  7                   0.000593175
   -742015.243 9   -575250.78949  21369621.317    21369621.0294   21369626.9334
        -0.000          -0.000
    577766.557 9    449905.03848  20546109.206    20546109.2344   20546114.5814
        -0.000          -0.000
  -2688066.311 9  -2075466.77746  23223728.483    23223728.9184   23223734.8684
        -0.000          -0.000
   3166206.277 9   2460842.17147  23090798.242    23090798.3134   23090805.4124
        -0.000          -0.000
  -1378347.065 9  -1069400.79646  23637582.577    23637582.2534   23637588.1444
        -0.000          -0.000
  -3067570.501 9  -2195522.49149  20831822.290    20831821.9604   20831828.3024
        -0.000          -0.000
 97  3  8 20 24  0.0000000  0  6  2 27 26 19 15  7                   0.000587070
   -754935.265 9   -585318.31949  21367162.681    21367162.4114   21367168.3704
        -0.000          -0.000
    601405.775 9    468325.19348  20550607.535    20550607.5614   20550612.9754
        -0.000          -0.000
  -2735504.046 9  -2112431.23446  23214701.343    23214701.8264   23214707.7704
        -0.000          -0.000
   3241570.288 9   2519567.32646  23105139.595    23105139.6754   23105146.8124
        -0.000          -0.000
  -1395708.120 9  -1082928.85746  23634278.765    23634278.3804   23634284.5934
        -0.000          -0.000
  -3122917.376 9  -2238649.89449  20821290.110    20821289.7714   20821296.1464
        -0.000          -0.000
 97  3  8 20 24 30.0000000  0  6  2 27 26 19 15  7                   0.000580993
   -767684.343 9   -595252.65249  21364736.609    21364736.3414   21364742.2944
        -0.000          -0.000
    625503.161 9    487102.36648  20555193.071    20555193.1064   20555198.5484
        -0.000          -0.000
  -2782402.109 9  -2148975.16146  23205777.021    23205777.4644   23205783.3124
        -0.000          -0.000
   3317210.877 9   2578508.00146  23119533.475    23119533.5004   23119540.7464
        -0.000          -0.000
  -1412508.064 9  -1096019.67746  23631081.576    23631081.3934   23631087.9474
        -0.000          -0.000
  -3177815.075 9  -2281427.29449  20810843.377    20810843.0434   20810849.4064
        -0.000          -0.000
 97  3  8 20 25  0.0000000  0  6  2 27 26 19 15  7                   0.000574914
   -780313.461 9   -605093.51049  21362333.416    21362333.1154   21362339.0804
        -0.000          -0.000
    650044.614 9    506225.56048  20559863.137    20559863.1734   20559868.6384
        -0.000          -0.000
  -2828806.069 9  -2185134.07446  23196946.748    23196947.1574   23196952.9424
        -0.000          -0.000
   3393089.678 9   2637634.30646  23133972.670    23133972.7144   23133980.0374
        -0.000          -0.000
  -1428778.113 9  -1108697.57746  23627985.300    23627985.1564   23627991.9604
        -0.000          -0.000
  -3232280.930 9  -2323868.19149  20800478.846    20800478.5084   20800484.8544
        -0.000          -0.000
 97  3  8 20 25 30.0000000  0  6  2 27 26 19 15  7                   0.000568832
   -792848.417 9   -614860.99348  21359948.080    21359947.7664   21359953.7374
        -0.000          -0.000
    675032.044 9    525696.27248  20564618.116    20564618.1714   20564623.6224
        -0.000          -0.000
  -2874732.487 9  -2220920.89346  23188207.325    23188207.7184   23188213.3924
        -0.000          -0.000
   3469209.380 9   2696948.30546  23148457.647    23148457.7264   23148465.2234
        -0.000          -0.000
  -1444524.450 9  -1120967.41946  23624988.932    23624988.7514   23624995.5874
        -0.000          -0.000
  -3286304.249 9  -2365964.26149  20790198.525    20790198.1854   20790204.5024
        -0.000          -0.000
 97  3  8 20 26  0.0000000  0  6  2 27 26 19 15  7                   0.000562749
   -805282.215 9   -624549.64648  21357581.951    21357581.6644   21357587.6154
        -0.000          -0.000
    700486.077 9    545530.57048  20569461.944    20569461.9784   20569467.3924
        -0.000          -0.000
  -2920158.085 9  -2256317.45746  23179563.052    23179563.4924   23179569.1494
        -0.000          -0.000
   3545565.125 9   2756446.25046  23162987.680    23162987.7674   23162995.2954
        -0.000          -0.000
  -1459739.553 9  -1132823.32946  23622093.708    23622093.4354   23622100.1034
        -0.000          -0.000
  -3339855.776 9  -2407692.70349  20780007.944    20780007.6404   20780013.9344
        -0.000          -0.000
 97  3  8 20 26 30.0000000  0  6  2 27 26 19 15  7                   0.000556679
   -817599.510 9   -634147.52248  21355238.068    21355237.7764   21355243.6624
        -0.000          -0.000
    726432.609 9    565748.63748  20574399.483    20574399.4994   20574404.8624
        -0.000          -0.000
  -2965061.634 9  -2291307.23546  23171018.151    23171018.6374   23171024.3114
        -0.000          -0.000
   3622178.856 9   2816145.21946  23177566.782    23177566.8354   23177574.3734
        -0.000          -0.000
  -1474400.204 9  -1144247.16046  23619303.895    23619303.6064   23619310.2244
        -0.000          -0.000
  -3392913.689 9  -2449036.50949  20769911.346    20769911.0304   20769917.3254
        -0.000          -0.000
 97  3  8 20 27  0.0000000  0  6  2 27 26 19 15  7                   0.000550612
   -829805.194 9   -643658.43348  21352915.421    21352915.0944   21352920.9434
        -0.000          -0.000
    752864.929 9    586345.23548  20579429.422    20579429.4474   20579434.8074
        -0.000          -0.000
  -3009466.961 9  -2325908.77446  23162568.137    23162568.5284   23162574.3044
        -0.000          -0.000
   3699053.326 9   2876047.36246  23192195.508    23192195.6074   23192203.1224
        -0.000          -0.000
  -1488514.288 9  -1155245.12146  23616617.988    23616617.6864   23616624.4834
        -0.000          -0.000
  -3445494.900 9  -2490008.85949  20759905.472    20759905.1574   20759911.4474
        -0.000          -0.000
 97  3  8 20 27 30.0000000  0  6  2 27 26 19 15  7                   0.000544540
   -841896.151 9   -653079.94148  21350614.599    21350614.2774   21350620.0864
        -0.000          -0.000
    779769.980 9    607310.19948  20584549.332    20584549.3534   20584554.7004
        -0.000          -0.000
  -3053381.632 9  -2360127.99946  23154211.384    23154211.6934   23154217.5484
        -0.000          -0.000
   3776183.044 9   2936148.39646  23206872.813    23206872.8774   23206880.4024
        -0.000          -0.000
  -1502088.887 9  -1165822.71245  23614034.701    23614034.3744   23614041.0874
        -0.000          -0.000
  -3497609.781 9  -2530617.83349  20749988.336    20749987.9924   20749994.2894
        -0.000          -0.000
 97  3  8 20 28  0.0000000  0  6  2 27 26 19 15  7                   0.000538450
   -853873.650 9   -662413.03548  21348335.399    21348335.0454   21348340.8814
        -0.000          -0.000
    807134.482 9    628633.17649  20589756.639    20589756.6684   20589762.0194
        -0.000          -0.000
  -3096820.160 9  -2393976.20346  23145945.252    23145945.5654   23145951.4384
        -0.000          -0.000
   3853550.478 9   2996434.66146  23221595.354    23221595.4144   23221602.8954
        -0.000          -0.000
  -1515132.494 9  -1175986.54945  23611552.435    23611552.1134   23611558.8874
        -0.000          -0.000
  -3549278.357 9  -2570879.03349  20740156.120    20740155.7694   20740162.0864
        -0.000          -0.000
 97  3  8 20 28 30.0000000  0  6  2 27 26 19 15  7                   0.000532336
   -865742.753 9   -671661.66248  21346076.708    21346076.3894   21346082.2764
        -0.000          -0.000
    834970.164 9    650323.30549  20595053.645    20595053.6614   20595058.9914
        -0.000          -0.000
  -3139801.017 9  -2427467.75146  23137766.159    23137766.5384   23137772.4984
        -0.000          -0.000
   3931164.689 9   3056913.22246  23236364.918    23236364.9904   23236372.3764
        -0.000          -0.000
  -1527640.150 9  -1185732.75645  23609172.151    23609171.7614   23609178.6894
        -0.000          -0.000
  -3600513.076 9  -2610802.16149  20730406.429    20730406.0794   20730412.4304
        -0.000          -0.000
 97  3  8 20 29  0.0000000  0  6  2 27 26 19 15  7                   0.000526192
   -877492.125 9   -680816.99548  21343840.854    21343840.5874   21343846.4234
        -0.000          -0.000
    863294.031 9    672393.84649  20600443.523    20600443.5404   20600448.8814
        -0.000          -0.000
  -3182314.000 9  -2460594.74346  23129676.254    23129676.6184   23129682.6194
        -0.000          -0.000
   4009019.717 9   3117579.43946  23251180.270    23251180.3234   23251187.7584
        -0.000          -0.000
  -1539607.427 8  -1195057.89745  23606894.529    23606894.1784   23606901.5354
        -0.000          -0.000
  -3651307.769 9  -2650382.40749  20720740.462    20720740.1204   20720746.4674
        -0.000          -0.000
 97  3  8 20 29 30.0000000  0  6  2 27 26 19 15  7                   0.000520028
   -889111.632 9   -689871.14248  21341629.780    21341629.4974   21341635.2994
        -0.000          -0.000
    892113.387 9    694850.48249  20605927.669    20605927.6634   20605933.0524
        -0.000          -0.000
  -3224339.803 9  -2493342.10446  23121679.013    23121679.3744   23121685.3604
        -0.000          -0.000
   4087115.826 9   3178433.49946  23266041.620    23266041.6744   23266049.0294
        -0.000          -0.000
  -1551026.765 9  -1203956.04245  23604721.275    23604720.9424   23604728.6794
        -0.000          -0.000
  -3701655.354 9  -2689614.25949  20711159.610    20711159.2834   20711165.5834
        -0.000          -0.000
 97  3  8 20 30  0.0000000  0  6  2 27 26 19 15  7                   0.000513843
   -900610.343 9   -698831.16448  21339441.667    21339441.3524   21339447.1384
        -0.000          -0.000
    921418.750 9    717685.82149  20611504.295    20611504.2934   20611509.7504
        -0.000          -0.000
  -3265876.989 9  -2525708.73546  23113774.697    23113775.0564   23113781.1364
        -0.000          -0.000
   4165443.925 9   3239468.33246  23280946.945    23280946.9564   23280954.4114
        -0.000          -0.000
  -1561902.734 8  -1212430.80045  23602651.630    23602651.2844   23602659.2404
        -0.000          -0.000
  -3751557.541 9  -2728499.04749  20701663.533    20701663.1974   20701669.4634
        -0.000          -0.000
 97  3  8 20 30 30.0000000  0  6  2 27 26 19 15  7                   0.000507655
   -911973.983 9   -707685.92648  21337279.231    21337278.9094   21337284.7134
        -0.000          -0.000
    951217.743 9    740905.81349  20617174.799    20617174.8274   20617180.3244
        -0.000          -0.000
  -3306895.898 9  -2557671.50446  23105968.911    23105969.3204   23105975.5634
        -0.000          -0.000
   4244014.280 9   3300691.92446  23295898.378    23295898.3454   23295906.0144
        -0.000          -0.000
  -1572225.055 8  -1220474.16845  23600687.367    23600687.0744   23600694.9364
        -0.000          -0.000
  -3800989.862 9  -2767017.70249  20692256.894    20692256.5794   20692262.7884
        -0.000          -0.000
 97  3  8 20 31  0.0000000  0  6  2 27 26 19 15  7                   0.000501480
   -923186.964 9   -716423.28848  21335145.420    21335145.0974   21335150.9634
        -0.000          -0.000
    981493.804 9    764497.54249  20622936.153    20622936.1684   20622941.6844
        -0.000          -0.000
  -3347379.831 9  -2589217.41346  23098264.977    23098265.4144   23098271.8184
        -0.000          -0.000
   4322837.830 9   3362112.81246  23310897.932    23310897.9014   23310905.6334
        -0.000          -0.000
  -1581985.984 8  -1228080.04345  23598829.840    23598829.5104   23598837.5014
        -0.000          -0.000
  -3849933.391 9  -2805155.48249  20682943.299    20682942.9474   20682949.0874
        -0.000          -0.000
 97  3  8 20 31 30.0000000  0  6  2 27 26 19 15  7                   0.000495318
   -934277.573 9   -725065.28948  21333034.904    21333034.5974   21333040.5184
        -0.000          -0.000
   1012219.153 9    788439.36749  20628782.967    20628782.9514   20628788.4974
        -0.000          -0.000
  -3387350.700 9  -2620363.52446  23090658.748    23090659.2094   23090665.5744
        -0.000          -0.000
   4401916.265 9   3423732.31446  23325946.024    23325946.0234   23325953.8834
        -0.000          -0.000
  -1591201.883 8  -1235261.25245  23597075.956    23597075.6554   23597083.7574
        -0.000          -0.000
  -3898407.537 9  -2842927.50449  20673718.953    20673718.5934   20673724.7094
        -0.000          -0.000
 97  3  8 20 32  0.0000000  0  6  2 27 26 19 15  7                   0.000489176
   -945257.174 9   -733620.80548  21330945.544    21330945.2444   21330951.1424
        -0.000          -0.000
   1043397.495 9    812734.16849  20634715.930    20634715.9434   20634721.5804
        -0.000          -0.000
  -3426802.081 9  -2651104.84046  23083151.513    23083151.9264   23083158.1264
        -0.000          -0.000
   4481248.286 9   3485549.42346  23341042.389    23341042.4034   23341050.2924
        -0.000          -0.000
  -1599873.953 9  -1242018.67145  23595425.744    23595425.3474   23595433.5924
        -0.000          -0.000
  -3946423.871 9  -2880342.79249  20664581.673    20664581.3484   20664587.4454
        -0.000          -0.000
 97  3  8 20 32 30.0000000  0  6  2 27 26 19 15  7                   0.000483056
   -956122.868 9   -742087.56348  21328877.880    21328877.5754   21328883.4664
        -0.000          -0.000
   1075041.187 9    837391.57849  20640737.483    20640737.5354   20640743.2234
        -0.000          -0.000
  -3465731.879 9  -2681439.74046  23075743.559    23075743.9754   23075750.0294
        -0.000          -0.000
   4560841.515 9   3547570.06646  23356188.463    23356188.5474   23356196.5174
        -0.000          -0.000
  -1607992.031 8  -1248344.41345  23593880.862    23593880.4574   23593888.8024
        -0.000          -0.000
  -3993988.962 9  -2917406.46249  20655530.312    20655529.9944   20655536.0514
        -0.000          -0.000
 97  3  8 20 33  0.0000000  0  6  2 27 26 19 15  7                   0.000476952
   -966893.095 9   -750479.94148  21326828.359    21326828.0344   21326833.9024
        -0.000          -0.000
   1107149.212 9    862410.81349  20646847.444    20646847.4954   20646853.1364
        -0.000          -0.000
  -3504157.976 9  -2711382.13146  23068431.426    23068431.7574   23068437.7644
        -0.000          -0.000
   4640690.470 9   3609789.96746  23371383.218    23371383.2884   23371391.4064
        -0.000          -0.000
  -1615557.751 8  -1254239.76545  23592441.133    23592440.7434   23592448.9354
        -0.000          -0.000
  -4041113.593 9  -2954126.91449  20646562.773    20646562.4424   20646568.4504
        -0.000          -0.000
 97  3  8 20 33 30.0000000  0  6  2 27 26 19 15  7                   0.000470858
   -977564.348 9   -758795.19148  21324797.654    21324797.3204   21324803.2334
        -0.000          -0.000
   1139733.531 9    887801.18449  20653048.133    20653048.1724   20653053.7524
        -0.000          -0.000
  -3542074.856 9  -2740927.74046  23061216.094    23061216.4824   23061222.4764
        -0.000          -0.000
   4720781.567 9   3672198.55946  23386624.217    23386624.2264   23386632.3214
        -0.000          -0.000
  -1622568.398 9  -1259702.56646  23591107.198    23591106.8664   23591114.7204
        -0.000          -0.000
  -4087793.570 9  -2990500.88049  20637679.902    20637679.5724   20637685.5444
        -0.000          -0.000
 97  3  8 20 34  0.0000000  0  6  2 27 26 19 15  7                   0.000464748
   -988135.223 9   -767032.22148  21322786.037    21322785.7234   21322791.6944
        -0.000          -0.000
   1172784.664 9    913555.31348  20659337.619    20659337.6384   20659343.1494
        -0.000          -0.000
  -3579492.791 9  -2770084.56646  23054095.639    23054096.0614   23054102.1604
        -0.000          -0.000
   4801080.173 9   3734768.85446  23401904.663    23401904.7284   23401912.6294
        -0.000          -0.000
  -1629032.816 9  -1264739.75146  23589877.104    23589876.7484   23589884.5264
        -0.000          -0.000
  -4134020.556 9  -3026521.86749  20628883.199    20628882.8524   20628888.8374
        -0.000          -0.000
 97  3  8 20 34 30.0000000  0  6  2 27 26 19 15  7                   0.000458622
   -998583.652 9   -775173.83648  21320797.761    21320797.4594   21320803.4444
        -0.000          -0.000
   1206307.302 9    939676.84548  20665716.804    20665716.8224   20665722.3114
        -0.000          -0.000
  -3616416.182 9  -2798856.01946  23047069.335    23047069.6964   23047075.8674
        -0.000          -0.000
   4881600.689 9   3797512.08046  23417227.351    23417227.4014   23417235.2114
        -0.000          -0.000
  -1634934.249 9  -1269338.23346  23588754.246    23588753.8554   23588761.4854
        -0.000          -0.000
  -4179750.714 9  -3062155.71649  20620181.018    20620180.6864   20620186.6724
        -0.000          -0.000
 97  3  8 20 35  0.0000000  0  6  2 27 26 19 15  7                   0.000452467
  -1008909.005 9   -783219.55448  21318832.892    21318832.5994   21318838.5574
        -0.000          -0.000
   1240295.421 9    966161.08648  20672184.491    20672184.5044   20672190.0464
        -0.000          -0.000
  -3652850.479 9  -2827246.34646  23040136.100    23040136.4354   23040142.6494
        -0.000          -0.000
   4962332.806 9   3860420.16946  23432590.224    23432590.2754   23432598.1004
        -0.000          -0.000
  -1640283.240 9  -1273506.23846  23587736.452    23587736.0804   23587743.6794
        -0.000          -0.000
  -4224974.252 9  -3097394.79449  20611575.254    20611574.9244   20611580.9304
        -0.000          -0.000
 97  3  8 20 35 30.0000000  0  6  2 27 26 19 15  7                   0.000446288
  -1019107.430 9   -791166.36748  21316892.179    21316891.8834   21316897.7724
        -0.000          -0.000
   1274749.515 9    993008.42248  20678740.840    20678740.8464   20678746.3894
        -0.000          -0.000
  -3688786.402 9  -2855248.35146  23033297.765    23033298.1004   23033304.2684
        -0.000          -0.000
   5043277.968 9   3923494.27146  23447993.613    23447993.6924   23448001.5464
        -0.000          -0.000
  -1645084.065 9  -1277247.11346  23586822.908    23586822.5634   23586830.2294
        -0.000          -0.000
  -4269701.386 9  -3132247.06749  20603063.918    20603063.5864   20603069.5984
        -0.000          -0.000
 97  3  8 20 36  0.0000000  0  6  2 27 26 19 15  7                   0.000440104
  -1029175.507 9   -799011.61048  21314976.278    21314975.9894   21314981.7604
        -0.000          -0.000
   1309695.595 9   1020239.12748  20685390.852    20685390.8824   20685396.3824
        -0.000          -0.000
  -3724209.970 9  -2882851.11846  23026556.811    23026557.1974   23026563.3844
        -0.000          -0.000
   5124467.183 9   3986758.53846  23463443.446    23463443.5464   23463451.4254
        -0.000          -0.000
  -1649317.423 9  -1280545.78846  23586017.281    23586016.8714   23586024.5834
        -0.000          -0.000
  -4313927.025 9  -3166708.56649  20594648.011    20594647.6824   20594653.6824
        -0.000          -0.000
 97  3  8 20 36 30.0000000  0  6  2 27 26 19 15  7                   0.000433917
  -1039127.675 9   -806766.53748  21313082.443    21313082.1404   21313087.8214
        -0.000          -0.000
   1345121.996 9   1047844.10548  20692132.291    20692132.3254   20692137.8164
        -0.000          -0.000
  -3759133.025 9  -2910063.87446  23019911.131    23019911.5374   23019917.7384
        -0.000          -0.000
   5205901.707 9   4050213.95046  23478939.952    23478940.0084   23478947.9624
        -0.000          -0.000
  -1652995.004 9  -1283411.40446  23585317.484    23585317.0654   23585324.6954
        -0.000          -0.000
  -4357695.167 9  -3200813.57049  20586319.207    20586318.8684   20586324.8454
        -0.000          -0.000
 97  3  8 20 37  0.0000000  0  6  2 27 26 19 15  7                   0.000427749
  -1048943.314 9   -814415.07848  21311214.610    21311214.3134   21311219.9604
        -0.000          -0.000
   1381052.332 9   1075841.75848  20698969.647    20698969.6614   20698975.1524
        -0.000          -0.000
  -3793520.399 9  -2936859.21846  23013367.479    23013367.9074   23013373.9894
        -0.000          -0.000
   5287594.559 9   4113870.66446  23494485.639    23494485.7464   23494493.5484
        -0.000          -0.000
  -1656100.840 9  -1285831.47546  23584726.512    23584726.0744   23584733.5874
        -0.000          -0.000
  -4401013.838 9  -3234568.34549  20578075.875    20578075.5354   20578081.5054
        -0.000          -0.000
 97  3  8 20 37 30.0000000  0  6  2 27 26 19 15  7                   0.000421594
  -1058642.668 9   -821973.00149  21309368.893    21309368.5714   21309374.2524
        -0.000          -0.000
   1417471.816 9   1104220.56948  20705900.092    20705900.1044   20705905.5944
        -0.000          -0.000
  -3827385.083 9  -2963247.27146  23006923.255    23006923.6684   23006929.6004
        -0.000          -0.000
   5369531.122 9   4177717.27246  23510077.711    23510077.7324   23510085.4304
        -0.000          -0.000
  -1658648.046 9  -1287816.26246  23584241.818    23584241.4594   23584248.7194
        -0.000          -0.000
  -4443907.083 9  -3267991.61449  20569913.532    20569913.2054   20569919.1724
        -0.000          -0.000
 97  3  8 20 38  0.0000000  0  6  2 27 26 19 15  7                   0.000415444
  -1068210.065 9   -829428.10549  21307548.262    21307547.9524   21307553.6854
        -0.000          -0.000
   1454390.145 9   1132988.08548  20712925.441    20712925.4404   20712930.9464
        -0.000          -0.000
  -3860730.337 9  -2989230.59846  23000577.731    23000578.1824   23000584.1034
        -0.000          -0.000
   5451711.662 9   4241754.00546  23525716.126    23525716.1854   23525723.8114
        -0.000          -0.000
  -1660626.754 9  -1289358.07346  23583865.368    23583865.0304   23583872.0114
        -0.000          -0.000
  -4486353.871 9  -3301066.99849  20561836.132    20561835.7974   20561841.7924
        -0.000          -0.000
 97  3  8 20 38 30.0000000  0  6  2 27 26 19 15  7                   0.000409300
  -1077634.530 9   -836771.83349  21305754.823    21305754.5034   21305760.2484
        -0.000          -0.000
   1491799.961 9   1162138.57748  20720044.309    20720044.3124   20720049.8004
        -0.000          -0.000
  -3893544.286 9  -3014799.90546  22994333.369    22994333.8644   22994339.8204
        -0.000          -0.000
   5534127.725 9   4305974.25546  23541399.617    23541399.6084   23541407.1244
        -0.000          -0.000
  -1662037.773 9  -1290457.53546  23583597.007    23583596.6264   23583603.3014
        -0.000          -0.000
  -4528341.679 9  -3333784.73749  20553846.104    20553845.7694   20553851.7554
        -0.000          -0.000
 97  3  8 20 39  0.0000000  0  6  2 27 26 19 15  7                   0.000403149
  -1086932.981 9   -844017.36949  21303985.364    21303985.0584   21303990.7554
        -0.000          -0.000
   1529693.108 9   1191665.69448  20727255.101    20727255.1004   20727260.6074
        -0.000          -0.000
  -3925834.326 9  -3039960.96946  22988188.856    22988189.3284   22988195.2204
        -0.000          -0.000
   5616753.141 9   4370357.63446  23557122.842    23557122.7734   23557130.2914
        -0.000          -0.000
  -1662896.344 9  -1291126.52746  23583433.597    23583433.2294   23583439.8034
        -0.000          -0.000
  -4569866.304 9  -3366141.55349  20545944.164    20545943.8394   20545949.8054
        -0.000          -0.000
 97  3  8 20 39 30.0000000  0  6  2 27 26 19 15  7                   0.000396982
  -1096106.340 9   -851165.43449  21302239.713    21302239.4174   21302245.0504
        -0.000          -0.000
   1568065.661 9   1221566.37148  20734557.098    20734557.1154   20734562.6434
        -0.000          -0.000
  -3957611.200 9  -3064722.16646  22982141.949    22982142.4444   22982148.1834
        -0.000          -0.000
   5699584.236 9   4434901.28546  23572885.197    23572885.1014   23572892.5834
        -0.000          -0.000
  -1663200.217 9  -1291363.28846  23583375.642    23583375.3194   23583381.8524
        -0.000          -0.000
  -4610914.317 9  -3398126.98449  20538132.975    20538132.6274   20538138.5824
        -0.000          -0.000
 97  3  8 20 40  0.0000000  0  6  2 27 26 19 15  7                   0.000390793
  -1105148.195 9   -858211.02549  21300519.100    21300518.8184   21300524.4164
        -0.000          -0.000
   1606903.694 9   1251829.76248  20741947.710    20741947.7484   20741953.2404
        -0.000          -0.000
  -3988880.671 9  -3089087.97646  22976191.617    22976192.0634   22976197.7174
        -0.000          -0.000
   5782611.624 9   4499597.87646  23588684.733    23588684.6444   23588692.1914
        -0.000          -0.000
  -1662951.014 9  -1291169.07846  23583423.068    23583422.7474   23583429.3184
        -0.000          -0.000
  -4651486.061 9  -3429741.29749  20530412.394    20530412.0424   20530417.9814
        -0.000          -0.000
 97  3  8 20 40 30.0000000  0  6  2 27 26 19 15  7                   0.000384602
  -1114041.376 9   -865140.76049  21298826.783    21298826.4794   21298832.1034
        -0.000          -0.000
   1646210.491 9   1282458.43148  20749427.546    20749427.5904   20749433.0004
        -0.000          -0.000
  -4019618.786 9  -3113039.73946  22970342.451    22970342.9124   22970348.4944
        -0.000          -0.000
   5865850.115 9   4564458.98046  23604524.556    23604524.4584   23604532.0184
        -0.000          -0.000
  -1662128.823 9  -1290528.39646  23583579.384    23583579.0784   23583585.7604
        -0.000          -0.000
  -4691572.822 9  -3460977.69949  20522784.082    20522783.7424   20522789.6984
        -0.000          -0.000
 97  3  8 20 41  0.0000000  0  6  2 27 26 19 15  7                   0.000378398
  -1122792.713 9   -871959.97049  21297161.439    21297161.1324   21297166.8484
        -0.000          -0.000
   1685970.229 9   1313440.03748  20756993.609    20756993.6524   20756999.0234
        -0.000          -0.000
  -4049847.410 9  -3136594.50246  22964590.238    22964590.6354   22964596.2274
        -0.000          -0.000
   5949289.784 9   4629476.84246  23620402.635    23620402.5164   23620410.0914
        -0.000          -0.000
  -1660737.998 9  -1289444.61746  23583843.940    23583843.5854   23583850.4194
        -0.000          -0.000
  -4731184.953 9  -3491844.26349  20515246.120    20515245.7714   20515251.7274
        -0.000          -0.000
 97  3  8 20 41 30.0000000  0  6  2 27 26 19 15  7                   0.000372192
  -1131401.492 9   -878668.09649  21295523.261    21295522.9664   21295528.7114
        -0.000          -0.000
   1726171.313 9   1344765.55048  20764643.635    20764643.6664   20764649.0424
        -0.000          -0.000
  -4079564.159 9  -3159750.39946  22958935.223    22958935.6104   22958941.2974
        -0.000          -0.000
   6032945.642 9   4694663.16145  23636321.744    23636321.7254   23636329.2914
        -0.000          -0.000
  -1658770.830 8  -1287911.73645  23584218.096    23584217.7164   23584224.8224
        -0.000          -0.000
  -4770322.725 9  -3522341.19549  20507798.430    20507798.0874   20507804.0674
        -0.000          -0.000
 97  3  8 20 42  0.0000000  0  6  2 27 26 19 15  7                   0.000365987
  -1139892.360 9   -885284.34849  21293907.497    21293907.1954   21293912.9464
        -0.000          -0.000
   1766800.421 9   1376424.59048  20772375.107    20772375.1444   20772380.5664
        -0.000          -0.000
  -4108776.536 9  -3182513.27746  22953376.169    22953376.6484   22953382.4184
        -0.000          -0.000
   6116812.003 8   4760013.50445  23652280.889    23652280.8474   23652288.5604
        -0.000          -0.000
  -1656242.390 8  -1285941.50945  23584699.134    23584698.8334   23584706.0144
        -0.000          -0.000
  -4809014.589 9  -3552490.66649  20500435.566    20500435.2344   20500441.2324
        -0.000          -0.000
 97  3  8 20 42 30.0000000  0  6  2 27 26 19 15  7                   0.000359792
  -1148278.727 9   -891819.16449  21292311.581    21292311.2704   21292317.0034
        -0.000          -0.000
   1807871.104 9   1408427.71048  20780190.654    20780190.6734   20780196.1714
        -0.000          -0.000
  -4137479.841 9  -3204879.47146  22947914.141    22947914.5594   22947920.4014
        -0.000          -0.000
   6200894.188 8   4825532.04345  23668281.090    23668280.9804   23668288.8454
        -0.000          -0.000
  -1653150.180 9  -1283531.96945  23585287.638    23585287.4054   23585294.4674
        -0.000          -0.000
  -4847260.996 9  -3582293.03649  20493157.503    20493157.1824   20493163.1454
        -0.000          -0.000
 97  3  8 20 43  0.0000000  0  6  2 27 26 19 15  7                   0.000353612
  -1156555.106 9   -898268.27749  21290736.602    21290736.2904   21290742.0394
        -0.000          -0.000
   1849412.275 9   1440797.44148  20788095.637    20788095.6714   20788101.2324
        -0.000          -0.000
  -4165663.675 9  -3226840.89646  22942550.974    22942551.4024   22942557.1874
        -0.000          -0.000
   6285212.045 9   4891234.23045  23684326.235    23684326.0224   23684334.0454
        -0.000          -0.000
  -1649489.816 9  -1280679.73546  23585984.312    23585983.9634   23585991.0214
        -0.000          -0.000
  -4885047.285 9  -3611736.86949  20485967.044    20485966.6914   20485972.6344
        -0.000          -0.000
 97  3  8 20 43 30.0000000  0  6  2 27 26 19 15  7                   0.000347454
  -1164727.130 9   -904636.07149  21289181.469    21289181.1674   21289186.9234
        -0.000          -0.000
   1891443.213 9   1473548.81348  20796093.840    20796093.8744   20796099.4504
        -0.000          -0.000
  -4193314.132 9  -3248386.71446  22937289.362    22937289.6754   22937295.4004
        -0.000          -0.000
   6369769.147 9   4957122.86845  23700417.096    23700417.0134   23700424.7174
        -0.000          -0.000
  -1645262.195 9  -1277385.46545  23586788.844    23586788.5564   23586795.3964
        -0.000          -0.000
  -4922371.266 9  -3640820.46249  20478864.489    20478864.1374   20478870.0724
        -0.000          -0.000
 97  3  8 20 44  0.0000000  0  6  2 27 26 19 15  7                   0.000341304
  -1172791.307 9   -910919.83149  21287646.887    21287646.5794   21287652.3324
        -0.000          -0.000
   1933971.546 9   1506687.76548  20804186.685    20804186.7314   20804192.3164
        -0.000          -0.000
  -4220434.668 9  -3269519.59446  22932128.487    22932128.8784   22932134.4574
        -0.000          -0.000
   6454555.821 9   5023190.37346  23716551.542    23716551.5934   23716559.2124
        -0.000          -0.000
  -1640472.539 8  -1273653.25645  23587700.307    23587699.9854   23587706.7484
        -0.000          -0.000
  -4959223.470 9  -3669536.43649  20471851.742    20471851.3924   20471857.3474
        -0.000          -0.000
 97  3  8 20 44 30.0000000  0  6  2 27 26 19 15  7                   0.000335170
  -1180718.621 9   -917096.94449  21286138.395    21286138.0934   21286143.8264
        -0.000          -0.000
   1977016.614 9   1540229.38048  20812377.930    20812377.9814   20812383.5214
        -0.000          -0.000
  -4247005.490 9  -3290224.13746  22927072.227    22927072.6084   22927078.0624
        -0.000          -0.000
   6539585.350 9   5089447.07846  23732732.147    23732732.1124   23732740.0064
        -0.000          -0.000
  -1635107.249 8  -1269472.48545  23588721.121    23588720.9394   23588727.7084
        -0.000          -0.000
  -4995576.526 9  -3697863.46749  20464933.960    20464933.6114   20464939.5884
        -0.000          -0.000
 97  3  8 20 45  0.0000000  0  6  2 27 26 19 15  7                   0.000329046
  -1188514.483 9   -923171.62449  21284654.976    21284654.6604   21284660.3504
        -0.000          -0.000
   2020564.149 9   1574162.52648  20820664.753    20820664.7844   20820670.3024
        -0.000          -0.000
  -4273027.803 9  -3310501.27246  22922120.341    22922120.7064   22922126.1494
        -0.000          -0.000
   6624841.388 9   5155880.28746  23748955.854    23748955.8504   23748963.8774
        -0.000          -0.000
  -1629176.866 8  -1264851.39545  23589849.491    23589849.3174   23589856.2264
        -0.000          -0.000
  -5031438.745 9  -3725808.02149  20458109.546    20458109.2164   20458115.2244
        -0.000          -0.000
 97  3  8 20 45 30.0000000  0  6  2 27 26 19 15  7                   0.000322925
  -1196187.623 9   -929150.67649  21283194.768    21283194.4514   21283200.1744
        -0.000          -0.000
   2064583.671 9   1608463.45848  20829041.424    20829041.4254   20829046.9594
        -0.000          -0.000
  -4298515.907 9  -3330362.13846  22917270.058    22917270.4634   22917275.9044
        -0.000          -0.000
   6710302.207 9   5222473.08946  23765218.537    23765218.5914   23765226.6514
        -0.000          -0.000
  -1622685.597 8  -1259793.25445  23591084.618    23591084.3934   23591091.2954
        -0.000          -0.000
  -5066826.134 9  -3753382.57849  20451375.555    20451375.2174   20451381.2064
        -0.000          -0.000
 97  3  8 20 46  0.0000000  0  6  2 27 26 19 15  7                   0.000316808
  -1203719.560 9   -935019.69949  21281761.381    21281761.0944   21281766.8964
        -0.000          -0.000
   2109072.627 9   1643130.18048  20837507.388    20837507.3944   20837512.9384
        -0.000          -0.000
  -4323468.315 9  -3349805.56246  22912521.746    22912522.1014   22912527.6984
        -0.000          -0.000
   6795970.899 9   5289227.86146  23781520.920    23781520.8764   23781528.9524
        -0.000          -0.000
  -1615623.556 8  -1254290.35445  23592428.382    23592428.1424   23592435.1564
        -0.000          -0.000
  -5101734.162 9  -3780583.60749  20444732.738    20444732.4064   20444738.3484
        -0.000          -0.000
 97  3  8 20 46 30.0000000  0  6  2 27 26 19 15  7                   0.000310696
  -1211115.029 9   -940782.38349  21280354.003    21280353.7284   21280359.5464
        -0.000          -0.000
   2154027.752 9   1678160.15348  20846061.982    20846061.9924   20846067.6814
        -0.000          -0.000
  -4347889.698 9  -3368835.21246  22907874.481    22907874.8584   22907880.5514
        -0.000          -0.000
   6881842.739 9   5356140.93346  23797861.815    23797861.8534   23797869.8344
        -0.000          -0.000
  -1607988.858 8  -1248341.20946  23593881.234    23593881.0654   23593887.9974
        -0.000          -0.000
  -5136180.103 9  -3807424.56349  20438177.856    20438177.5044   20438183.4154
        -0.000          -0.000
 97  3  8 20 47  0.0000000  0  6  2 27 26 19 15  7                   0.000304575
  -1218403.957 9   -946462.05149  21278967.009    21278966.7484   21278972.5054
        -0.000          -0.000
   2199411.674 9   1713524.24748  20854698.207    20854698.2334   20854704.0204
        -0.000          -0.000
  -4371803.502 9  -3387469.33746  22903323.792    22903324.1494   22903329.9204
        -0.000          -0.000
   6967885.171 9   5423186.93746  23814235.240    23814235.2784   23814243.1964
        -0.000          -0.000
  -1599800.029 8  -1241960.28946  23595439.692    23595439.3284   23595446.3614
        -0.000          -0.000
  -5170185.355 9  -3833922.12549  20431706.782    20431706.4444   20431712.3634
        -0.000          -0.000
 97  3  8 20 47 30.0000000  0  6  2 27 26 19 15  7                   0.000298447
  -1225575.876 9   -952050.54649  21277602.339    21277602.0624   21277607.6904
        -0.000          -0.000
   2245227.536 9   1749224.92148  20863416.677    20863416.7074   20863422.5044
        -0.000          -0.000
  -4395213.939 9  -3405711.23446  22898868.791    22898869.1934   22898875.1534
        -0.000          -0.000
   7054114.779 9   5490378.79046  23830644.259    23830644.3084   23830652.2474
        -0.000          -0.000
  -1591050.241 8  -1235142.23346  23597104.502    23597104.3054   23597111.5294
        -0.000          -0.000
  -5203738.376 9  -3860067.30049  20425321.794    20425321.4544   20425327.3774
        -0.000          -0.000
 97  3  8 20 48  0.0000000  0  6  2 27 26 19 15  7                   0.000292321
  -1232624.959 9   -957543.32349  21276260.989    21276260.7014   21276266.2824
        -0.000          -0.000
   2291497.615 9   1785279.53348  20872221.558    20872221.6024   20872227.4074
        -0.000          -0.000
  -4418108.027 9  -3423550.77247  22894512.143    22894512.5994   22894518.5774
        -0.000          -0.000
   7140548.870 9   5557729.98946  23847092.241    23847092.2914   23847100.0714
        -0.000          -0.000
  -1581734.410 8  -1227883.13146  23598877.436    23598877.0474   23598884.3554
        -0.000          -0.000
  -5236822.559 9  -3885847.14849  20419026.013    20419025.6834   20419031.6224
        -0.000          -0.000
 97  3  8 20 48 30.0000000  0  6  2 27 26 19 15  7                   0.000286203
  -1239564.154 9   -962950.46849  21274940.434    21274940.1464   21274945.7954
        -0.000          -0.000
   2338223.328 9   1821689.18448  20881113.183    20881113.2464   20881119.0314
        -0.000          -0.000
  -4440481.326 9  -3440984.50047  22890254.731    22890255.1264   22890261.2324
        -0.000          -0.000
   7227194.905 9   5625246.33746  23863580.562    23863580.5974   23863588.2394
        -0.000          -0.000
  -1571855.340 9  -1220185.13346  23600757.411    23600757.1154   23600764.3764
        -0.000          -0.000
  -5269436.458 9  -3911260.53949  20412819.839    20412819.5094   20412825.3754
        -0.000          -0.000
 97  3  8 20 49  0.0000000  0  6  2 27 26 19 15  7                   0.000280087
  -1246392.475 9   -968271.21949  21273640.932    21273640.6554   21273646.3964
        -0.000          -0.000
   2385412.484 9   1858459.95648  20890093.022    20890093.0404   20890098.8184
        -0.000          -0.000
  -4462340.185 9  -3458017.36847  22886095.097    22886095.5354   22886101.6634
        -0.000          -0.000
   7314049.731 9   5692925.38746  23880108.561    23880108.5944   23880116.0394
        -0.000          -0.000
  -1561413.699 9  -1212048.78546  23602744.852    23602744.4104   23602751.4494
        -0.000          -0.000
  -5301571.932 9  -3936301.13249  20406704.671    20406704.3234   20406710.1384
        -0.000          -0.000
 97  3  8 20 49 30.0000000  0  6  2 27 26 19 15  7                   0.000273963
  -1253113.019 9   -973507.99049  21272361.998    21272361.7404   21272367.5434
        -0.000          -0.000
   2433084.084 9   1895606.65348  20899164.624    20899164.6294   20899170.4104
        -0.000          -0.000
  -4483698.036 9  -3474659.84247  22882030.949    22882031.3404   22882037.4134
        -0.000          -0.000
   7401118.898 9   5760771.45346  23896677.258    23896677.2444   23896684.6294
        -0.000          -0.000
  -1550415.464 9  -1203478.72146  23604837.849    23604837.5314   23604844.4234
        -0.000          -0.000
  -5333238.002 9  -3960975.95449  20400678.785    20400678.4544   20400684.2604
        -0.000          -0.000
 97  3  8 20 50  0.0000000  0  6  2 27 26 19 15  7                   0.000267829
  -1259720.850 9   -978656.93849  21271104.647    21271104.3814   21271110.0994
        -0.000          -0.000
   2481245.964 9   1933135.38148  20908329.462    20908329.5054   20908335.2704
        -0.000          -0.000
  -4504551.239 9  -3490909.07947  22878062.639    22878063.0264   22878069.1324
        -0.000          -0.000
   7488391.104 9   5828775.71345  23913284.612    23913284.5774   23913291.8864
        -0.000          -0.000
  -1538859.820 9  -1194474.32346  23607037.113    23607036.5984   23607043.3634
        -0.000          -0.000
  -5364436.383 9  -3985286.34649  20394741.914    20394741.5644   20394747.3804
        -0.000          -0.000
 97  3  8 20 50 30.0000000  0  6  2 27 26 19 15  7                   0.000261684
  -1266201.781 9   -983707.00149  21269871.496    21269871.1944   21269876.7784
        -0.000          -0.000
   2529907.364 9   1971053.35548  20917589.472    20917589.5044   20917595.2424
        -0.000          -0.000
  -4524893.014 9  -3506759.79447  22874191.725    22874192.1064   22874198.2604
        -0.000          -0.000
   7575861.736 8   5896934.61545  23929929.643    23929929.7744   23929937.0454
        -0.000          -0.000
  -1526734.157 9  -1185025.73746  23609344.525    23609344.1414   23609350.7484
        -0.000          -0.000
  -5395158.622 9  -4009225.71249  20388895.662    20388895.3124   20388901.1144
        -0.000          -0.000
 97  3  8 20 51  0.0000000  0  6  2 27 26 19 15  7                   0.000255516
  -1272553.228 9   -988656.16849  21268662.873    21268662.5324   21268668.1094
        -0.000          -0.000
   2579050.445 9   2009346.66348  20926941.101    20926941.1704   20926946.8414
        -0.000          -0.000
  -4544738.889 9  -3522224.10947  22870415.208    22870415.5814   22870421.6654
        -0.000          -0.000
   7663512.709 8   5965234.02145  23946608.899    23946609.0894   23946616.6424
        -0.000          -0.000
  -1514047.019 9  -1175139.67646  23611759.017    23611758.4404   23611764.9474
        -0.000          -0.000
  -5425415.704 9  -4032802.62049  20383137.941    20383137.5874   20383143.3484
        -0.000          -0.000
 97  3  8 20 51 30.0000000  0  6  2 27 26 19 15  7                   0.000249334
  -1278774.549 9   -993503.93649  21267478.894    21267478.5714   21267484.2314
        -0.000          -0.000
   2628640.984 9   2047988.63948  20936377.947    20936377.9774   20936383.6204
        -0.000          -0.000
  -4564081.734 9  -3537296.45447  22866734.334    22866734.7594   22866740.8124
        -0.000          -0.000
   7751341.401 8   6033671.88345  23963321.804    23963322.0084   23963330.0534
        -0.000          -0.000
  -1500807.325 8  -1164823.01645  23614278.218    23614277.7564   23614284.2384
        -0.000          -0.000
  -5455225.463 9  -4056030.96749  20377465.261    20377464.9154   20377470.6534
        -0.000          -0.000
 97  3  8 20 52  0.0000000  0  6  2 27 26 19 15  7                   0.000243143
  -1284852.078 9   -998239.65949  21266322.284    21266321.9924   21266327.6954
        -0.000          -0.000
   2678664.033 9   2086967.64448  20945897.059    20945897.0874   20945902.6824
        -0.000          -0.000
  -4582911.733 9  -3551969.17847  22863151.204    22863151.5404   22863157.5884
        -0.000          -0.000
   7839340.632 8   6102242.69545  23980067.338    23980067.4164   23980075.7064
        -0.000          -0.000
  -1487008.806 8  -1154070.93445  23616903.788    23616903.2984   23616909.9484
        -0.000          -0.000
  -5484581.357 9  -4078905.65249  20371879.012    20371878.6824   20371884.3694
        -0.000          -0.000
 97  3  8 20 52 30.0000000  0  6  2 27 26 19 15  7                   0.000236946
  -1290796.846 9  -1002871.93949  21265191.031    21265190.7454   21265196.4154
        -0.000          -0.000
   2729105.409 9   2126272.61448  20955495.789    20955495.7924   20955501.3314
        -0.000          -0.000
  -4601233.741 9  -3566246.06747  22859664.607    22859664.9534   22859670.8724
        -0.000          -0.000
   7927512.486 8   6170948.00745  23996845.987    23996846.0894   23996854.3624
        -0.000          -0.000
  -1472657.529 8  -1142888.12345  23619634.627    23619634.1474   23619640.8024
        -0.000          -0.000
  -5513492.039 9  -4101433.42149  20366377.478    20366377.1404   20366382.7964
        -0.000          -0.000
 97  3  8 20 53  0.0000000  0  6  2 27 26 19 15  7                   0.000230753
  -1296604.612 9  -1007397.46549  21264085.960    21264085.6604   21264091.2644
        -0.000          -0.000
   2779949.010 9   2165891.01048  20965170.921    20965170.9444   20965176.5544
        -0.000          -0.000
  -4619041.581 9  -3580122.30147  22856275.877    22856276.2794   22856282.0524
        -0.000          -0.000
   8015861.252 9   6239791.16045  24013658.470    24013658.4704   24013666.7074
        -0.000          -0.000
  -1457758.877 8  -1131278.79545  23622469.659    23622469.3254   23622475.8124
        -0.000          -0.000
  -5541973.640 9  -4123626.83949  20360957.633    20360957.2834   20360962.9174
        -0.000          -0.000
 97  3  8 20 53 30.0000000  0  6  2 27 26 19 15  7                   0.000224582
  -1302254.285 9  -1011799.79749  21263010.904    21263010.5844   21263016.1774
        -0.000          -0.000
   2831233.660 9   2205853.07548  20974929.976    20974929.9884   20974935.7014
        -0.000          -0.000
  -4636307.150 9  -3593575.98147  22852990.316    22852990.7144   22852996.5324
        -0.000          -0.000
   8104416.547 9   6308795.23545  24030510.258    24030510.1344   24030518.2874
        -0.000          -0.000
  -1442286.133 8  -1119222.11345  23625414.082    23625413.7364   23625420.0504
        -0.000          -0.000
  -5570001.268 9  -4145466.51549  20355624.170    20355623.7954   20355629.4574
        -0.000          -0.000
 97  3  8 20 54  0.0000000  0  6  2 27 26 19 15  7                   0.000218418
  -1307770.512 9  -1016098.14448  21261961.183    21261960.8614   21261966.4844
        -0.000          -0.000
   2882980.569 9   2246175.34048  20984777.004    20984777.0414   20984782.8064
        -0.000          -0.000
  -4653041.674 9  -3606615.86447  22849805.819    22849806.1894   22849812.0094
        -0.000          -0.000
   8193158.605 9   6377944.83645  24047397.406    24047397.2734   24047405.4134
        -0.000          -0.000
  -1426248.688 8  -1106725.40445  23628465.763    23628465.5834   23628471.8724
        -0.000          -0.000
  -5597575.884 9  -4166953.19049  20350376.819    20350376.4684   20350382.1684
        -0.000          -0.000
 97  3  8 20 54 30.0000000  0  7  4  2 27 26 19 15  7                0.000212258
  -4653524.17319  -3608792.52155  24629926.121    24629926.4575   24629936.0985
        -0.000          -0.000
  -1313166.969 9  -1020303.16448  21260934.127    21260933.8324   21260939.5444
        -0.000          -0.000
   2935196.191 9   2286862.83748  20994713.350    20994713.3724   20994719.0994
        -0.000          -0.000
  -4669250.896 9  -3619246.43647  22846721.217    22846721.5744   22846727.3894
        -0.000          -0.000
   8282082.076 9   6447235.79945  24064319.005    24064318.9584   24064327.0934
        -0.000          -0.000
  -1409654.639 8  -1093794.97845  23631623.377    23631623.1884   23631629.5994
        -0.000          -0.000
  -5624716.818 9  -4188101.93449  20345212.018    20345211.6734   20345217.3834
        -0.000          -0.000
 97  3  8 20 55  0.0000000  0  7  4  2 27 26 19 15  7                0.000206098
  -4765292.559 9  -3695884.62445  24608657.304    24608657.5224   24608666.6334
        -0.000          -0.000
  -1318442.638 9  -1024414.06148  21259930.117    21259929.8474   21259935.5964
        -0.000          -0.000
   2987883.139 9   2327917.60648  21004739.371    21004739.3914   21004745.0694
        -0.000          -0.000
  -4684936.478 9  -3631468.95547  22843736.247    22843736.6604   22843742.5464
        -0.000          -0.000
   8371169.454 9   6516654.52045  24081271.851    24081271.8224   24081279.5394
        -0.000          -0.000
  -1392504.504 8  -1080431.25245  23634887.015    23634886.8284   23634893.1144
        -0.000          -0.000
  -5651429.281 9  -4208916.80249  20340128.772    20340128.4224   20340134.1204
        -0.000          -0.000
 97  3  8 20 55 30.0000000  0  7  4  2 27 26 19 15  7                0.000199936
  -4877146.769 9  -3783043.64345  24587372.139    24587372.5854   24587380.8094
        -0.000          -0.000
  -1323600.184 9  -1028432.91948  21258948.728    21258948.4564   21258954.1334
        -0.000          -0.000
   3041073.189 9   2369364.39048  21014861.133    21014861.1544   21014866.7864
        -0.000          -0.000
  -4700084.844 9  -3643272.86447  22840853.560    22840853.9264   22840859.8524
        -0.000          -0.000
   8460420.276 9   6586200.58445  24098255.759    24098255.6854   24098263.4704
        -0.000          -0.000
  -1374782.467 8  -1066621.87345  23638259.267    23638259.1344   23638265.6764
        -0.000          -0.000
  -5677678.217 9  -4229370.48449  20335133.719    20335133.3704   20335139.0514
        -0.000          -0.000
 97  3  8 20 56  0.0000000  0  7  4  2 27 26 19 15  7                0.000193772
  -4989077.147 9  -3870262.06245  24566072.436    24566073.1714   24566080.9474
        -0.000          -0.000
  -1328638.838 9  -1032359.14048  21257989.985    21257989.7104   21257995.2774
        -0.000          -0.000
   3094753.029 9   2411192.82848  21025076.104    21025076.1424   21025081.7384
        -0.000          -0.000
  -4714695.940 9  -3654658.13247  22838073.056    22838073.4614   22838079.3984
        -0.000          -0.000
   8549828.538 8   6655869.31745  24115269.548    24115269.5164   24115277.4664
        -0.000          -0.000
  -1356489.800 8  -1052367.83245  23641740.279    23641740.0744   23641746.7644
        -0.000          -0.000
  -5703451.059 9  -4249453.18849  20330229.304    20330228.9654   20330234.6064
        -0.000          -0.000
 97  3  8 20 56 30.0000000  0  7  4  2 27 26 19 15  7                0.000187610
  -5101090.145 9  -3957544.75845  24544756.946    24544757.7084   24544765.2604
        -0.000          -0.000
  -1333549.783 9  -1036185.84648  21257055.502    21257055.1774   21257060.7554
        -0.000          -0.000
   3148889.991 9   2453377.46148  21035378.022    21035378.0714   21035383.6274
        -0.000          -0.000
  -4728773.219 9  -3665627.42147  22835394.223    22835394.6154   22835400.5654
        -0.000          -0.000
   8639398.860 9   6725664.32945  24132314.281    24132314.3964   24132322.1684
        -0.000          -0.000
  -1337629.638 8  -1037671.58945  23645329.172    23645328.8494   23645335.7534
        -0.000          -0.000
  -5728742.432 9  -4269160.72249  20325416.464    20325416.1274   20325421.7294
        -0.000          -0.000
 97  3  8 20 57  0.0000000  0  7  4  2 27 26 19 15  7                0.000181432
  -5213217.859 9  -4044916.77345  24523419.518    24523420.2004   24523428.1564
        -0.000          -0.000
  -1338366.384 9  -1039939.02948  21256138.896    21256138.5824   21256144.2204
        -0.000          -0.000
   3203432.991 9   2495878.48848  21045757.317    21045757.3654   21045762.8414
        -0.000          -0.000
  -4742340.490 9  -3676199.31147  22832812.361    22832812.7644   22832818.8074
        -0.000          -0.000
   8729113.992 9   6795572.20845  24149386.532    24149386.6374   24149394.4614
        -0.000          -0.000
  -1318232.266 9  -1022556.75445  23649020.392    23649020.1244   23649027.1134
        -0.000          -0.000
  -5753563.248 9  -4288501.58849  20320693.244    20320692.9174   20320698.4704
        -0.000          -0.000
 97  3  8 20 57 30.0000000  0  7  4  2 27 26 19 15  7                0.000175252
  -5325427.468 8  -4132352.61545  24502066.600    24502067.2234   24502075.4754
        -0.000          -0.000
  -1343074.985 9  -1043608.05748  21255242.815    21255242.5024   21255248.2114
        -0.000          -0.000
   3258391.419 9   2538703.22148  21056215.623    21056215.6554   21056221.0564
        -0.000          -0.000
  -4755389.874 9  -3686367.65247  22830329.061    22830329.4824   22830335.5844
        -0.000          -0.000
   8819006.964 9   6865618.68145  24166492.638    24166492.7954   24166500.4564
        -0.000          -0.000
  -1298283.812 8  -1007012.49245  23652816.411    23652816.0374   23652823.0764
        -0.000          -0.000
  -5777888.738 9  -4307456.48249  20316064.274    20316063.9124   20316069.4794
        -0.000          -0.000
 97  3  8 20 58  0.0000000  0  7  4  2 27 26 19 15  7                0.000169082
  -5437698.784 8  -4219836.47945  24480701.750    24480702.2744   24480710.8174
        -0.000          -0.000
  -1347655.046 9  -1047176.92748  21254371.269    21254370.9454   21254376.6234
        -0.000          -0.000
   3313759.990 9   2581847.55148  21066751.979    21066752.0114   21066757.3454
        -0.000          -0.000
  -4767922.086 9  -3696133.00847  22827944.201    22827944.6234   22827950.7934
        -0.000          -0.000
   8909105.225 9   6935825.11145  24183637.955    24183638.0064   24183645.6434
        -0.000          -0.000
  -1277774.069 9   -991030.85945  23656719.207    23656718.8444   23656725.9704
        -0.000          -0.000
  -5801720.874 9  -4326026.94649  20311529.099    20311528.7414   20311534.3104
        -0.000          -0.000
 97  3  8 20 58 30.0000000  0  7  4  2 27 26 19 15  7                0.000162918
  -5550034.484 8  -4307370.50745  24459324.679    24459325.0644   24459333.6884
        -0.000          -0.000
  -1352110.606 9  -1050648.79148  21253523.427    21253523.1124   21253528.7084
        -0.000          -0.000
   3369534.494 9   2625308.19448  21077365.532    21077365.5634   21077370.8694
        -0.000          -0.000
  -4779951.649 9  -3705506.68647  22825655.122    22825655.5374   22825661.6684
        -0.000          -0.000
   8999397.929 9   7006183.02645  24200820.104    24200820.1114   24200827.8914
        -0.000          -0.000
  -1256711.836 9   -974618.72345  23660727.098    23660726.7804   23660733.8404
        -0.000          -0.000
  -5825088.605 9  -4344235.52949  20307082.335    20307082.0104   20307087.5914
        -0.000          -0.000
 97  3  8 20 59  0.0000000  0  7  4  2 27 26 19 15  7                0.000156749
  -5662430.763 8  -4394951.72645  24437936.184    24437936.6894   24437945.4364
        -0.000          -0.000
  -1356446.042 9  -1054027.05048  21252698.466    21252698.1534   21252703.6484
        -0.000          -0.000
   3425734.393 9   2669100.30648  21088060.010    21088060.0404   21088065.3844
        -0.000          -0.000
  -4791499.135 9  -3714504.73447  22823457.713    22823458.0894   22823464.2874
        -0.000          -0.000
   9089871.247 9   7076681.69545  24218036.616    24218036.6624   24218044.6234
        -0.000          -0.000
  -1235102.364 9   -957780.17445  23664839.206    23664838.9634   23664845.9194
        -0.000          -0.000
  -5848005.921 9  -4362093.13948  20302721.287    20302720.9694   20302726.5774
        -0.000          -0.000
 97  3  8 20 59 30.0000000  0  7  4  2 27 26 19 15  7                0.000150562
  -5774877.810 8  -4482572.53045  24416537.912    24416538.4024   24416547.3294
        -0.000          -0.000
  -1360650.706 9  -1057303.40948  21251898.390    21251898.0574   21251903.4914
        -0.000          -0.000
   3482386.842 9   2713245.05848  21098840.554    21098840.5874   21098845.9854
        -0.000          -0.000
  -4802575.655 9  -3723135.78047  22821349.914    22821350.3484   22821356.5024
        -0.000          -0.000
   9180495.362 9   7147297.84545  24235281.818    24235281.8444   24235290.2014
        -0.000          -0.000
  -1212947.545 9   -940516.68645  23669055.020    23669054.8444   23669061.7274
        -0.000          -0.000
  -5870486.044 9  -4379610.08248  20298443.465    20298443.1104   20298448.7494
        -0.000          -0.000
 97  3  8 21  0  0.0000000  0  7  4  2 27 26 19 15  7                0.000144363
  -5887376.703 8  -4570233.77245  24395130.078    24395130.6634   24395139.3964
        -0.000          -0.000
  -1364712.644 9  -1060468.54948  21251125.383    21251125.0524   21251130.4974
        -0.000          -0.000
   3539517.627 9   2757762.54548  21109712.169    21109712.1804   21109717.6224
        -0.000          -0.000
  -4813163.374 9  -3731385.95547  22819335.266    22819335.6324   22819341.7754
        -0.000          -0.000
   9271273.933 9   7218034.32145  24252556.345    24252556.2644   24252564.9354
        -0.000          -0.000
  -1190236.417 9   -922819.69545  23673376.811    23673376.5834   23673383.3304
        -0.000          -0.000
  -5892527.797 9  -4396785.44448  20294248.942    20294248.6144   20294254.2624
        -0.000          -0.000
 97  3  8 21  0 30.0000000  0  7  4  2 27 26 19 15  7                0.000138146
  -5999938.925 8  -4657944.35546  24373710.139    24373710.7414   24373719.4364
        -0.000          -0.000
  -1368637.862 9  -1063527.15448  21250378.398    21250378.0794   21250383.5774
        -0.000          -0.000
   3597126.338 9   2802652.44748  21120674.731    21120674.7614   21120680.1894
        -0.000          -0.000
  -4823257.760 9  -3739251.70447  22817414.502    22817414.8424   22817421.0154
        -0.000          -0.000
   9362183.035 8   7288872.53945  24269855.807    24269855.7184   24269864.3894
        -0.000          -0.000
  -1166978.567 9   -904696.69646  23677802.558    23677802.3494   23677809.2034
        -0.000          -0.000
  -5914143.901 9  -4413629.13248  20290135.525    20290135.2024   20290140.7884
        -0.000          -0.000
 97  3  8 21  1  0.0000000  0  7  4  2 27 26 19 15  7                0.000131915
  -6112562.502 8  -4745702.74345  24352278.509    24352278.9494   24352287.6914
        -0.000          -0.000
  -1372430.819 9  -1066482.70148  21249656.627    21249656.3094   21249661.8424
        -0.000          -0.000
   3655226.042 9   2847924.94548  21131730.732    21131730.7474   21131736.1954
        -0.000          -0.000
  -4832839.991 9  -3746718.38047  22815591.160    22815591.4844   22815597.6084
        -0.000          -0.000
   9453226.131 8   7359815.16945  24287180.825    24287180.6954   24287189.4014
        -0.000          -0.000
  -1143171.286 9   -886145.57446  23682333.125    23682332.9314   23682339.6304
        -0.000          -0.000
  -5935324.524 9  -4430133.48548  20286104.989    20286104.6324   20286110.1784
        -0.000          -0.000
 97  3  8 21  1 30.0000000  0  7  4  2 27 26 19 15  7                0.000125691
  -6225232.260 9  -4833497.10546  24330837.981    24330838.4414   24330847.2854
        -0.000          -0.000
  -1376088.015 9  -1069332.46248  21248960.717    21248960.4014   21248965.9304
        -0.000          -0.000
   3713807.799 9   2893573.06448  21142878.422    21142878.4304   21142883.9534
        -0.000          -0.000
  -4841877.883 9  -3753760.88847  22813871.305    22813871.6154   22813877.8064
        -0.000          -0.000
   9544423.539 8   7430878.03945  24304535.154    24304535.0204   24304543.5864
        -0.000          -0.000
  -1118805.580 9   -867159.31646  23686969.997    23686969.7624   23686976.3684
        -0.000          -0.000
  -5956060.689 9  -4446291.51248  20282158.947    20282158.5844   20282164.1274
        -0.000          -0.000
 97  3  8 21  2  0.0000000  0  7  4  2 27 26 19 15  7                0.000119472
  -6337970.388 9  -4921344.74245  24309384.501    24309384.9334   24309393.6664
        -0.000          -0.000
  -1379624.992 9  -1072088.54048  21248287.673    21248287.3274   21248292.8534
        -0.000          -0.000
   3772827.598 9   2939562.51448  21154109.383    21154109.4154   21154115.0784
        -0.000          -0.000
  -4850378.617 9  -3760384.83147  22812253.661    22812254.0154   22812260.1824
        -0.000          -0.000
   9635784.431 8   7502068.32845  24321920.613    24321920.5144   24321928.8614
        -0.000          -0.000
  -1093898.042 9   -847750.83346  23691709.971    23691709.7204   23691716.2444
        -0.000          -0.000
  -5976354.366 9  -4462104.74348  20278297.123    20278296.8074   20278302.3384
        -0.000          -0.000
 97  3  8 21  2 30.0000000  0  7  4  2 27 26 19 15  7                0.000113281
  -6450737.219 9  -5009214.76645  24287925.550    24287925.9084   24287934.6424
        -0.000          -0.000
  -1383006.740 9  -1074723.66348  21247644.095    21247643.7624   21247649.2784
        -0.000          -0.000
   3832295.467 9   2985901.10648  21165425.633    21165425.6914   21165431.4514
        -0.000          -0.000
  -4858313.435 9  -3766567.79747  22810743.726    22810744.1204   22810750.2684
        -0.000          -0.000
   9727334.250 8   7573405.79545  24339342.010    24339341.8644   24339350.1314
        -0.000          -0.000
  -1068420.612 9   -827898.28946  23696558.446    23696558.1144   23696564.5924
        -0.000          -0.000
  -5996167.651 9  -4477543.63948  20274526.770    20274526.4474   20274532.0024
        -0.000          -0.000
 97  3  8 21  3  0.0000000  0  7  4  2 27 26 19 15  7                0.000107091
  -6563558.975 9  -5097127.60145  24266456.046    24266456.4534   24266465.0864
        -0.000          -0.000
  -1386270.665 9  -1077266.97548  21247022.908    21247022.5824   21247028.0864
        -0.000          -0.000
   3892168.991 9   3032555.78348  21176819.181    21176819.2234   21176825.0254
        -0.000          -0.000
  -4865729.936 9  -3772346.89047  22809332.507    22809332.8874   22809338.9524
        -0.000          -0.000
   9819049.224 8   7644871.96445  24356794.922    24356794.7414   24356802.7974
        -0.000          -0.000
  -1042409.051 9   -807629.54346  23701508.432    23701508.1474   23701514.5534
        -0.000          -0.000
  -6015522.831 9  -4492625.57748  20270843.604    20270843.2674   20270848.8494
        -0.000          -0.000
 97  3  8 21  3 30.0000000  0  7  4  2 27 26 19 15  7                0.000100921
  -6676405.491 9  -5185059.71845  24244982.010    24244982.3394   24244990.7984
        -0.000          -0.000
  -1389387.931 9  -1079696.00348  21246429.694    21246429.3834   21246434.8564
        -0.000          -0.000
   3952455.149 9   3079531.99848  21188291.290    21188291.3514   21188297.1064
        -0.000          -0.000
  -4872614.420 9  -3777711.41247  22808022.502    22808022.8844   22808028.8904
        -0.000          -0.000
   9910956.502 8   7716487.96945  24374284.170    24374284.1234   24374292.2244
        -0.000          -0.000
  -1015839.861 9   -786926.27646  23706564.592    23706564.1574   23706570.6954
        -0.000          -0.000
  -6034397.947 9  -4507333.43548  20267251.759    20267251.4144   20267257.0364
        -0.000          -0.000
 97  3  8 21  4  0.0000000  0  7  4  2 27 26 19 15  7                0.000094745
  -6789304.589 9  -5273032.75445  24223497.687    24223497.9934   24223506.6414
        -0.000          -0.000
  -1392381.859 9  -1082028.92548  21245859.966    21245859.6374   21245865.0944
        -0.000          -0.000
   4013142.513 9   3126820.84748  21199839.771    21199839.8264   21199845.5054
        -0.000          -0.000
  -4879002.865 9  -3782689.40047  22806806.799    22806807.1964   22806813.2024
        -0.000          -0.000
  10003019.375 8   7788225.21745  24391803.029    24391803.1074   24391811.3234
        -0.000          -0.000
   -988733.863 9   -765804.71146  23711722.551    23711722.2174   23711728.9774
        -0.000          -0.000
  -6052818.969 9  -4521687.45648  20263746.331    20263746.0204   20263751.6354
        -0.000          -0.000
 97  3  8 21  4 30.0000000  0  7  4  2 27 26 19 15  7                0.000088583
  -6902213.062 9  -5361013.13145  24202011.645    24202012.1464   24202020.6724
        -0.000          -0.000
  -1395229.660 9  -1084247.98249  21245318.052    21245317.7234   21245323.1584
        -0.000          -0.000
   4074278.216 9   3174459.04248  21211473.567    21211473.5824   21211479.2434
        -0.000          -0.000
  -4884868.514 9  -3787260.02547  22805690.650    22805691.0384   22805697.0704
        -0.000          -0.000
  10095248.991 8   7860092.37645  24409353.304    24409353.4664   24409362.0234
        -0.000          -0.000
   -961055.787 9   -744237.37046  23716989.429    23716989.0714   23716996.0684
        -0.000          -0.000
  -6070772.027 9  -4535676.83148  20260330.028    20260329.6864   20260335.3274
        -0.000          -0.000
 97  3  8 21  5  0.0000000  0  7  4  2 27 26 19 15  7                0.000082415
  -7015164.413 9  -5449026.92845  24180517.478    24180517.9164   24180526.4764
        -0.000          -0.000
  -1397979.838 9  -1086390.96949  21244794.738    21244794.4154   21244799.8624
        -0.000          -0.000
   4135828.340 9   3222420.16948  21223186.238    21223186.2544   21223191.9134
        -0.000          -0.000
  -4890247.044 9  -3791451.06447  22804667.160    22804667.5274   22804673.5504
        -0.000          -0.000
  10187608.713 8   7932060.92645  24426928.699    24426928.8594   24426937.7684
        -0.000          -0.000
   -932841.019 9   -722251.82646  23722358.364    23722358.0734   23722365.1324
        -0.000          -0.000
  -6088298.099 9  -4549333.49248  20256994.870    20256994.5154   20257000.1934
        -0.000          -0.000
 97  3  8 21  5 30.0000000  0  7  4  2 27 26 19 15  7                0.000076245
  -7128151.353 9  -5537068.46445  24159016.635    24159017.1114   24159025.5064
        -0.000          -0.000
  -1400616.589 9  -1088445.56949  21244292.940    21244292.6224   21244298.1224
        -0.000          -0.000
   4197799.018 9   3270709.00748  21234978.914    21234978.9404   21234984.5644
        -0.000          -0.000
  -4895133.527 9  -3795258.69547  22803737.345    22803737.7114   22803743.6804
        -0.000          -0.000
  10280093.496 8   8004126.92145  24444527.792    24444527.9264   24444536.9584
        -0.000          -0.000
   -904080.936 9   -699841.36746  23727831.266    23727830.9244   23727837.9714
        -0.000          -0.000
  -6105398.928 9  -4562658.80048  20253740.647    20253740.3074   20253745.9544
        -0.000          -0.000
 97  3  8 21  6  0.0000000  0  7  4  2 27 26 19 15  7                0.000070070
  -7241153.489 9  -5625121.86046  24137512.977    24137513.3374   24137521.5174
        -0.000          -0.000
  -1403126.141 9  -1090401.05349  21243815.333    21243815.0334   21243820.5644
        -0.000          -0.000
   4260202.634 9   3319335.19748  21246853.935    21246853.9394   21246859.5764
        -0.000          -0.000
  -4899530.048 9  -3798684.53547  22802900.719    22802901.0804   22802907.0314
        -0.000          -0.000
  10372703.616 8   8076290.57645  24462150.924    24462150.9454   24462160.1914
        -0.000          -0.000
   -874768.271 9   -677000.31946  23733409.226    23733408.9034   23733416.0264
        -0.000          -0.000
  -6122060.350 9  -4575641.70448  20250570.091    20250569.7524   20250575.3344
        -0.000          -0.000
 97  3  8 21  6 30.0000000  0  7  4  2 27 26 19 15  7                0.000063893
  -7354164.847 9  -5713182.46946  24116007.552    24116007.9154   24116015.8584
        -0.000          -0.000
  -1405502.346 9  -1092252.63349  21243363.123    21243362.8164   21243368.3644
        -0.000          -0.000
   4323035.155 9   3368295.59648  21258810.517    21258810.5224   21258816.2024
        -0.000          -0.000
  -4903439.274 9  -3801730.66347  22802156.770    22802157.1354   22802163.1194
        -0.000          -0.000
  10465442.717 8   8148554.76145  24479798.822    24479798.7974   24479808.0934
        -0.000          -0.000
   -844912.260 9   -653735.90046  23739090.690    23739090.2804   23739097.2854
        -0.000          -0.000
  -6138290.495 9  -4588288.55048  20247481.624    20247481.2804   20247486.7924
        -0.000          -0.000
 97  3  8 21  7  0.0000000  0  7  4  2 27 26 19 15  7                0.000057702
  -7467187.563 9  -5801251.93446  24094499.965    24094500.3454   24094508.1074
        -0.000          -0.000
  -1407742.340 9  -1093998.07949  21242936.837    21242936.5514   21242942.1334
        -0.000          -0.000
   4386291.047 9   3417585.90248  21270847.651    21270847.7084   21270853.4644
        -0.000          -0.000
  -4906872.832 9  -3804406.16147  22801503.358    22801503.7284   22801509.8114
        -0.000          -0.000
  10558309.931 8   8220918.74345  24497470.892    24497470.9844   24497480.2364
        -0.000          -0.000
   -814523.238 9   -630056.12845  23744873.271    23744873.0074   23744880.1404
        -0.000          -0.000
  -6154088.832 9  -4600598.91648  20244475.316    20244474.9524   20244480.4884
        -0.000          -0.000
 97  3  8 21  7 30.0000000  0  7  4  2 27 26 19 15  7                0.000051500
  -7580216.777 9  -5889326.49146  24072991.118    24072991.4954   24072999.2714
        -0.000          -0.000
  -1409813.164 9  -1095611.70449  21242542.826    21242542.5244   21242548.0784
        -0.000          -0.000
   4449999.093 9   3467228.53848  21282970.917    21282970.9464   21282976.7694
        -0.000          -0.000
  -4909824.751 9  -3806706.34847  22800941.567    22800941.9674   22800948.0114
        -0.000          -0.000
  10651320.691 8   8293394.60045  24515170.347    24515170.5804   24515179.6004
        -0.000          -0.000
   -783590.578 9   -605952.77245  23750759.600    23750759.2524   23750766.3414
        -0.000          -0.000
  -6169442.828 9  -4612563.04448  20241553.506    20241553.1644   20241558.6934
        -0.000          -0.000
 97  3  8 21  8  0.0000000  0  7  4  2 27 26 19 15  7                0.000045285
  -7693255.789 9  -5977408.70445  24051480.339    24051480.6474   24051488.4874
        -0.000          -0.000
  -1411716.979 9  -1097095.19049  21242180.574    21242180.2454   21242185.7764
        -0.000          -0.000
   4514173.071 9   3517234.23848  21295182.815    21295182.8524   21295188.7254
        -0.000          -0.000
  -4912284.469 9  -3808623.00547  22800473.430    22800473.8504   22800479.8664
        -0.000          -0.000
  10744485.569 8   8365990.55145  24532899.248    24532899.3774   24532908.3934
        -0.000          -0.000
   -752115.774 9   -581426.95345  23756748.932    23756748.6354   23756755.7404
        -0.000          -0.000
  -6184349.368 9  -4624178.49848  20238716.869    20238716.5284   20238722.0484
        -0.000          -0.000
 97  3  8 21  8 30.0000000  0  7  4  2 27 26 19 15  7                0.000039050
  -7806340.138 9  -6065526.24745  24029960.861    24029961.2154   24029969.1564
        -0.000          -0.000
  -1413476.664 9  -1098466.36349  21241845.701    21241845.3764   21241850.9124
        -0.000          -0.000
   4578792.681 9   3567587.17948  21307479.548    21307479.5694   21307485.5114
        -0.000          -0.000
  -4914261.842 9  -3810163.80647  22800097.188    22800097.5614   22800103.5684
        -0.000          -0.000
  10837788.054 8   8438693.70045  24550654.121    24550654.2854   24550663.2414
        -0.000          -0.000
   -720120.328 9   -556495.44645  23762837.495    23762837.1504   23762844.1314
        -0.000          -0.000
  -6198831.237 9  -4635463.03848  20235961.108    20235960.7364   20235966.1944
        -0.000          -0.000
 97  3  8 21  9  0.0000000  0  6  4  2 27 26 15  7                   0.000032795
  -7919472.465 9  -6153681.20345  24008432.256    24008432.6584   24008440.6194
        -0.000          -0.000
  -1415093.986 9  -1099726.60649  21241537.879    21241537.5504   21241543.1264
        -0.000          -0.000
   4643845.044 9   3618277.32648  21319858.651    21319858.6394   21319864.5794
        -0.000          -0.000
  -4915752.320 9  -3811325.20947  22799813.572    22799813.9474   22799819.8864
        -0.000          -0.000
   -687598.973 9   -531154.15745  23769025.970    23769025.5474   23769032.6144
        -0.000          -0.000
  -6212874.238 9  -4646405.61048  20233288.772    20233288.3964   20233293.8294
        -0.000          -0.000
 97  3  8 21  9 30.0000000  0  6  4  2 27 26 15  7                   0.000026545
  -8032627.628 9  -6241853.95246  23986899.394    23986899.7754   23986907.6774
        -0.000          -0.000
  -1416554.585 9  -1100864.72249  21241259.908    21241259.6124   21241265.2374
        -0.000          -0.000
   4709331.466 9   3669305.69748  21332320.309    21332320.3124   21332326.2494
        -0.000          -0.000
  -4916722.812 9  -3812081.43247  22799628.910    22799629.2854   22799635.1504
        -0.000          -0.000
   -654528.869 9   -505385.26845  23775319.011    23775318.5404   23775325.4104
        -0.000          -0.000
  -6226458.633 9  -4656990.82748  20230703.642    20230703.2864   20230708.7524
        -0.000          -0.000
 97  3  8 21 10  0.0000000  0  6  4  2 27 26 15  7                   0.000020294
  -8145806.386 9  -6330045.08946  23965362.176    23965362.3654   23965370.2674
        -0.000          -0.000
  -1417904.989 9  -1101916.97849  21241002.905    21241002.6204   21241008.2744
        -0.000          -0.000
   4775209.794 9   3720639.45948  21344856.595    21344856.6134   21344862.4244
        -0.000          -0.000
  -4917186.999 9  -3812443.12647  22799540.570    22799541.0064   22799546.7494
        -0.000          -0.000
   -620934.434 9   -479207.79645  23781711.806    23781711.2944   23781717.8964
        -0.000          -0.000
  -6239608.404 9  -4667237.38149  20228201.241    20228200.8984   20228206.3524
        -0.000          -0.000
 97  3  8 21 10 30.0000000  0  6  4  2 27 26 15  7                   0.000014045
  -8259004.020 9  -6418250.92146  23943821.442    23943821.6184   23943829.4294
        -0.000          -0.000
  -1419157.599 9  -1102893.03149  21240764.596    21240764.3054   21240769.9394
        -0.000          -0.000
   4841457.418 9   3772260.97648  21357463.135    21357463.1464   21357468.8594
        -0.000          -0.000
  -4917147.122 9  -3812412.04647  22799548.156    22799548.5614   22799554.3304
        -0.000          -0.000
   -586817.135 9   -452622.90745  23788204.101    23788203.5694   23788209.8964
        -0.000          -0.000
  -6252327.305 9  -4677148.19149  20225780.888    20225780.5344   20225785.9674
        -0.000          -0.000
 97  3  8 21 11  0.0000000  0  6  4  2 27 26 15  7                   0.000007811
  -8372199.195 9  -6506454.82546  23922281.012    23922281.2604   23922288.9684
        -0.000          -0.000
  -1420308.134 9  -1103789.54949  21240545.733    21240545.3964   21240551.0434
        -0.000          -0.000
   4908084.208 9   3824177.94248  21370141.863    21370141.8694   21370147.5414
        -0.000          -0.000
  -4916587.241 9  -3811975.77747  22799654.681    22799655.0774   22799660.8524
        -0.000          -0.000
   -552165.288 9   -425621.48245  23794798.138    23794797.5344   23794803.8554
        -0.000          -0.000
  -6264604.826 9  -4686715.06449  20223444.542    20223444.1814   20223449.6064
        -0.000          -0.000
 97  3  8 21 11 30.0000000  0  6  4  2 27 26 15  7                   0.000001602
  -8485366.407 9  -6594636.95346  23900745.925    23900746.2374   23900753.7934
        -0.000          -0.000
  -1421339.718 9  -1104593.36749  21240349.420    21240349.0824   21240354.7344
        -0.000          -0.000
   4975116.257 9   3876410.68948  21382897.661    21382897.6584   21382903.2874
        -0.000          -0.000
  -4915496.345 9  -3811125.72947  22799862.246    22799862.6444   22799868.3634
        -0.000          -0.000
   -516969.013 9   -398195.83545  23801495.817    23801495.2474   23801501.5554
        -0.000          -0.000
  -6276432.154 9  -4695931.14449  20221193.856    20221193.4894   20221198.9234
        -0.000          -0.000
 97  3  8 21 12  0.0000000  0  6  4  2 27 26 15  7                  -0.000004604
  -8598533.730 8  -6682819.13245  23879210.825    23879211.0964   23879218.6564
        -0.000          -0.000
  -1422262.276 9  -1105312.23149  21240173.827    21240173.4944   21240179.1814
        -0.000          -0.000
   5042552.768 9   3928958.60648  21395730.374    21395730.3844   21395735.9354
        -0.000          -0.000
  -4913901.255 9  -3809882.80147  22800165.770    22800166.1734   22800171.8694
        -0.000          -0.000
   -481250.054 9   -370362.87045  23808293.049    23808292.4824   23808298.5694
        -0.000          -0.000
  -6287828.984 9  -4704811.77349  20219025.104    20219024.7604   20219030.1904
        -0.000          -0.000
 97  3  8 21 12 29.9990000  0  6  4  2 27 26 15  7                  -0.000010817
  -8711713.907 9  -6771011.33845  23857673.179    23857673.4874   23857681.0704
        -0.000          -0.000
  -1423055.390 9  -1105930.23449  21240022.901    21240022.5684   21240028.2744
        -0.000          -0.000
   5110392.954 9   3981821.07348  21408639.947    21408639.9474   21408645.4574
        -0.000          -0.000
  -4911805.719 9  -3808249.92047  22800564.544    22800564.9374   22800570.6514
        -0.000          -0.000
   -445007.860 9   -342122.21645  23815189.813    23815189.3874   23815195.5064
        -0.000          -0.000
  -6298798.123 9  -4713359.13749  20216937.823    20216937.4754   20216942.9044
        -0.000          -0.000
 97  3  8 21 12 59.9990000  0  6  4  2 27 26 15  7                  -0.000017030
  -8824892.781 9  -6859202.54845  23836135.725    23836136.1474   23836143.6824
        -0.000          -0.000
  -1423690.802 9  -1106425.35049  21239901.978    21239901.6724   21239907.3354
        -0.000          -0.000
   5178658.911 9   4035015.31448  21421630.528    21421630.5244   21421636.0164
        -0.000          -0.000
  -4909208.269 9  -3806225.94647  22801058.803    22801059.1854   22801064.9964
        -0.000          -0.000
   -408232.866 9   -313466.37845  23822187.908    23822187.4924   23822193.7914
        -0.000          -0.000
  -6309337.741 9  -4721571.81749  20214932.216    20214931.8544   20214937.2834
        -0.000          -0.000
 97  3  8 21 13 29.9990000  0  6  4  2 27 26 15  7                  -0.000023247
  -8938046.008 9  -6947373.78645  23814603.186    23814603.5644   23814611.2454
        -0.000          -0.000
  -1424144.729 9  -1106779.04949  21239815.649    21239815.3324   21239820.9564
        -0.000          -0.000
   5247359.482 9   4088548.21348  21434703.792    21434703.8134   21434709.3144
        -0.000          -0.000
  -4906123.326 9  -3803822.08547  22801645.774    22801646.1794   22801652.0774
        -0.000          -0.000
   -370922.302 9   -284393.20645  23829287.887    23829287.4574   23829293.8794
        -0.000          -0.000
  -6319443.236 9  -4729446.22049  20213009.154    20213008.7954   20213014.2164
        -0.000          -0.000
 97  3  8 21 13 59.9990000  0  6  4  2 27 26 15  7                  -0.000029478
  -9051196.627 9  -7035542.96946  23793071.143    23793071.5304   23793079.3484
        -0.000          -0.000
  -1424430.454 9  -1107001.68449  21239761.286    21239760.9404   21239766.5584
        -0.000          -0.000
   5316477.832 9   4142406.65748  21447856.580    21447856.5884   21447862.0544
        -0.000          -0.000
  -4902568.126 9  -3801051.80847  22802322.174    22802322.5814   22802328.5594
        -0.000          -0.000
   -333089.212 9   -254912.88045  23836487.521    23836487.0044   23836493.3904
        -0.000          -0.000
  -6329129.278 9  -4736993.77449  20211165.977    20211165.6214   20211171.0374
        -0.000          -0.000
 97  3  8 21 14 29.9990000  0  6  4  2 27 26 15  7                  -0.000035730
  -9164340.577 9  -7123706.93546  23771540.453    23771540.9544   23771548.6954
        -0.000          -0.000
  -1424559.783 9  -1107102.44949  21239736.627    21239736.3264   21239741.9184
        -0.000          -0.000
   5385996.821 9   4196577.29048  21461085.600    21461085.6304   21461091.1084
        -0.000          -0.000
  -4898557.197 9  -3797926.41647  22803085.365    22803085.7824   22803091.8344
        -0.000          -0.000
   -294744.461 9   -225033.85545  23843784.343    23843783.8634   23843790.1864
        -0.000          -0.000
  -6338400.321 9  -4744217.94749  20209401.756    20209401.3934   20209406.8194
        -0.000          -0.000
 97  3  8 21 14 59.9990000  0  6  4  2 27 26 15  7                  -0.000041993
  -9277450.608 9  -7211844.45946  23750016.266    23750016.7364   23750024.4534
        -0.000          -0.000
  -1424530.657 9  -1107079.74249  21239742.184    21239741.8734   21239747.4564
        -0.000          -0.000
   5455931.881 9   4251072.12548  21474393.783    21474393.7974   21474399.3244
        -0.000          -0.000
  -4894082.173 9  -3794439.40047  22803936.925    22803937.3434   22803943.5114
        -0.000          -0.000
   -255879.886 9   -194749.77545  23851180.197    23851179.5624   23851185.8764
        -0.000          -0.000
  -6347235.749 9  -4751102.68449  20207720.390    20207720.0174   20207725.4294
        -0.000          -0.000
 97  3  8 21 15 29.9990000  0  6  4  2 27 26 15  7                  -0.000048279
  -9390545.504 9  -7299970.16846  23728494.937    23728495.4444   23728503.0664
        -0.000          -0.000
  -1424358.312 9  -1106945.43749  21239774.980    21239774.6704   21239780.2884
        -0.000          -0.000
   5526282.560 9   4305890.82848  21487781.089    21487781.1084   21487786.6004
        -0.000          -0.000
  -4889148.418 9  -3790594.91147  22804875.837    22804876.2434   22804882.4384
        -0.000          -0.000
   -216501.829 9   -164065.59945  23858673.534    23858672.9244   23858679.2524
        -0.000          -0.000
  -6355629.666 9  -4757643.38549  20206123.067    20206122.7224   20206128.1664
        -0.000          -0.000
 97  3  8 21 15 59.9990000  0  6  4  2 27 26 15  7                  -0.000054574
  -9503626.793 9  -7388085.28046  23706976.271    23706976.7224   23706984.3364
        -0.000          -0.000
  -1424047.818 9  -1106703.48549  21239834.005    21239833.6794   21239839.3694
        -0.000          -0.000
   5597039.944 9   4361026.44148  21501245.813    21501245.7974   21501251.2694
        -0.000          -0.000
  -4883727.507 9  -3786370.82847  22805907.371    22805907.7994   22805914.0374
        -0.000          -0.000
   -176602.411 9   -132975.14545  23866266.163    23866265.6674   23866271.8854
        -0.000          -0.000
  -6363578.704 9  -4763837.43249  20204610.422    20204610.0694   20204615.5104
        -0.000          -0.000
 97  3  8 21 16 29.9990000  0  6  4  2 27 26 15  7                  -0.000060869
  -9616681.051 9  -7476179.34446  23685462.671    23685463.1154   23685470.6294
        -0.000          -0.000
  -1423611.406 9  -1106363.41849  21239917.060    21239916.7614   21239922.4584
        -0.000          -0.000
   5668184.289 9   4416463.58248  21514784.212    21514784.2054   21514789.6154
        -0.000          -0.000
  -4877815.986 9  -3781764.45047  22807032.368    22807032.7504   22807038.8574
        -0.000          -0.000
   -136191.919 8   -101486.45145  23873956.033    23873955.5444   23873961.9264
        -0.000          -0.000
  -6371100.673 9  -4769698.69749  20203179.045    20203178.6904   20203184.1024
        -0.000          -0.000
 97  3  8 21 16 59.9990000  0  6  4  2 27 26 15  7                  -0.000067152
  -9729686.697 9  -7564235.52146  23663958.364    23663958.7524   23663966.0964
        -0.000          -0.000
  -1423028.898 9  -1105909.51149  21240027.934    21240027.6254   21240033.3084
        -0.000          -0.000
   5739733.019 9   4472215.82748  21528399.518    21528399.5094   21528404.9364
        -0.000          -0.000
  -4871400.243 9  -3776765.17547  22808253.349    22808253.7044   22808259.8174
        -0.000          -0.000
    -95254.709 8    -69587.34545  23881745.833    23881745.3624   23881751.9484
        -0.000          -0.000
  -6378198.134 9  -4775229.17349  20201828.424    20201828.0564   20201833.4324
        -0.000          -0.000
 97  3  8 21 17 29.9990000  0  6  4  2 27 26 15  7                  -0.000073423
  -9842654.263 9  -7652262.05446  23642461.182    23642461.5554   23642468.7174
        -0.000          -0.000
  -1422313.522 9  -1105352.07149  21240164.108    21240163.7814   21240169.4644
        -0.000          -0.000
   5811669.206 9   4528269.97348  21542088.510    21542088.4924   21542094.0164
        -0.000          -0.000
  -4864493.316 9  -3771383.16047  22809567.672    22809568.0354   22809574.1834
        -0.000          -0.000
    -53803.092 8    -37287.38545  23889633.608    23889633.3604   23889639.7904
        -0.000          -0.000
  -6384899.959 9  -4780451.35749  20200553.036    20200552.6694   20200558.0254
        -0.000          -0.000
 97  3  8 21 17 59.9990000  0  6  4  2 27 26 15  7                  -0.000079680
  -9955574.933 9  -7740252.00946  23620972.981    23620973.3804   23620980.3514
        -0.000          -0.000
  -1421478.050 9  -1104701.04949  21240323.115    21240322.8004   21240328.4484
        -0.000          -0.000
   5883968.490 9   4584607.05847  21555846.578    21555846.5584   21555852.0964
        -0.000          -0.000
  -4857097.593 9  -3765620.26047  22810975.023    22810975.4304   22810981.5804
        -0.000          -0.000
    -11851.565 8     -4597.90345  23897616.403    23897616.3554   23897622.8114
        -0.000          -0.000
  -6391229.298 9  -4785383.29649  20199348.547    20199348.1924   20199353.5794
        -0.000          -0.000
 97  3  8 21 18 29.9990000  0  6  4  2 27 26 15  7                  -0.000085923
 -10068428.147 9  -7828189.43146  23599497.653    23599498.1474   23599504.8084
        -0.000          -0.000
  -1420513.168 9  -1103949.18748  21240506.702    21240506.3834   21240512.0244
        -0.000          -0.000
   5956653.964 9   4641245.06247  21569678.145    21569678.1524   21569683.6494
        -0.000          -0.000
  -4849216.961 9  -3759479.51447  22812474.775    22812475.1324   22812481.2064
        -0.000          -0.000
     30603.679 8     28484.12245  23905695.118    23905695.1624   23905701.7964
        -0.000          -0.000
  -6397166.499 9  -4790009.67349  20198218.761    20198218.4244   20198223.8174
        -0.000          -0.000
 97  3  8 21 18 59.9990000  0  6  4  2 27 26 15  7                  -0.000092154
 -10181200.867 9  -7916064.13046  23578037.637    23578038.0544   23578044.7334
        -0.000          -0.000
  -1419404.788 9  -1103085.50248  21240717.661    21240717.3374   21240722.9344
        -0.000          -0.000
   6029754.190 9   4698206.26847  21583588.647    21583588.6724   21583594.1104
        -0.000          -0.000
  -4840851.326 9  -3752960.85147  22814066.673    22814067.0704   22814073.1444
        -0.000          -0.000
     73576.832 8     61969.65645  23913872.612    23913872.4114   23913879.3954
        -0.000          -0.000
  -6402676.385 9  -4794303.07749  20197170.332    20197169.9704   20197175.3444
        -0.000          -0.000
 97  3  8 21 19 29.9990000  0  6  4  2 27 26 15  7                  -0.000098389
 -10293908.522 9  -8003888.11946  23556589.911    23556590.4034   23556597.1884
        -0.000          -0.000
  -1418168.615 9  -1102122.24648  21240952.893    21240952.5644   21240958.1314
        -0.000          -0.000
   6103239.465 9   4755467.51247  21597572.464    21597572.4714   21597577.8614
        -0.000          -0.000
  -4832008.263 9  -3746070.17247  22815749.483    22815749.8454   22815755.9354
        -0.000          -0.000
    117048.160 8     95843.40845  23922145.016    23922144.3754   23922151.9774
        -0.000          -0.000
  -6407748.606 9  -4798255.44249  20196205.071    20196204.6994   20196210.0524
        -0.000          -0.000
 97  3  8 21 19 59.9990000  0  6  4  2 27 26 15  7                  -0.000104619
 -10406528.459 9  -8091643.76746  23535158.934    23535159.3884   23535166.2294
        -0.000          -0.000
  -1416770.003 9  -1101032.41248  21241219.028    21241218.7004   21241224.2394
        -0.000          -0.000
   6177134.535 9   4813048.07347  21611634.221    21611634.2374   21611639.5684
        -0.000          -0.000
  -4822665.485 9  -3738790.09047  22817527.415    22817527.7644   22817533.8294
        -0.000          -0.000
    161041.694 8    130124.08245  23930516.309    23930516.0184   23930523.6924
        -0.000          -0.000
  -6412340.781 9  -4801833.74749  20195331.165    20195330.8144   20195336.1784
        -0.000          -0.000
 97  3  8 21 20 29.9990000  0  6  4  2 27 26 15  7                  -0.000110860
 -10519081.201 9  -8179347.07546  23513740.713    23513741.2864   23513747.9794
        -0.000          -0.000
  -1415218.232 9  -1099823.23448  21241514.341    21241514.0064   21241519.4864
        -0.000          -0.000
   6251437.503 9   4870946.48147  21625773.647    21625773.6384   21625779.0084
        -0.000          -0.000
  -4812853.622 9  -3731144.49947  22819394.526    22819394.8814   22819400.9164
        -0.000          -0.000
    205547.367 8    164803.81245  23938985.287    23938985.1154   23938993.0644
        -0.000          -0.000
  -6416473.192 9  -4805053.79449  20194544.768    20194544.4384   20194549.8024
        -0.000          -0.000
 97  3  8 21 20 59.9990000  0  6  4  2 27 26 15  7                  -0.000117114
 -10631590.704 9  -8267016.67245  23492330.725    23492331.2284   23492337.9054
        -0.000          -0.000
  -1413512.725 9  -1098494.26148  21241838.942    21241838.6014   21241843.9994
        -0.000          -0.000
   6326129.051 9   4929147.67847  21639986.994    21639986.9994   21639992.3704
        -0.000          -0.000
  -4802576.842 9  -3723136.65247  22821350.237    22821350.5584   22821356.5494
        -0.000          -0.000
    250556.766 8    199876.04645  23947550.424    23947550.2864   23947558.0944
        -0.000          -0.000
  -6420176.774 9  -4807939.69049  20193840.056    20193839.7064   20193845.0064
        -0.000          -0.000
 97  3  8 21 21 29.9990000  0  6  4  2 27 26 15  7                  -0.000123372
 -10744062.376 9  -8354656.79745  23470927.874    23470928.3944   23470935.1224
        -0.000          -0.000
  -1411639.571 9  -1097034.65048  21242195.384    21242195.0344   21242200.4184
        -0.000          -0.000
   6401199.808 9   4987644.35647  21654272.423    21654272.4304   21654277.8524
        -0.000          -0.000
  -4791820.531 9  -3714755.10647  22823397.045    22823397.3914   22823403.4744
        -0.000          -0.000
    296072.912 8    235343.17945  23956212.108    23956211.9194   23956219.4574
        -0.000          -0.000
  -6423472.952 9  -4810508.12849  20193212.845    20193212.5004   20193217.7594
        -0.000          -0.000
 97  3  8 21 21 59.9990000  0  6  4  2 27 26 15  7                  -0.000129630
 -10856495.898 9  -8442267.20846  23449532.377    23449532.8964   23449539.5364
        -0.000          -0.000
  -1409609.171 9  -1095452.51948  21242581.726    21242581.3974   21242586.7804
        -0.000          -0.000
   6476659.232 9   5046443.87947  21668631.787    21668631.7984   21668637.3884
        -0.000          -0.000
  -4780595.278 9  -3706008.18447  22825533.182    22825533.5624   22825539.5574
        -0.000          -0.000
    342095.118 8    271204.63245  23964969.872    23964969.7474   23964977.2924
        -0.000          -0.000
  -6426390.176 9  -4812781.27949  20192657.713    20192657.3744   20192662.6164
        -0.000          -0.000
 97  3  8 21 22 29.9990000  0  6  4  2 27 26 15  7                  -0.000135897
 -10968904.769 9  -8529858.41045  23428141.546    23428141.9564   23428148.5374
        -0.000          -0.000
  -1407449.298 9  -1093769.49248  21242992.690    21242992.3534   21242997.8084
        -0.000          -0.000
   6552473.401 9   5105519.84547  21683058.686    21683058.7014   21683064.4074
        -0.000          -0.000
  -4768925.375 9  -3696914.76047  22827753.891    22827754.2344   22827760.1924
        -0.000          -0.000
    388597.079 8    307439.90945  23973819.076    23973819.0104   23973826.3154
        -0.000          -0.000
  -6428959.329 9  -4814783.19749  20192168.839    20192168.4834   20192173.7514
        -0.000          -0.000
 97  3  8 21 22 59.9990000  0  6  4  2 27 26 15  7                  -0.000142167
 -11081263.932 9  -8617410.87945  23406759.950    23406760.2984   23406767.0764
        -0.000          -0.000
  -1405141.999 9  -1091971.58848  21243431.713    21243431.3884   21243436.9024
        -0.000          -0.000
   6628640.796 9   5164871.04747  21697552.821    21697552.8574   21697558.6264
        -0.000          -0.000
  -4756790.142 9  -3687458.74647  22830063.082    22830063.4364   22830069.4264
        -0.000          -0.000
    435588.555 8    344056.63745  23982761.528    23982761.3494   23982768.4644
        -0.000          -0.000
  -6431149.908 9  -4816490.12749  20191751.950    20191751.6014   20191756.9164
        -0.000          -0.000
 97  3  8 21 23 29.9990000  0  6  4  2 27 26 15  7                  -0.000148436
 -11193537.814 9  -8704896.90645  23385394.716    23385395.0684   23385402.0134
        -0.000          -0.000
  -1402686.018 9  -1090057.83048  21243899.028    21243898.6854   21243904.1944
        -0.000          -0.000
   6705170.646 9   5224504.68947  21712116.000    21712116.0054   21712121.7734
        -0.000          -0.000
  -4744197.372 9  -3677646.22147  22832459.419    22832459.7974   22832465.8044
        -0.000          -0.000
    483073.904 8    381058.19745  23991797.772    23991797.7634   23991804.4964
        -0.000          -0.000
  -6432939.939 9  -4817884.94049  20191411.309    20191410.9474   20191416.3114
        -0.000          -0.000
 97  3  8 21 23 59.9990000  0  7  4  9  2 27 26 15  7               -0.000154651
 -11305673.075 9  -8792274.92546  23364056.015    23364056.4204   23364063.3154
        -0.000          -0.000
  -4626036.99418  -1729542.16155  24593764.305    24593764.3705   24593771.3105
        -0.000          -0.000
  -1400053.082 9  -1088006.18748  21244400.031    21244399.7084   21244405.1944
        -0.000          -0.000
   6782103.990 9   5284452.74447  21726755.921    21726755.9504   21726761.7044
        -0.000          -0.000
  -4731118.656 9  -3667455.03047  22834948.290    22834948.6544   22834954.7174
        -0.000          -0.000
    531086.485 9    418470.58945  24000934.466    24000934.3694   24000941.1794
        -0.000          -0.000
  -6434285.049 9  -4818933.06449  20191155.311    20191154.9544   20191160.3214
        -0.000          -0.000
 97  3  8 21 24 29.9990000  0  7  4  9  2 27 26 15  7               -0.000160905
 -11417710.716 9  -8879576.89846  23342735.933    23342736.4004   23342743.2224
        -0.000          -0.000
  -4735867.905 7  -1815124.51445  24572864.270    24572864.1514   24572870.9694
        -0.000          -0.000
  -1397280.506 9  -1085845.74148  21244927.619    21244927.3234   21244932.7304
        -0.000          -0.000
   6859389.464 9   5344675.17847  21741462.907    21741462.9284   21741468.6814
        -0.000          -0.000
  -4717596.662 9  -3656918.43647  22837521.430    22837521.8034   22837527.8814
        -0.000          -0.000
    579572.936 9    456252.22145  24010161.478    24010161.3204   24010167.7254
        -0.000          -0.000
  -6435223.207 9  -4819664.08749  20190976.772    20190976.4284   20190981.7914
        -0.000          -0.000
 97  3  8 21 24 59.9990000  0  7  4  9  2 27 26 15  7               -0.000167148
 -11529626.580 9  -8966783.95246  23321438.992    23321439.4344   23321446.3054
        -0.000          -0.000
  -4845630.774 8  -1900653.85345  24551976.845    24551976.6204   24551983.8674
        -0.000          -0.000
  -1394338.214 9  -1083553.04248  21245487.513    21245487.2254   21245492.6204
        -0.000          -0.000
   6937066.691 9   5405202.85847  21756244.461    21756244.4754   21756250.2504
        -0.000          -0.000
  -4703595.873 9  -3646008.74447  22840185.678    22840186.0584   22840192.1664
        -0.000          -0.000
    628559.598 9    494423.64745  24019483.571    24019483.4074   24019489.7154
        -0.000          -0.000
  -6435739.594 9  -4820066.45649  20190878.512    20190878.1664   20190883.4944
        -0.000          -0.000
 97  3  8 21 25 29.9990000  0  7  4  9  2 27 26 15  7               -0.000173381
 -11641430.107 9  -9053903.47846  23300163.506    23300163.8114   23300170.5914
        -0.000          -0.000
  -4955331.751 8  -1986134.96545  24531101.404    24531101.0714   24531108.1844
        -0.000          -0.000
  -1391241.947 9  -1081140.36748  21246076.703    21246076.4074   21246081.7874
        -0.000          -0.000
   7015135.978 9   5466036.04347  21771100.662    21771100.6314   21771106.4354
        -0.000          -0.000
  -4689121.859 9  -3634730.30347  22842939.964    22842940.3324   22842946.4114
        -0.000          -0.000
    678039.475 9    532979.36645  24028899.141    24028899.0004   24028905.4204
        -0.000          -0.000
  -6435851.698 9  -4820153.79849  20190857.162    20190856.8214   20190862.1654
        -0.000          -0.000
 97  3  8 21 25 59.9990000  0  7  4  9  2 27 26 15  7               -0.000179612
 -11753139.413 9  -9140949.58446  23278905.978    23278906.2894   23278912.8914
        -0.000          -0.000
  -5064976.927 8  -2071572.61545  24510236.527    24510236.4564   24510243.4414
        -0.000          -0.000
  -1387999.354 9  -1078613.67148  21246693.774    21246693.4504   21246698.8914
        -0.000          -0.000
   7093588.922 9   5527168.18647  21786029.798    21786029.8154   21786035.5904
        -0.000          -0.000
  -4674174.952 9  -3623083.38747  22845784.211    22845784.6324   22845790.7504
        -0.000          -0.000
    728004.836 9    571913.38245  24038407.318    24038407.0974   24038413.4784
        -0.000          -0.000
  -6435564.498 9  -4819929.99549  20190911.829    20190911.4934   20190916.8154
        -0.000          -0.000
 97  3  8 21 26 29.9990000  0  7  4  9  2 27 26 15  7               -0.000185844
 -11864759.946 9  -9227926.48946  23257665.189    23257665.4934   23257671.9554
        -0.000          -0.000
  -5174558.654 8  -2156960.85145  24489383.697    24489383.7424   24489390.8604
        -0.000          -0.000
  -1384594.777 9  -1075960.75148  21247341.617    21247341.3124   21247346.7854
        -0.000          -0.000
   7172428.723 9   5588601.78447  21801032.545    21801032.5394   21801038.3464
        -0.000          -0.000
  -4658759.371 9  -3611071.25547  22848717.708    22848718.0914   22848724.2934
        -0.000          -0.000
    778460.081 9    611229.15545  24048008.863    24048008.4404   24048014.4924
        -0.000          -0.000
  -6434868.436 9  -4819387.59649  20191044.266    20191043.9314   20191049.2854
        -0.000          -0.000
 97  3  8 21 26 59.9990000  0  7  4  9  2 27 26 15  7               -0.000192085
 -11976308.975 9  -9314847.70446  23236438.012    23236438.3784   23236444.6564
        -0.000          -0.000
  -5284093.979 8  -2242312.94945  24468539.821    24468539.6834   24468546.9364
        -0.000          -0.000
  -1381046.779 9  -1073196.07048  21248016.752    21248016.4444   21248021.9894
        -0.000          -0.000
   7251641.502 9   5650326.01747  21816106.256    21816106.2844   21816112.0554
        -0.000          -0.000
  -4642890.493 9  -3598705.91646  22851737.492    22851737.8214   22851744.0004
        -0.000          -0.000
    829398.392 9    650921.34745  24057702.233    24057701.8894   24057707.6094
        -0.000          -0.000
  -6433775.152 9  -4818535.67549  20191252.251    20191251.9174   20191257.3064
        -0.000          -0.000
 97  3  8 21 27 29.9990000  0  7  4  9  2 27 26 15  7               -0.000198351
 -12087795.781 9  -9401720.42346  23215222.634    23215222.9854   23215229.4234
        -0.000          -0.000
  -5393592.535 8  -2327636.41945  24447702.599    24447702.7184   24447710.0774
        -0.000          -0.000
  -1377373.847 9  -1070334.04648  21248715.647    21248715.3514   21248720.9754
        -0.000          -0.000
   7331196.632 9   5712317.01447  21831245.106    21831245.1144   21831250.9194
        -0.000          -0.000
  -4626594.724 9  -3586007.93346  22854838.431    22854838.8244   22854844.9784
        -0.000          -0.000
    880804.912 9    690978.35945  24067484.641    24067484.3684   24067489.9004
        -0.000          -0.000
  -6432283.424 9  -4817373.28549  20191536.123    20191535.7814   20191541.1424
        -0.000          -0.000
 97  3  8 21 27 59.9990000  0  7  4  9  2 27 26 15  7               -0.000204634
 -12199215.807 9  -9488541.09846  23194020.058    23194020.3644   23194026.8854
        -0.000          -0.000
  -5503023.925 8  -2412907.57045  24426878.106    24426878.2054   24426885.7674
        -0.000          -0.000
  -1373546.833 9  -1067351.95048  21249443.931    21249443.6264   21249449.2644
        -0.000          -0.000
   7411096.605 9   5774576.72147  21846449.592    21846449.5874   21846455.4494
        -0.000          -0.000
  -4609868.934 9  -3572974.87146  22858021.188    22858021.5914   22858027.7644
        -0.000          -0.000
    932687.431 9    731406.26445  24077357.331    24077356.9844   24077362.4024
        -0.000          -0.000
  -6430382.167 9  -4815891.78249  20191897.899    20191897.5504   20191902.9034
        -0.000          -0.000
 97  3  8 21 28 29.9990000  0  7  4  9  2 27 26 15  7               -0.000210936
 -12310577.180 9  -9575316.08046  23172828.567    23172828.9554   23172835.4254
        -0.000          -0.000
  -5612379.986 8  -2498120.03645  24406068.187    24406068.2004   24406075.9534
        -0.000          -0.000
  -1369567.130 9  -1064250.87548  21250201.262    21250200.9324   21250206.5824
        -0.000          -0.000
   7491322.237 9   5837090.18147  21861716.028    21861716.0294   21861721.9344
        -0.000          -0.000
  -4592716.861 9  -3559609.63746  22861285.080    22861285.4624   22861291.7164
        -0.000          -0.000
    985035.520 8    772196.98345  24087318.594    24087318.3374   24087323.7994
        -0.000          -0.000
  -6428095.123 9  -4814109.66449  20192333.097    20192332.7594   20192338.1204
        -0.000          -0.000
 97  3  8 21 28 59.9990000  0  7  4  9  2 27 26 15  7               -0.000217240
 -12421850.477 9  -9662022.45246  23151653.826    23151654.2934   23151660.7864
        -0.000          -0.000
  -5721641.799 8  -2583259.04445  24385276.325    24385276.1944   24385283.9554
        -0.000          -0.000
  -1365426.262 9  -1061024.22248  21250989.163    21250988.8674   21250994.4944
        -0.000          -0.000
   7571874.160 9   5899857.89547  21877044.567    21877044.5674   21877050.4894
        -0.000          -0.000
  -4575115.334 9  -3545894.16746  22864634.586    22864634.9824   22864641.1624
        -0.000          -0.000
   1037860.869 8    813359.56445  24097370.606    24097370.4184   24097376.0224
        -0.000          -0.000
  -6425422.163 9  -4812026.83149  20192841.734    20192841.3974   20192846.7704
        -0.000          -0.000
 97  3  8 21 29 29.9990000  0  7  4  9  2 27 26 15  7               -0.000223543
 -12533021.148 9  -9748648.84546  23130498.671    23130499.0794   23130505.5424
        -0.000          -0.000
  -5830789.872 8  -2668309.43345  24364506.026    24364506.1434   24364513.7504
        -0.000          -0.000
  -1361105.971 9  -1057657.75248  21251811.319    21251810.9974   21251816.5654
        -0.000          -0.000
   7652754.422 9   5962881.46347  21892435.605    21892435.6024   21892441.5174
        -0.000          -0.000
  -4557073.154 9  -3531835.32546  22868067.987    22868068.3964   22868074.4374
        -0.000          -0.000
   1091161.438 8    854892.45945  24107513.068    24107512.8874   24107518.7454
        -0.000          -0.000
  -6422363.912 9  -4809643.76749  20193423.711    20193423.3744   20193428.7494
        -0.000          -0.000
 97  3  8 21 29 59.9990000  0  7  4  9  2 27 26 15  7               -0.000229837
 -12644074.008 9  -9835183.45346  23109365.879    23109366.3194   23109372.7554
        -0.000          -0.000
  -5939829.977 8  -2753275.67345  24343756.306    24343756.6374   24343764.0054
        -0.000          -0.000
  -1356591.437 9  -1054139.93148  21252670.378    21252670.0934   21252675.5764
        -0.000          -0.000
   7733984.901 9   6026177.91747  21907893.323    21907893.3314   21907899.1544
        -0.000          -0.000
  -4538588.415 9  -3517431.64346  22871585.602    22871586.0004   22871591.9134
        -0.000          -0.000
   1144939.225 8    896797.21545  24117746.681    24117746.2524   24117752.5194
        -0.000          -0.000
  -6418931.606 9  -4806969.23649  20194076.906    20194076.5424   20194081.9084
        -0.000          -0.000
 97  3  8 21 30 29.9990000  0  7  4  9  2 27 26 15  7               -0.000236130
 -12755003.198 9  -9921621.70046  23088256.728    23088257.1324   23088263.4134
        -0.000          -0.000
  -6048799.974 8  -2838187.26445  24323020.215    24323020.3634   24323027.5814
        -0.000          -0.000
  -1351919.460 9  -1050499.42848  21253559.403    21253559.0974   21253564.5124
        -0.000          -0.000
   7815556.385 9   6089740.08147  21923415.851    21923415.8654   21923421.6804
        -0.000          -0.000
  -4519667.940 9  -3502688.41346  22875186.065    22875186.4984   22875192.3484
        -0.000          -0.000
   1199177.042 8    939060.42345  24128067.817    24128067.4264   24128073.8714
        -0.000          -0.000
  -6415139.346 9  -4804014.21249  20194798.520    20194798.1524   20194803.5404
        -0.000          -0.000
 97  3  8 21 30 59.9990000  0  7  4  9  2 27 26 15  7               -0.000242423
 -12865788.440 9 -10007947.79446  23067174.902    23067175.3074   23067181.4714
        -0.000          -0.000
  -6157707.708 8  -2923050.32445  24302295.879    24302296.0504   24302302.9324
        -0.000          -0.000
  -1347098.895 9  -1046743.14048  21254476.800    21254476.4824   21254481.8244
        -0.000          -0.000
   7897489.155 9   6153583.76847  21939007.151    21939007.2014   21939012.9334
        -0.000          -0.000
  -4500323.815 9  -3487615.07546  22878867.177    22878867.6194   22878873.5114
        -0.000          -0.000
   1253877.089 8    981683.82645  24138476.758    24138476.4404   24138482.9434
        -0.000          -0.000
  -6410965.731 9  -4800762.03349  20195592.724    20195592.3624   20195597.7544
        -0.000          -0.000
 97  3  8 21 31 29.9990000  0  7  4  9  2 27 26 15  7               -0.000248718
 -12976431.829 9 -10094163.32346  23046119.944    23046120.3934   23046126.6534
        -0.000          -0.000
  -6266550.158 8  -3007862.47945  24281583.944    24281584.0904   24281590.8754
        -0.000          -0.000
  -1342123.096 9  -1042865.89248  21255423.706    21255423.3774   21255428.6754
        -0.000          -0.000
   7979808.182 9   6217728.42947  21954671.951    21954671.9774   21954677.7294
        -0.000          -0.000
  -4480559.764 9  -3472214.51546  22882628.163    22882628.5864   22882634.5154
        -0.000          -0.000
   1309043.312 8   1024670.48645  24148974.567    24148974.2434   24148980.6734
        -0.000          -0.000
  -6406393.805 9  -4797199.48249  20196462.701    20196462.3504   20196467.7414
        -0.000          -0.000
 97  3  8 21 31 59.9990000  0  7  4  9  2 27 26 15  7               -0.000255022
 -13086946.303 9 -10180278.40146  23025089.502    23025089.9624   23025096.4674
        -0.000          -0.000
  -6375348.284 8  -3092640.10145  24260880.340    24260880.2724   24260886.9704
        -0.000          -0.000
  -1337020.073 9  -1038889.50048  21256394.771    21256394.4344   21256399.7624
        -0.000          -0.000
   8062502.575 9   6282165.59347  21970408.226    21970408.2634   21970413.9884
        -0.000          -0.000
  -4460367.556 9  -3456480.34346  22886470.518    22886470.9264   22886476.9304
        -0.000          -0.000
   1364665.082 8   1068012.11245  24159559.100    24159558.6464   24159565.3124
        -0.000          -0.000
  -6401425.801 9  -4793328.30249  20197408.105    20197407.7464   20197413.1214
        -0.000          -0.000
 97  3  8 21 32 29.9990000  0  7  4  9  2 27 26 15  7               -0.000261333
 -13197332.582 9 -10266293.58646  23004083.639    23004084.1544   23004090.6754
        -0.000          -0.000
  -6484080.370 8  -3177366.28045  24240189.244    24240189.1784   24240196.0144
        -0.000          -0.000
  -1331789.965 9  -1034814.09248  21257390.029    21257389.6954   21257395.0844
        -0.000          -0.000
   8145558.303 9   6346884.31747  21986213.252    21986213.2914   21986218.9704
        -0.000          -0.000
  -4439732.237 9  -3440400.87546  22890397.242    22890397.6674   22890403.6664
        -0.000          -0.000
   1420745.813 8   1111711.39145  24170230.786    24170230.1984   24170237.2754
        -0.000          -0.000
  -6396046.294 9  -4789136.47049  20198431.812    20198431.4474   20198436.7724
        -0.000          -0.000
 97  3  8 21 32 59.9990000  0  7  4  9  2 27 26 15  7               -0.000267659
 -13307603.990 9 -10352219.26146  22983099.776    22983100.2214   22983106.8074
        -0.000          -0.000
  -6592741.406 8  -3262037.07345  24219511.488    24219511.3414   24219518.3104
        -0.000          -0.000
  -1326415.488 9  -1030626.18248  21258412.741    21258412.3974   21258417.9164
        -0.000          -0.000
   8228960.043 9   6411872.65047  22002084.113    22002084.1644   22002089.8214
        -0.000          -0.000
  -4418666.089 9  -3423985.71946  22894406.122    22894406.5314   22894412.4134
        -0.000          -0.000
   1477279.437 8   1155763.56945  24180988.683    24180988.3704   24180995.3694
        -0.000          -0.000
  -6390266.662 9  -4784632.84649  20199531.644    20199531.2764   20199536.6264
        -0.000          -0.000
 97  3  8 21 33 29.9990000  0  7  4  9  2 27 26 15  7               -0.000273993
 -13417760.546 9 -10438055.43946  22962137.660    22962138.0134   22962144.7354
        -0.000          -0.000
  -6701313.185 8  -3346638.37945  24198850.734    24198850.6644   24198857.5184
        -0.000          -0.000
  -1320875.781 9  -1026309.52548  21259466.933    21259466.5984   21259472.1694
        -0.000          -0.000
   8312683.918 9   6477112.00947  22018016.266    22018016.2954   22018021.9614
        -0.000          -0.000
  -4397148.424 9  -3407218.73746  22898500.860    22898501.2384   22898507.1534
        -0.000          -0.000
   1534269.520 9   1200171.41745  24191833.585    24191833.3224   24191840.4874
        -0.000          -0.000
  -6384102.183 9  -4779829.34349  20200704.696    20200704.3434   20200709.7444
        -0.000          -0.000
 97  3  8 21 33 59.9990000  0  7  4  9  2 27 26 15  7               -0.000280331
 -13527788.030 9 -10523791.03746  22941200.163    22941200.4774   22941207.1514
        -0.000          -0.000
  -6809784.201 8  -3431161.14345  24178209.061    24178209.1554   24178216.1624
        -0.000          -0.000
  -1315175.528 9  -1021867.75748  21260551.677    21260551.3174   21260556.9404
        -0.000          -0.000
   8396709.057 9   6542586.11147  22034005.675    22034005.7054   22034011.4534
        -0.000          -0.000
  -4375178.436 9  -3390099.28346  22902681.640    22902682.0034   22902688.0154
        -0.000          -0.000
   1591708.975 9   1244929.44245  24202764.167    24202763.8154   24202771.0894
        -0.000          -0.000
  -6377565.918 9  -4774736.13549  20201948.482    20201948.1224   20201953.5564
        -0.000          -0.000
 97  3  8 21 34 29.9990000  0  7  4  9  2 27 26 15  7               -0.000286666
 -13637664.001 9 -10609408.58946  22920291.427    22920291.8124   22920298.3294
        -0.000          -0.000
  -6918136.327 8  -3515591.29945  24157590.050    24157590.1494   24157597.2764
        -0.000          -0.000
  -1309295.910 9  -1017286.23548  21261670.439    21261670.1024   21261675.7614
        -0.000          -0.000
   8481045.920 9   6608303.11247  22050054.419    22050054.4354   22050060.2604
        -0.000          -0.000
  -4352772.116 9  -3372639.83246  22906945.369    22906945.7424   22906951.8164
        -0.000          -0.000
   1649602.727 9   1290041.43745  24213781.199    24213780.7184   24213788.0814
        -0.000          -0.000
  -6370659.240 9  -4769354.30249  20203262.734    20203262.3634   20203267.7854
        -0.000          -0.000
 97  3  8 21 34 59.9990000  0  7  4  9  2 27 26 15  7               -0.000292979
 -13747358.287 9 -10694884.53546  22899417.187    22899417.5634   22899424.1394
        -0.000          -0.000
  -7026346.877 8  -3599911.11445  24136998.140    24136998.1744   24137005.5494
        -0.000          -0.000
  -1303220.121 9  -1012551.84648  21262826.568    21262826.2424   21262831.9064
        -0.000          -0.000
   8565725.485 9   6674287.16647  22066168.425    22066168.4204   22066174.2814
        -0.000          -0.000
  -4329925.934 9  -3354837.62746  22911292.848    22911293.2324   22911299.3294
        -0.000          -0.000
   1707971.717 9   1335523.75345  24224888.684    24224888.3284   24224895.4584
        -0.000          -0.000
  -6363364.712 9  -4763670.24949  20204650.793    20204650.4524   20204655.8294
        -0.000          -0.000
 97  3  8 21 35 29.9990000  0  7  4  9  2 27 26 15  7               -0.000299294
 -13856897.864 9 -10780239.94946  22878572.389    22878572.7844   22878579.2804
        -0.000          -0.000
  -7134453.568 8  -3684149.98245  24116426.008    24116426.1754   24116433.4864
        -0.000          -0.000
  -1297002.438 9  -1007706.89548  21264009.768    21264009.4434   21264015.0194
        -0.000          -0.000
   8650718.094 9   6740515.14347  22082341.966    22082341.9634   22082347.8654
        -0.000          -0.000
  -4306684.450 9  -3336727.39147  22915715.604    22915716.0104   22915722.1674
        -0.000          -0.000
   1766775.685 9   1381345.00445  24236078.697    24236078.3624   24236085.5724
        -0.000          -0.000
  -6355718.923 9  -4757712.48849  20206105.751    20206105.3844   20206110.7604
        -0.000          -0.000
 97  3  8 21 35 59.9990000  0  7  4  9  2 27 26 15  7               -0.000305607
 -13966269.723 9 -10865464.69446  22857759.506    22857759.9624   22857766.3204
        -0.000          -0.000
  -7242465.178 9  -3768314.75745  24095872.206    24095872.4544   24095879.5374
        -0.000          -0.000
  -1290640.648 9  -1002749.65048  21265220.410    21265220.0844   21265225.5354
        -0.000          -0.000
   8736062.636 9   6807017.36047  22098582.502    22098582.5004   22098588.3594
        -0.000          -0.000
  -4283049.657 9  -3318310.66947  22920213.219    22920213.5774   22920219.7934
        -0.000          -0.000
   1826023.212 9   1427511.88345  24247353.186    24247352.8174   24247360.0034
        -0.000          -0.000
  -6347696.497 9  -4751461.24049  20207632.323    20207631.9584   20207637.3724
        -0.000          -0.000
 97  3  8 21 36 29.9990000  0  7  4  9  2 27 26 15  7               -0.000311932
 -14075497.089 9 -10950576.84446  22836974.179    22836974.6424   22836980.9784
        -0.000          -0.000
  -7350396.834 9  -3852417.24045  24075333.822    24075333.7334   24075340.6634
        -0.000          -0.000
  -1284142.332 9   -997686.02748  21266457.030    21266456.6984   21266462.0644
        -0.000          -0.000
   8821750.562 9   6873787.14747  22114888.333    22114888.3424   22114894.1634
        -0.000          -0.000
  -4259033.504 9  -3299596.79247  22924783.366    22924783.6734   22924789.9874
        -0.000          -0.000
   1885706.835 8   1474018.59245  24258710.567    24258710.2044   24258717.4634
        -0.000          -0.000
  -6339297.490 9  -4744916.55049  20209230.610    20209230.2514   20209235.6904
        -0.000          -0.000
 97  3  8 21 36 59.9990000  0  7  4  9  2 27 26 15  7               -0.000318255
 -14184557.484 9 -11035558.89446  22816220.599    22816221.0494   22816227.4084
        -0.000          -0.000
  -7458226.678 9  -3936440.36745  24054814.505    24054814.4994   24054821.2224
        -0.000          -0.000
  -1277479.527 9   -992494.23148  21267724.930    21267724.6104   21267729.8874
        -0.000          -0.000
   8907791.068 9   6940831.66846  22131261.229    22131261.2074   22131267.0234
        -0.000          -0.000
  -4234591.842 9  -3280551.34047  22929434.485    22929434.8034   22929441.0174
        -0.000          -0.000
   1945848.830 9   1520882.44745  24270155.101    24270154.8914   24270162.0494
        -0.000          -0.000
  -6330503.072 9  -4738063.74549  20210904.144    20210903.7824   20210909.2634
        -0.000          -0.000
 97  3  8 21 37 29.9990000  0  7  4  9  2 27 26 15  7               -0.000324589
 -14293474.310 9 -11120429.06946  22795494.296    22795494.7784   22795501.2314
        -0.000          -0.000
  -7565972.079 9  -4020397.71345  24034311.222    24034311.2434   24034317.7304
        -0.000          -0.000
  -1270668.593 9   -987187.00948  21269021.119    21269020.7934   21269025.9544
        -0.000          -0.000
   8994154.688 9   7008127.96746  22147695.671    22147695.6694   22147701.4344
        -0.000          -0.000
  -4209738.064 9  -3261184.77347  22934164.061    22934164.3694   22934170.6414
        -0.000          -0.000
   2006418.054 9   1568079.23045  24281681.205    24281681.0314   24281687.7414
        -0.000          -0.000
  -6321347.470 9  -4730929.50149  20212646.422    20212646.0464   20212651.5224
        -0.000          -0.000
 97  3  8 21 37 59.9990000  0  7  4  9  2 27 26 15  7               -0.000330926
 -14402249.529 9 -11205188.90746  22774795.034    22774795.4774   22774801.9594
        -0.000          -0.000
  -7673606.452 8  -4104268.54245  24013829.058    24013829.1224   24013835.2844
        -0.000          -0.000
  -1263683.533 9   -981744.10348  21270350.386    21270350.0534   21270355.0974
        -0.000          -0.000
   9080847.431 9   7075680.73046  22164192.799    22164192.8294   22164198.5674
        -0.000          -0.000
  -4184449.167 9  -3241479.12647  22938976.370    22938976.7364   22938983.0334
        -0.000          -0.000
   2067423.130 9   1615615.64445  24293290.367    24293290.0254   24293296.3414
        -0.000          -0.000
  -6311822.271 9  -4723507.25949  20214458.995    20214458.6124   20214464.0464
        -0.000          -0.000
 97  3  8 21 38 29.9990000  0  6  4  9  2 27 26  7                  -0.000337302
 -14510870.388 9 -11289828.46546  22754125.227    22754125.6364   22754132.0044
        -0.000          -0.000
  -7781094.952 8  -4188025.70045  23993374.534    23993374.6434   23993380.9204
        -0.000          -0.000
  -1256504.638 9   -976150.15948  21271716.559    21271716.2274   21271721.2104
        -0.000          -0.000
   9167851.921 9   7143476.40446  22180749.237    22180749.2474   22180755.0264
        -0.000          -0.000
  -4158703.840 9  -3221417.84647  22943875.505    22943875.8864   22943882.2954
        -0.000          -0.000
  -6301934.849 9  -4715802.77049  20216340.477    20216340.1194   20216345.4904
        -0.000          -0.000
 97  3  8 21 38 59.9990000  0  6  4  9  2 27 26  7                  -0.000343642
 -14619319.338 9 -11374334.07047  22733488.141    22733488.5434   22733494.8154
        -0.000          -0.000
  -7888436.345 8  -4271668.22445  23972947.954    23972948.0734   23972954.1464
        -0.000          -0.000
  -1249121.482 9   -970397.05148  21273121.496    21273121.1654   21273126.1934
        -0.000          -0.000
   9255163.925 9   7211511.70346  22197364.069    22197364.1154   22197369.9964
        -0.000          -0.000
  -4132502.950 9  -3201001.59347  22948861.375    22948861.7734   22948868.1584
        -0.000          -0.000
  -6291697.713 9  -4707825.77049  20218288.593    20218288.2204   20218293.5694
        -0.000          -0.000
 97  3  8 21 39 29.9990000  0  6  4  9  2 27 26  7                  -0.000349976
 -14727612.800 9 -11458718.51147  22712880.562    22712880.9994   22712887.1934
        -0.000          -0.000
  -7995646.130 8  -4355208.20745  23952546.193    23952546.3794   23952552.6474
        -0.000          -0.000
  -1241543.627 9   -964492.23048  21274563.450    21274563.1574   21274568.3064
        -0.000          -0.000
   9342771.883 9   7279777.60846  22214035.283    22214035.3044   22214041.2734
        -0.000          -0.000
  -4105870.379 9  -3180248.96147  22953929.458    22953929.8154   22953936.0974
        -0.000          -0.000
  -6281121.993 9  -4699584.93649  20220301.091    20220300.7174   20220306.0324
        -0.000          -0.000
 97  3  8 21 39 59.9990000  0  6  4  9  2 27 26  7                  -0.000356310
 -14835732.061 9 -11542967.21247  22692306.092    22692306.5744   22692312.6474
        -0.000          -0.000
  -8102733.901 8  -4438653.16645  23932167.866    23932168.0754   23932174.6724
        -0.000          -0.000
  -1233764.938 9   -958430.90948  21276043.604    21276043.3124   21276048.5874
        -0.000          -0.000
   9430679.682 9   7348277.17546  22230763.553    22230763.5524   22230769.5614
        -0.000          -0.000
  -4078808.230 9  -3159161.59547  22959079.157    22959079.5604   22959085.7394
        -0.000          -0.000
  -6270192.452 9  -4691068.39749  20222380.883    20222380.5174   20222385.8194
        -0.000          -0.000
 97  3  8 21 40 29.9990000  0  6  4  9  2 27 26  7                  -0.000362651
 -14943650.048 9 -11627059.06547  22671769.969    22671770.4004   22671776.3984
        -0.000          -0.000
  -8209707.190 8  -4522008.87445  23911811.548    23911811.5294   23911818.1614
        -0.000          -0.000
  -1225798.252 9   -952223.09648  21277559.556    21277559.2424   21277564.6814
        -0.000          -0.000
   9518875.024 9   7417000.79846  22247546.586    22247546.6044   22247552.6134
        -0.000          -0.000
  -4051339.288 9  -3137757.24947  22964306.306    22964306.7214   22964312.7964
        -0.000          -0.000
  -6258906.966 9  -4682274.50649  20224528.435    20224528.0614   20224533.3424
        -0.000          -0.000
 97  3  8 21 40 59.9990000  0  6  4  9  2 27 26  7                  -0.000368980
 -15051339.339 9 -11710972.73147  22651277.332    22651277.7374   22651283.6784
        -0.000          -0.000
  -8316554.823 8  -4605266.66445  23891478.985    23891478.8934   23891485.6594
        -0.000          -0.000
  -1217633.282 9   -945860.77948  21279113.183    21279112.8874   21279118.5244
        -0.000          -0.000
   9607396.200 9   7485978.32046  22264391.663    22264391.6724   22264397.6684
        -0.000          -0.000
  -4023471.982 9  -3116042.48247  22969609.312    22969609.7704   22969615.7814
        -0.000          -0.000
  -6247253.544 9  -4673193.90649  20226745.948    20226745.5764   20226750.8574
        -0.000          -0.000
 97  3  8 21 41 29.9990000  0  6  4  9  2 27 26  7                  -0.000375313
 -15158823.425 9 -11794726.49547  22630823.736    22630824.1374   22630830.0394
        -0.000          -0.000
  -8423299.939 8  -4688444.56445  23871166.069    23871166.0054   23871172.6634
        -0.000          -0.000
  -1209304.757 9   -939371.02348  21280697.984    21280697.7004   21280703.4544
        -0.000          -0.000
   9696234.962 9   7555203.29946  22281297.212    22281297.2194   22281303.2244
        -0.000          -0.000
  -3995237.015 9  -3094041.21647  22974982.279    22974982.7204   22974988.7974
        -0.000          -0.000
  -6235250.642 9  -4663840.98749  20229029.924    20229029.5644   20229034.9134
        -0.000          -0.000
 97  3  8 21 41 59.9990000  0  6  4  9  2 27 26  7                  -0.000381642
 -15266093.139 9 -11878313.20847  22610410.895    22610411.3184   22610417.1674
        -0.000          -0.000
  -8529922.862 8  -4771527.23045  23850876.402    23850876.4424   23850882.8374
        -0.000          -0.000
  -1200814.784 9   -932755.45348  21282313.574    21282313.2814   21282319.0044
        -0.000          -0.000
   9785403.102 9   7624684.93146  22298265.411    22298265.4024   22298271.4054
        -0.000          -0.000
  -3966632.461 9  -3071751.95947  22980425.531    22980425.9134   22980432.1274
        -0.000          -0.000
  -6222881.056 9  -4654202.33849  20231383.772    20231383.4354   20231388.8134
        -0.000          -0.000
 97  3  8 21 42 29.9990000  0  6  4  9  2 27 26  7                  -0.000387960
 -15373161.807 9 -11961743.26847  22590036.363    22590036.7934   22590042.5844
        -0.000          -0.000
  -8636403.550 8  -4854499.08945  23830613.933    23830613.6804   23830620.1504
        -0.000          -0.000
  -1192154.387 9   -926007.09348  21283961.596    21283961.3104   21283966.9874
        -0.000          -0.000
   9874893.146 9   7694417.40546  22315294.833    22315294.8134   22315300.7794
        -0.000          -0.000
  -3937658.905 9  -3049175.17547  22985938.986    22985939.3764   22985945.5984
        -0.000          -0.000
  -6210150.711 9  -4644282.58049  20233806.339    20233805.9874   20233811.3504
        -0.000          -0.000
 97  3  8 21 42 59.9990000  0  6  4  9  2 27 26  7                  -0.000394268
 -15480051.325 9 -12045033.74547  22569695.965    22569696.3844   22569702.1644
        -0.000          -0.000
  -8742747.076 8  -4937364.06045  23810377.263    23810377.1294   23810383.6884
        -0.000          -0.000
  -1183316.320 9   -919120.28648  21285643.434    21285643.1564   21285648.7914
        -0.000          -0.000
   9964706.295 9   7764401.63246  22332385.725    22332385.7114   22332391.6774
        -0.000          -0.000
  -3908305.371 9  -3026302.30347  22991524.809    22991525.1884   22991531.3084
        -0.000          -0.000
  -6197074.458 9  -4634093.28649  20236294.700    20236294.3254   20236299.7034
        -0.000          -0.000
 97  3  8 21 43 29.9990000  0  6  4  9  2 27 26  7                  -0.000400584
 -15586767.683 9 -12128189.27947  22549388.526    22549388.9534   22549394.7754
        -0.000          -0.000
  -8848950.629 8  -5020119.97245  23790167.378    23790167.3794   23790173.8394
        -0.000          -0.000
  -1174297.544 9   -912092.66948  21287359.635    21287359.3784   21287364.9344
        -0.000          -0.000
  10054817.786 9   7834618.32646  22349533.380    22349533.3204   22349539.3104
        -0.000          -0.000
  -3878561.361 9  -3003125.17747  22997184.878    22997185.2404   22997191.3414
        -0.000          -0.000
  -6183639.491 9  -4623624.47649  20238851.259    20238850.8854   20238856.3014
        -0.000          -0.000
 97  3  8 21 43 59.9990000  0  6  4  9  2 27 26  7                  -0.000406904
 -15693317.257 9 -12211214.85347  22529112.783    22529113.2394   22529119.1054
        -0.000          -0.000
  -8955004.381 8  -5102759.14445  23769985.990    23769985.9814   23769992.6234
        -0.000          -0.000
  -1165091.245 9   -904918.93148  21289111.571    21289111.3354   21289116.7734
        -0.000          -0.000
  10145213.880 9   7905056.80246  22366735.180    22366735.1514   22366741.1374
        -0.000          -0.000
  -3848429.464 9  -2979645.78847  23002918.703    23002919.0714   23002925.1814
        -0.000          -0.000
  -6169853.573 9  -4612882.19349  20241474.579    20241474.2294   20241479.6604
        -0.000          -0.000
 97  3  8 21 44 29.9990000  0  6  4  9  2 27 26  7                  -0.000413223
 -15799689.416 9 -12294102.18547  22508870.845    22508871.3034   22508877.2204
        -0.000          -0.000
  -9060914.746 8  -5185286.59945  23749831.801    23749832.0044   23749838.4324
        -0.000          -0.000
  -1155701.775 9   -897602.46348  21290898.412    21290898.1384   21290903.4384
        -0.000          -0.000
  10235891.298 9   7975714.49046  22383990.539    22383990.5054   22383996.5284
        -0.000          -0.000
  -3817908.158 9  -2955862.96747  23008726.724    23008727.1094   23008733.1504
        -0.000          -0.000
  -6155739.588 9  -4601884.27249  20244160.368    20244160.0204   20244165.4964
        -0.000          -0.000
 97  3  8 21 44 59.9990000  0  6  4  9  2 27 26  7                  -0.000419548
 -15905879.944 9 -12376847.97947  22488663.451    22488663.8824   22488669.8204
        -0.000          -0.000
  -9166687.526 8  -5267706.83445  23729703.640    23729703.8894   23729710.4684
        -0.000          -0.000
  -1146145.823 9   -890156.27248  21292716.904    21292716.6494   21292721.8064
        -0.000          -0.000
  10326855.685 9   8046595.80046  22401300.537    22401300.5324   22401306.5174
        -0.000          -0.000
  -3786998.585 9  -2931777.62347  23014608.683    23014608.9984   23014615.0424
        -0.000          -0.000
  -6141295.590 9  -4590629.20349  20246908.921    20246908.5774   20246914.0834
        -0.000          -0.000
 97  3  8 21 45 29.9990000  0  6  4  9  2 27 26  7                  -0.000425884
 -16011869.557 9 -12459437.21847  22468494.297    22468494.7154   22468500.6034
        -0.000          -0.000
  -9272308.819 8  -5350009.04045  23709604.395    23709604.6634   23709611.2654
        -0.000          -0.000
  -1136416.158 9   -882574.71648  21294568.510    21294568.2174   21294573.2114
        -0.000          -0.000
  10418113.599 9   8117705.82946  22418666.398    22418666.3804   22418672.3994
        -0.000          -0.000
  -3755689.999 9  -2907381.36847  23020566.467    23020566.8434   23020572.9444
        -0.000          -0.000
  -6126487.206 9  -4579090.19949  20249726.813    20249726.4964   20249731.9674
        -0.000          -0.000
 97  3  8 21 45 59.9990000  0  6  4  9  2 27 26  7                  -0.000432236
 -16117666.236 9 -12541876.12147  22448361.750    22448362.1734   22448368.0424
        -0.000          -0.000
  -9377790.907 8  -5432202.76845  23689531.675    23689531.7194   23689538.4854
        -0.000          -0.000
  -1126535.217 9   -874875.28248  21296448.859    21296448.5454   21296453.4234
        -0.000          -0.000
  10509656.914 9   8189038.26346  22436086.496    22436086.4514   22436092.5284
        -0.000          -0.000
  -3723996.623 9  -2882685.26347  23026597.501    23026597.8784   23026604.0664
        -0.000          -0.000
  -6111334.162 9  -4567282.62349  20252610.360    20252610.0204   20252615.4554
        -0.000          -0.000
 97  3  8 21 46 29.9990000  0  6  4  9  2 27 26  7                  -0.000438605
 -16223237.968 9 -12624139.74247  22428271.933    22428272.4214   22428278.2814
        -0.000          -0.000
  -9483126.273 8  -5514282.19245  23669487.116    23669486.7854   23669493.4064
        -0.000          -0.000
  -1116488.562 9   -867046.71848  21298360.693    21298360.3724   21298365.1864
        -0.000          -0.000
  10601481.672 9   8260590.00146  22453560.208    22453560.1944   22453566.2824
        -0.000          -0.000
  -3691904.421 9  -2857678.37947  23032704.543    23032704.9404   23032711.0474
        -0.000          -0.000
  -6095825.293 9  -4555197.78549  20255561.647    20255561.3064   20255566.7154
        -0.000          -0.000
 97  3  8 21 46 59.9990000  0  6  4  9  2 27 26  7                  -0.000444993
 -16328590.540 9 -12706232.59647  22408223.926    22408224.4004   22408230.2154
        -0.000          -0.000
  -9588312.807 8  -5596245.65045  23649470.817    23649470.4824   23649476.6834
        -0.000          -0.000
  -1106261.563 9   -859077.62748  21300306.833    21300306.4954   21300311.3404
        -0.000          -0.000
  10693580.246 9   8332355.09346  22471085.997    22471085.9914   22471092.1544
        -0.000          -0.000
  -3659432.527 9  -2832375.63547  23038883.798    23038884.2024   23038890.2514
        -0.000          -0.000
  -6079955.896 9  -4542832.01849  20258581.518    20258581.1564   20258586.5644
        -0.000          -0.000
 97  3  8 21 47 29.9990000  0  6  4  9  2 27 26  7                  -0.000451403
 -16433722.156 9 -12788153.25947  22388217.941    22388218.4194   22388224.1794
        -0.000          -0.000
  -9693366.332 9  -5678105.43945  23629479.807    23629479.5614   23629485.6454
        -0.000          -0.000
  -1095862.078 9   -850974.13248  21302285.681    21302285.3454   21302290.3224
        -0.000          -0.000
  10785927.011 9   8404313.57246  22488659.143    22488659.1264   22488665.2934
        -0.000          -0.000
  -3626617.266 9  -2806805.32747  23045128.412    23045128.7994   23045134.8564
        -0.000          -0.000
  -6063757.438 9  -4530209.84049  20261663.994    20261663.6324   20261669.0454
        -0.000          -0.000
 97  3  8 21 47 59.9990000  0  6  4  9  2 27 26  7                  -0.000457808
 -16538615.750 9 -12869888.45447  22368257.295    22368257.7684   22368263.4584
        -0.000          -0.000
  -9798275.146 9  -5759852.45945  23609516.404    23609516.2324   23609522.2004
        -0.000          -0.000
  -1085277.134 9   -842726.12548  21304299.749    21304299.4414   21304304.6074
        -0.000          -0.000
  10878531.153 9   8476472.61747  22506281.230    22506281.2254   22506287.3584
        -0.000          -0.000
  -3593471.021 9  -2780977.11546  23051435.950    23051436.3134   23051442.3304
        -0.000          -0.000
  -6047251.992 9  -4517348.44749  20264804.897    20264804.5584   20264809.9344
        -0.000          -0.000
 97  3  8 21 48 29.9990000  0  6  4  9  2 27 26  7                  -0.000464203
 -16643258.564 9 -12951428.24247  22348344.442    22348344.8934   22348350.5244
        -0.000          -0.000
  -9903026.737 9  -5841476.99245  23589582.824    23589582.7124   23589588.6824
        -0.000          -0.000
  -1074486.289 9   -834317.67048  21306353.055    21306352.7694   21306358.1354
        -0.000          -0.000
  10971398.580 9   8548836.81847  22523953.466    22523953.4924   22523959.5274
        -0.000          -0.000
  -3559991.757 9  -2754889.40046  23057806.857    23057807.2324   23057813.2114
        -0.000          -0.000
  -6030431.127 9  -4504241.27049  20268005.787    20268005.4424   20268010.7944
        -0.000          -0.000
 97  3  8 21 48 59.9990000  0  6  4  9  2 27 26  7                  -0.000470593
 -16747668.451 9 -13032786.52547  22328475.941    22328476.3474   22328481.9474
        -0.000          -0.000
 -10007627.011 8  -5922983.63045  23569677.851    23569677.9014   23569683.9034
        -0.000          -0.000
  -1063520.298 9   -825772.73848  21308439.714    21308439.4244   21308444.9964
        -0.000          -0.000
  11064527.253 9   8621404.56947  22541675.391    22541675.4124   22541681.3834
        -0.000          -0.000
  -3526192.203 9  -2728552.10946  23064238.747    23064239.1294   23064245.2104
        -0.000          -0.000
  -6013304.558 9  -4490895.88249  20271264.876    20271264.5254   20271269.8354
        -0.000          -0.000
 97  3  8 21 49 29.9990000  0  6  4  9  2 27 26  7                  -0.000476968
 -16851809.343 9 -13113935.20547  22308658.556    22308658.9774   22308664.5344
        -0.000          -0.000
 -10112041.868 8  -6004345.78445  23549808.149    23549808.2384   23549814.4914
        -0.000          -0.000
  -1052363.840 9   -817079.39448  21310562.625    21310562.3454   21310568.0994
        -0.000          -0.000
  11157936.293 9   8694190.79647  22559450.659    22559450.6574   22559456.5814
        -0.000          -0.000
  -3492030.956 9  -2701932.97546  23070739.426    23070739.8294   23070745.9844
        -0.000          -0.000
  -5995841.251 9  -4477288.10349  20274588.084    20274587.7154   20274592.9964
        -0.000          -0.000
 97  3  8 21 49 59.9990000  0  6  4  9  2 27 26  7                  -0.000483332
 -16955681.611 9 -13194874.57447  22288892.244    22288892.6914   22288898.2404
        -0.000          -0.000
 -10216258.995 8  -6085553.87045  23529975.893    23529976.0774   23529982.5684
        -0.000          -0.000
  -1041006.230 9   -808229.30248  21312723.901    21312723.6084   21312729.4614
        -0.000          -0.000
  11251639.007 9   8767205.85647  22577281.734    22577281.7334   22577287.6924
        -0.000          -0.000
  -3457476.053 9  -2675007.09146  23077315.038    23077315.3974   23077321.6374
        -0.000          -0.000
  -5978020.389 9  -4463401.70349  20277979.305    20277978.9274   20277984.1914
        -0.000          -0.000
 97  3  8 21 50 29.9990000  0  6  4  9  2 27 26  7                  -0.000489692
 -17059287.758 9 -13275606.57547  22269176.554    22269176.9804   22269182.5884
        -0.000          -0.000
 -10320275.145 8  -6166605.35145  23510181.911    23510182.2104   23510188.9204
        -0.000          -0.000
  -1029464.818 9   -799235.99348  21314920.149    21314919.8584   21314925.7424
        -0.000          -0.000
  11345631.004 9   8840446.32046  22595167.780    22595167.8004   22595173.7634
        -0.000          -0.000
  -3422521.714 9  -2647769.97546  23083966.561    23083966.9924   23083973.2614
        -0.000          -0.000
  -5959838.144 9  -4449233.71648  20281439.280    20281438.9124   20281444.1354
        -0.000          -0.000
 97  3  8 21 50 59.9990000  0  6  4  9  2 27 26  7                  -0.000496051
 -17162622.207 9 -13356126.87047  22249512.533    22249512.9334   22249518.6944
        -0.000          -0.000
 -10424095.524 8  -6247504.26745  23490425.160    23490425.4174   23490432.5794
        -0.000          -0.000
  -1017728.880 9   -790091.10048  21317153.506    21317153.1824   21317159.0584
        -0.000          -0.000
  11439924.200 9   8913921.50346  22613111.164    22613111.1794   22613117.1984
        -0.000          -0.000
  -3387170.019 9  -2620223.21946  23090693.706    23090694.1254   23090700.3534
        -0.000          -0.000
  -5941286.331 9  -4434777.75548  20284969.594    20284969.2384   20284974.4234
        -0.000          -0.000
 97  3  8 21 51 29.9990000  0  6  4  9  2 27 26  7                  -0.000502428
 -17265726.589 9 -13436467.89947  22229892.256    22229892.6564   22229898.4834
        -0.000          -0.000
 -10527764.221 8  -6328284.97645  23470697.699    23470697.8534   23470705.1204
        -0.000          -0.000
  -1005809.419 9   -780803.20948  21319421.792    21319421.4614   21319427.2594
        -0.000          -0.000
  11534476.792 9   8987598.81746  22631103.877    22631103.9134   22631109.9654
        -0.000          -0.000
  -3351469.862 9  -2592404.94246  23097487.308    23097487.6534   23097493.8744
        -0.000          -0.000
  -5922411.228 9  -4420069.87748  20288561.423    20288561.0514   20288566.2234
        -0.000          -0.000
 97  3  8 21 51 59.9990000  0  6  4  9  2 27 26  7                  -0.000508811
 -17368583.887 9 -13516616.41347  22210319.039    22210319.4864   22210325.3134
        -0.000          -0.000
 -10631276.170 9  -6408943.56045  23451000.140    23451000.3004   23451007.2614
        -0.000          -0.000
   -993692.634 9   -771361.55448  21321727.588    21321727.2754   21321732.9834
        -0.000          -0.000
  11629307.950 9   9061493.19346  22649149.657    22649149.7014   22649155.7244
        -0.000          -0.000
  -3315417.908 9  -2564312.52946  23104347.786    23104348.1134   23104354.4704
        -0.000          -0.000
  -5903212.595 9  -4405109.89548  20292214.823    20292214.4424   20292219.6094
        -0.000          -0.000
 97  3  8 21 52 29.9990000  0  6  4  9  2 27 26  7                  -0.000515210
 -17471200.166 9 -13596577.10847  22190791.800    22190792.2254   22190798.0594
        -0.000          -0.000
 -10734645.227 9  -6489490.78645  23431329.703    23431329.8184   23431336.6724
        -0.000          -0.000
   -981394.169 9   -761778.33148  21324068.035    21324067.7054   21324073.3474
        -0.000          -0.000
  11724397.955 9   9135589.27046  22667244.755    22667244.8234   22667250.8144
        -0.000          -0.000
  -3279038.315 9  -2535964.81746  23111270.595    23111270.9114   23111277.3574
        -0.000          -0.000
  -5883711.550 9  -4389914.26348  20295925.717    20295925.3434   20295930.4914
        -0.000          -0.000
 97  3  8 21 52 59.9990000  0  6  4  9  2 27 26  7                  -0.000521631
 -17573579.151 9 -13676352.89347  22171309.684    22171310.1214   22171315.8864
        -0.000          -0.000
 -10837866.440 9  -6569922.81945  23411687.447    23411687.5264   23411694.1134
        -0.000          -0.000
   -968903.635 9   -752045.44848  21326445.000    21326444.6694   21326450.3024
        -0.000          -0.000
  11819731.117 9   9209874.81746  22685386.175    22685386.2434   22685392.1214
        -0.000          -0.000
  -3242321.343 9  -2507354.21846  23118257.590    23118257.9034   23118264.4834
        -0.000          -0.000
  -5863904.275 9  -4374480.01448  20299694.931    20299694.5544   20299699.6984
        -0.000          -0.000
 97  3  8 21 53 29.9990000  0  6  4  9  2 27 26  7                  -0.000528072
 -17675724.826 9 -13755946.88347  22151871.934    22151872.3884   22151878.0764
        -0.000          -0.000
 -10940929.167 9  -6650231.32345  23392075.178    23392075.3134   23392081.7424
        -0.000          -0.000
   -956251.052 9   -742186.29748  21328852.733    21328852.4134   21328858.0334
        -0.000          -0.000
  11915283.197 9   9284330.94447  22703569.250    22703569.3064   22703575.1164
        -0.000          -0.000
  -3205268.353 9  -2478481.78046  23125308.403    23125308.7824   23125315.4414
        -0.000          -0.000
  -5843815.896 9  -4358826.72548  20303517.610    20303517.2184   20303522.3764
        -0.000          -0.000
 97  3  8 21 53 59.9990000  0  6  4  9  2 27 26  7                  -0.000534519
 -17777611.495 9 -13835339.04347  22132483.532    22132483.9904   22132489.5654
        -0.000          -0.000
 -11043799.271 9  -6730389.75345  23372499.477    23372499.8054   23372506.0824
        -0.000          -0.000
   -943430.409 9   -732196.18848  21331292.449    21331292.1544   21331297.7224
        -0.000          -0.000
  12011074.378 9   9358973.38046  22721797.789    22721797.8274   22721803.6384
        -0.000          -0.000
  -3167851.126 9  -2449325.52147  23132428.704    23132429.1124   23132435.6704
        -0.000          -0.000
  -5823424.516 9  -4342937.34048  20307397.921    20307397.5514   20307402.7494
        -0.000          -0.000
 97  3  8 21 54 29.9990000  0  6  4  9  2 27 26  7                  -0.000540951
 -17879222.088 9 -13914516.07747  22113147.691    22113148.1564   22113153.6464
        -0.000          -0.000
 -11146431.829 9  -6810363.05945  23352969.081    23352969.3364   23352975.7254
        -0.000          -0.000
   -930406.843 9   -722047.96148  21333770.853    21333770.5184   21333776.0324
        -0.000          -0.000
  12107114.832 9   9433810.06046  22740073.707    22740073.7154   22740079.5994
        -0.000          -0.000
  -3130041.063 9  -2419863.17647  23139623.865    23139624.2114   23139630.6464
        -0.000          -0.000
  -5802700.207 9  -4326788.53049  20311341.552    20311341.2014   20311346.4504
        -0.000          -0.000
 97  3  8 21 54 59.9990000  0  6  4  9  2 27 26  7                  -0.000547365
 -17980558.356 9 -13993479.35947  22093864.074    22093864.4864   22093869.8964
        -0.000          -0.000
 -11248827.265 8  -6890151.63045  23333483.846    23333484.0664   23333490.4164
        -0.000          -0.000
   -917175.914 9   -711738.15248  21336288.621    21336288.2954   21336293.8084
        -0.000          -0.000
  12203397.469 9   9508835.44946  22758395.594    22758395.6804   22758401.6084
        -0.000          -0.000
  -3091856.854 9  -2390109.28347  23146890.147    23146890.5314   23146896.9484
        -0.000          -0.000
  -5781655.348 9  -4310389.93349  20315346.226    20315345.8694   20315351.1464
        -0.000          -0.000
 97  3  8 21 55 29.9990000  0  6  4  9  2 27 26  7                  -0.000553759
 -18081636.249 9 -14072241.31947  22074629.570    22074629.9824   22074635.3744
        -0.000          -0.000
 -11351019.032 8  -6969781.49745  23314037.320    23314037.4984   23314043.9794
        -0.000          -0.000
   -903752.375 9   -701278.26548  21338843.051    21338842.7274   21338848.2264
        -0.000          -0.000
  12299913.906 9   9584043.04146  22776762.031    22776762.0864   22776768.0964
        -0.000          -0.000
  -3053352.907 9  -2360106.23447  23154217.272    23154217.6594   23154224.1284
        -0.000          -0.000
  -5760332.462 9  -4293774.68549  20319403.822    20319403.4804   20319408.7734
        -0.000          -0.000
 97  3  8 21 55 59.9990000  0  6  4  9  2 27 26  7                  -0.000560133
 -18182440.482 9 -14150790.03547  22055447.057    22055447.5114   22055452.9404
        -0.000          -0.000
 -11452998.939 8  -7049246.30945  23294630.872    23294631.0234   23294637.6234
        -0.000          -0.000
   -890097.329 9   -690637.97548  21341441.504    21341441.1784   21341446.6364
        -0.000          -0.000
  12396675.445 9   9659441.61246  22795174.985    22795175.0004   22795181.2304
        -0.000          -0.000
  -3014522.351 9  -2329848.68747  23161606.408    23161606.8134   23161613.4304
        -0.000          -0.000
  -5738706.743 9  -4276923.46949  20323519.100    20323518.7314   20323524.0014
        -0.000          -0.000
 97  3  8 21 56 29.9990000  0  6  4  9  2 27 26  7                  -0.000566502
 -18282967.163 9 -14229122.49247  22036317.332    22036317.7654   22036323.3924
        -0.000          -0.000
 -11554788.422 8  -7128562.73745  23275260.702    23275260.8534   23275267.6004
        -0.000          -0.000
   -876219.814 9   -679824.33848  21344082.322    21344082.0094   21344087.3994
        -0.000          -0.000
  12493663.411 9   9735016.62446  22813630.986    22813630.9534   22813637.5094
        -0.000          -0.000
  -2975394.907 9  -2299359.80546  23169052.126    23169052.5284   23169059.2174
        -0.000          -0.000
  -5716792.086 9  -4259847.11149  20327689.369    20327688.9744   20327694.1864
        -0.000          -0.000
 97  3  8 21 56 59.9990000  0  6  4  9  2 27 26  7                  -0.000572858
 -18383192.399 9 -14307220.05347  22017244.983    22017245.3694   22017251.1484
        -0.000          -0.000
 -11656388.589 8  -7207731.64145  23255926.765    23255926.7784   23255933.4924
        -0.000          -0.000
   -862120.300 9   -668837.71148  21346765.394    21346765.0624   21346770.4424
        -0.000          -0.000
  12590906.022 9   9810790.05746  22832135.559    22832135.6114   22832142.1224
        -0.000          -0.000
  -2935962.865 9  -2268633.57246  23176555.929    23176556.2844   23176562.8654
        -0.000          -0.000
  -5694582.345 9  -4242540.82149  20331915.713    20331915.3284   20331920.5194
        -0.000          -0.000
 97  3  8 21 57 29.9990000  0  6  4  9  2 27 26  7                  -0.000579219
 -18483137.628 9 -14385099.42747  21998225.916    21998226.2854   21998232.1704
        -0.000          -0.000
 -11757809.326 8  -7286760.69445  23236627.099    23236627.0184   23236633.7544
        -0.000          -0.000
   -847836.755 9   -657707.68948  21349483.463    21349483.1304   21349488.5184
        -0.000          -0.000
  12688384.257 9   9886747.08046  22850685.002    22850685.0704   22850691.6824
        -0.000          -0.000
  -2896231.802 9  -2237674.32446  23184116.516    23184116.8504   23184123.4104
        -0.000          -0.000
  -5672089.787 9  -4225014.15149  20336195.882    20336195.5054   20336200.7184
        -0.000          -0.000
 97  3  8 21 57 59.9990000  0  6  4  9  2 27 26  7                  -0.000585577
 -18582772.354 9 -14462736.84347  21979265.994    21979266.3814   21979272.2764
        -0.000          -0.000
 -11859012.121 9  -7365619.95445  23217369.185    23217369.0104   23217375.4174
        -0.000          -0.000
   -833365.194 9   -646431.15748  21352237.288    21352236.9644   21352242.3644
        -0.000          -0.000
  12786120.572 9   9962905.19046  22869283.596    22869283.6444   22869290.3034
        -0.000          -0.000
  -2856153.635 9  -2206444.60046  23191743.081    23191743.4514   23191750.0634
        -0.000          -0.000
  -5649278.150 9  -4207238.84449  20340536.827    20340536.4304   20340541.6744
        -0.000          -0.000
 97  3  8 21 58 29.9990000  0  6  4  9  2 27 26  7                  -0.000591929
 -18682106.804 9 -14540140.26947  21960363.286    21960363.6674   21960369.4264
        -0.000          -0.000
 -11960002.213 9  -7444313.45245  23198151.600    23198151.4434   23198157.5434
        -0.000          -0.000
   -818735.821 9   -635031.65548  21355021.146    21355020.8174   21355026.2314
        -0.000          -0.000
  12884111.309 9  10039261.55946  22887930.708    22887930.7554   22887937.3314
        -0.000          -0.000
  -2815741.236 9  -2174954.42946  23199433.332    23199433.7174   23199440.2654
        -0.000          -0.000
  -5626170.232 9  -4189232.67049  20344934.102    20344933.7254   20344939.0174
        -0.000          -0.000
 97  3  8 21 58 59.9990000  0  6  4  9  2 27 26  7                  -0.000598269
 -18781154.417 9 -14617320.18347  21941515.223    21941515.5954   21941521.1684
        -0.000          -0.000
 -12060768.087 9  -7522832.23245  23178976.665    23178976.5294   23178982.4234
        -0.000          -0.000
   -803949.916 9   -623510.17648  21357834.792    21357834.4594   21357839.8564
        -0.000          -0.000
  12982359.910 9  10115818.85646  22906626.914    22906626.9824   22906633.3414
        -0.000          -0.000
  -2774984.694 9  -2143196.10946  23207189.017    23207189.4174   23207195.9874
        -0.000          -0.000
  -5602762.993 9  -4170993.25749  20349388.327    20349387.9524   20349393.2714
        -0.000          -0.000
 97  3  8 21 59 29.9990000  0  7  4  9  2 27 26 24  7               -0.000604522
 -18879903.012 9 -14694267.09247  21922724.020    21922724.4244   21922729.7474
        -0.000          -0.000
 -12161285.047 9  -7601157.05945  23159848.923    23159848.7114   23159854.5404
        -0.000          -0.000
   -788978.091 9   -611843.82648  21360683.807    21360683.4674   21360688.8874
        -0.000          -0.000
  13080863.320 9  10192574.70946  22925371.595    22925371.5554   22925377.8314
        -0.000          -0.000
  -2733882.527 9  -2111168.46646  23215010.556    23215010.9624   23215017.3844
        -0.000          -0.000
  -4633868.54918  -3310826.80055  24372901.145    24372901.1725   24372910.9945
        -0.000          -0.000
  -5579035.785 9  -4152504.52749  20353903.394    20353903.0364   20353908.3564
        -0.000          -0.000
 97  3  8 21 59 59.9990000  0  7  4  9  2 27 26 24  7               -0.000610868
 -18978366.641 9 -14770991.94347  21903986.978    21903987.3864   21903992.5314
        -0.000          -0.000
 -12261574.002 9  -7679304.21046  23140764.632    23140764.4024   23140770.0484
        -0.000          -0.000
   -773810.110 9   -600024.62248  21363570.175    21363569.8384   21363575.2454
        -0.000          -0.000
  13179591.784 9  10269505.93946  22944158.986    22944159.0794   22944165.2074
        -0.000          -0.000
  -2692462.746 9  -2078893.33046  23222892.463    23222892.8364   23222899.2284
        -0.000          -0.000
  -4752333.751 9  -3403137.13545  24350358.122    24350358.0874   24350367.7374
        -0.000          -0.000
  -5555005.708 9  -4133779.79449  20358476.152    20358475.7914   20358481.0954
        -0.000          -0.000
 97  3  8 22  0 29.9990000  0  7  4  9  2 27 26 24  7               -0.000617216
 -19076532.871 9 -14847485.04847  21885306.536    21885306.9584   21885312.0784
        -0.000          -0.000
 -12361631.001 9  -7757270.63446  23121724.400    23121724.2634   23121729.8204
        -0.000          -0.000
   -758417.400 9   -588030.30448  21366499.301    21366498.9804   21366504.3174
        -0.000          -0.000
  13278531.326 9  10346601.64146  22962986.537    22962986.5554   22962992.8184
        -0.000          -0.000
  -2650737.813 9  -2046380.42146  23230832.337    23230832.7494   23230839.2504
        -0.000          -0.000
  -4870848.493 9  -3495486.10145  24327805.693    24327805.7104   24327815.0394
        -0.000          -0.000
  -5530661.838 9  -4114810.54449  20363108.609    20363108.2634   20363113.5474
        -0.000          -0.000
 97  3  8 22  0 59.9990000  0  7  4  9  2 27 26 24  7               -0.000623563
 -19174397.714 9 -14923743.31147  21866683.469    21866683.8904   21866689.0564
        -0.000          -0.000
 -12461456.618 9  -7835056.75646  23102728.039    23102728.0044   23102733.5784
        -0.000          -0.000
   -742775.208 9   -575841.58348  21369475.933    21369475.6104   21369480.8164
        -0.000          -0.000
  13377673.059 8  10423854.90946  22981852.336    22981852.4654   22981858.8864
        -0.000          -0.000
  -2608712.084 9  -2013633.13746  23238829.514    23238829.9834   23238836.5524
        -0.000          -0.000
  -4989398.838 9  -3587862.80345  24305246.463    24305246.4184   24305255.4604
        -0.000          -0.000
  -5505999.459 9  -4095593.10449  20367801.687    20367801.3354   20367806.6724
        -0.000          -0.000
 97  3  8 22  1 29.9990000  0  7  4  9  2 27 26 24  7               -0.000640904
 -19271956.354 9 -14999762.98247  21848118.654    21848119.0824   21848124.2804
        -0.000          -0.000
 -12561061.800 9  -7912671.13846  23083773.621    23083773.6964   23083779.3804
        -0.000          -0.000
   -726889.358 9   -563462.99348  21372498.855    21372498.5274   21372503.7064
        -0.000          -0.000
  13476997.914 9  10501250.85546  23000753.092    23000753.2004   23000759.9084
        -0.000          -0.000
  -2566400.012 9  -1980662.72146  23246881.362    23246881.8094   23246888.3764
        -0.000          -0.000
  -5107976.810 9  -3680261.03045  24282681.692    24282681.8794   24282690.5934
        -0.000          -0.000
  -5481028.633 9  -4076135.31449  20372553.473    20372553.1154   20372558.4994
        -0.000          -0.000
 97  3  8 22  1 59.9990000  0  7  4  9  2 27 26 24  7               -0.000647231
 -19369205.350 9 -15075541.37747  21829612.849    21829613.2834   21829618.4844
        -0.000          -0.000
 -12660468.527 9  -7990130.87046  23064856.996    23064857.0624   23064862.6614
        -0.000          -0.000
   -710781.100 9   -550911.10148  21375564.063    21375563.7754   21375569.0104
        -0.000          -0.000
  13576501.289 9  10578785.90946  23019687.915    23019688.0214   23019694.9914
        -0.000          -0.000
  -2523813.674 9  -1947478.59046  23254985.376    23254985.7884   23254992.3334
        -0.000          -0.000
  -5226585.904 9  -3772683.53345  24260111.024    24260111.2254   24260119.7024
        -0.000          -0.000
  -5455776.521 9  -4056458.34249  20377358.753    20377358.3984   20377363.8304
        -0.000          -0.000
 97  3  8 22  2 29.9990000  0  7  4  9  2 27 26 24  7               -0.000653569
 -19466129.622 9 -15151066.73847  21811168.786    21811169.2224   21811174.4734
        -0.000          -0.000
 -12759678.326 9  -8067437.17046  23045977.982    23045978.0614   23045983.5894
        -0.000          -0.000
   -694460.024 9   -538193.38148  21378669.826    21378669.5454   21378674.7854
        -0.000          -0.000
  13676209.277 9  10656480.39946  23038661.923    23038662.0364   23038669.0464
        -0.000          -0.000
  -2480949.109 9  -1914077.66146  23263142.326    23263142.6814   23263149.2584
        -0.000          -0.000
  -5345214.730 9  -3865121.46145  24237536.632    24237536.6634   24237545.1014
        -0.000          -0.000
  -5430242.543 9  -4036561.73749  20382217.688    20382217.3354   20382222.7454
        -0.000          -0.000
 97  3  8 22  2 59.9990000  0  7  4  9  2 27 26 24  7               -0.000659911
 -19562728.858 9 -15226338.82848  21792786.561    21792787.0274   21792792.2704
        -0.000          -0.000
 -12858690.480 9  -8144589.46646  23027136.753    23027136.7854   23027142.2884
        -0.000          -0.000
   -677931.162 9   -525313.74648  21381815.126    21381814.8184   21381820.1194
        -0.000          -0.000
  13776142.230 9  10734350.19446  23057678.757    23057678.8704   23057685.7424
        -0.000          -0.000
  -2437797.482 9  -1880453.05246  23271353.745    23271354.1774   23271360.7134
        -0.000          -0.000
  -5463859.740 9  -3957571.97845  24214959.025    24214959.0044   24214967.6154
        -0.000          -0.000
  -5404430.148 9  -4016448.18349  20387129.634    20387129.2944   20387134.6274
        -0.000          -0.000
 97  3  8 22  3 29.9990000  0  7  4  9  2 27 26 24  7               -0.000666259
 -19658990.527 9 -15301347.88648  21774468.598    21774469.0494   21774474.3404
        -0.000          -0.000
 -12957491.375 9  -8221577.11946  23008335.604    23008335.6014   23008341.1394
        -0.000          -0.000
   -661205.348 9   -512280.64748  21384997.867    21384997.5744   21385002.9214
        -0.000          -0.000
  13876309.837 9  10812402.81646  23076740.250    23076740.3854   23076747.1804
        -0.000          -0.000
  -2394342.215 9  -1846591.84746  23279622.964    23279623.4624   23279630.0484
        -0.000          -0.000
  -5582506.093 9  -4050023.53045  24192381.136    24192381.1044   24192389.8864
        -0.000          -0.000
  -5378330.016 9  -3996110.41649  20392096.316    20392095.9664   20392101.2794
        -0.000          -0.000
 97  3  8 22  3 59.9990000  0  7  4  9  2 27 26 24  7               -0.000672601
 -19754901.334 9 -15376083.53348  21756217.370    21756217.7944   21756223.1274
        -0.000          -0.000
 -13056062.382 9  -8298385.62746  22989578.051    22989578.0574   22989583.7494
        -0.000          -0.000
   -644267.978 9   -499082.69748  21388220.857    21388220.6034   21388226.0104
        -0.000          -0.000
  13976721.923 9  10890645.94746  23095848.208    23095848.2964   23095855.0164
        -0.000          -0.000
  -2350557.328 9  -1812473.78946  23287955.101    23287955.5434   23287962.0614
        -0.000          -0.000
  -5701131.635 9  -4142458.87945  24169807.277    24169807.1514   24169816.0274
        -0.000          -0.000
  -5351933.042 9  -3975541.34049  20397119.500    20397119.1684   20397124.5064
        -0.000          -0.000
 97  3  8 22  4 29.9990000  0  7  4  9  2 27 26 24  7               -0.000678944
 -19850481.749 9 -15450561.72648  21738028.947    21738029.3954   21738034.7994
        -0.000          -0.000
 -13154393.728 9  -8375007.40646  22970866.180    22970866.1514   22970871.9924
        -0.000          -0.000
   -627125.564 9   -485724.97748  21391482.940    21391482.6854   21391488.1354
        -0.000          -0.000
  14077352.440 9  10969059.29146  23114997.626    23114997.7004   23115004.3444
        -0.000          -0.000
  -2306443.229 9  -1778099.20446  23296349.880    23296350.3024   23296356.7334
        -0.000          -0.000
  -5819748.876 8  -4234887.76445  24147234.978    24147234.8784   24147243.6324
        -0.000          -0.000
  -5325233.360 9  -3954736.38749  20402200.286    20402199.9614   20402205.3224
        -0.000          -0.000
 97  3  8 22  4 59.9990000  0  7  4  9  2 27 26 24  7               -0.000685290
 -19945740.826 9 -15524789.52748  21719901.696    21719902.1554   21719907.5744
        -0.000          -0.000
 -13252473.094 9  -8451432.82246  22952202.365    22952202.2414   22952208.0214
        -0.000          -0.000
   -609779.914 9   -472208.89448  21394783.731    21394783.4804   21394788.9314
        -0.000          -0.000
  14178170.211 9  11047618.55546  23134182.637    23134182.6794   23134189.2444
        -0.000          -0.000
  -2262006.956 9  -1743473.56546  23304805.886    23304806.2794   23304812.7504
        -0.000          -0.000
  -5938364.711 8  -4327315.55245  24124662.875    24124662.7434   24124671.4704
        -0.000          -0.000
  -5298232.410 9  -3933696.67849  20407338.453    20407338.1244   20407343.4654
        -0.000          -0.000
 97  3  8 22  5 29.9990000  0  7  4  9  2 27 26 24  7               -0.000691638
 -20040681.485 9 -15598769.22248  21701835.051    21701835.4924   21701840.9014
        -0.000          -0.000
 -13350293.724 9  -8527656.63646  22933587.600    22933587.5984   22933593.3704
        -0.000          -0.000
   -592229.037 9   -458532.89248  21398123.566    21398123.2884   21398128.6894
        -0.000          -0.000
  14279155.450 9  11126308.30946  23153399.369    23153399.4654   23153406.0444
        -0.000          -0.000
  -2217257.805 9  -1708604.11346  23313321.434    23313321.8134   23313328.1904
        -0.000          -0.000
  -6056983.021 8  -4419745.30045  24102090.431    24102090.2614   24102098.9304
        -0.000          -0.000
  -5270946.675 9  -3912435.06149  20412530.754    20412530.3994   20412535.6994
        -0.000          -0.000
 97  3  8 22  5 59.9990000  0  7  4  9  2 27 26 24  7               -0.000697989
 -20135300.429 9 -15672498.22347  21683829.605    21683830.0474   21683835.3994
        -0.000          -0.000
 -13447864.291 9  -8603685.57946  22915020.493    22915020.4524   22915026.2454
        -0.000          -0.000
   -574454.887 9   -444682.91048  21401505.928    21401505.6364   21401510.9554
        -0.000          -0.000
  14380305.560 9  11205126.54545  23172647.563    23172647.6004   23172654.1614
        -0.000          -0.000
  -2172215.567 9  -1673506.29646  23321892.730    23321893.0694   23321899.3924
        -0.000          -0.000
  -6175618.593 8  -4512188.45045  24079514.344    24079514.2314   24079523.2684
        -0.000          -0.000
  -5243383.875 9  -3890957.55049  20417775.743    20417775.3784   20417780.6994
        -0.000          -0.000
 97  3  8 22  6 29.9990000  0  7  4  9  2 27 26 24  7               -0.000704336
 -20229603.491 9 -15745981.09147  21665884.296    21665884.7604   21665890.0304
        -0.000          -0.000
 -13545192.252 9  -8679525.47846  22896499.446    22896499.4344   22896505.2264
        -0.000          -0.000
   -556455.826 9   -430657.67248  21404931.113    21404930.8054   21404936.0374
        -0.000          -0.000
  14481626.761 8  11284078.09545  23191928.437    23191928.4724   23191934.9854
        -0.000          -0.000
  -2126914.519 9  -1638206.78646  23330513.293    23330513.6024   23330519.8924
        -0.000          -0.000
  -6294287.385 8  -4604657.47445  24056932.230    24056932.1324   24056941.1744
        -0.000          -0.000
  -5215556.049 9  -3869273.51949  20423071.188    20423070.8224   20423076.1734
        -0.000          -0.000
 97  3  8 22  6 59.9990000  0  7  4  9  2 27 26 24  7               -0.000710661
 -20323561.087 9 -15819194.75747  21648004.750    21648005.1684   21648010.3964
        -0.000          -0.000
 -13642264.101 9  -8755165.82046  22878026.974    22878027.0914   22878032.9624
        -0.000          -0.000
   -538218.553 9   -416446.81648  21408401.577    21408401.2824   21408406.4854
        -0.000          -0.000
  14583141.063 8  11363180.09645  23211245.952    23211245.9194   23211252.5064
        -0.000          -0.000
  -2081350.864 9  -1602702.65846  23339183.691    23339184.0294   23339190.4404
        -0.000          -0.000
  -6412959.202 8  -4697128.89945  24034349.660    24034349.4384   24034358.4114
        -0.000          -0.000
  -5187468.800 9  -3847387.33949  20428415.988    20428415.6324   20428420.9784
        -0.000          -0.000
 97  3  8 22  7 29.9990000  0  7  4  9  2 27 26 24  7               -0.000716955
 -20417165.975 9 -15892133.59947  21630192.337    21630192.7594   21630197.9144
        -0.000          -0.000
 -13739078.166 9  -8830605.31046  22859603.765    22859603.8764   22859609.5364
        -0.000          -0.000
   -519744.906 9   -402051.77448  21411917.036    21411916.7684   21411921.9274
        -0.000          -0.000
  14684858.282 8  11442440.20645  23230602.166    23230602.1694   23230608.7304
        -0.000          -0.000
  -2035526.356 9  -1566995.27946  23347903.621    23347904.0734   23347910.7124
        -0.000          -0.000
  -6531620.192 8  -4789591.91845  24011769.316    24011769.0584   24011778.0694
        -0.000          -0.000
  -5159129.948 9  -3825305.10849  20433808.789    20433808.4194   20433813.7064
        -0.000          -0.000
 97  3  8 22  7 59.9990000  0  7  4  9  2 27 26 24  7               -0.000723226
 -20510419.155 9 -15964798.37248  21612446.787    21612447.2144   21612452.3514
        -0.000          -0.000
 -13835642.077 9  -8905849.85946  22841228.155    22841228.2474   22841233.8844
        -0.000          -0.000
   -501056.954 9   -387489.73048  21415473.269    21415472.9874   21415478.0924
        -0.000          -0.000
  14786773.178 8  11521854.34745  23249995.984    23249995.9524   23250002.6404
        -0.000          -0.000
  -1989464.163 9  -1531102.69046  23356668.825    23356669.3544   23356676.0424
        -0.000          -0.000
  -6650280.913 9  -4882054.79246  23989188.986    23989188.7904   23989197.5944
        -0.000          -0.000
  -5130555.434 9  -3803039.23549  20439246.383    20439245.9944   20439251.2624
        -0.000          -0.000
 97  3  8 22  8 29.9990000  0  7  4  9  2 27 26 24  7               -0.000729460
 -20603306.731 9 -16037178.26048  21594770.862    21594771.3114   21594776.4144
        -0.000          -0.000
 -13931927.115 9  -8980877.08146  22822905.664    22822905.7924   22822911.4434
        -0.000          -0.000
   -482161.177 9   -372765.74948  21419069.031    21419068.7374   21419073.8874
        -0.000          -0.000
  14888894.812 9  11601429.58446  23269429.240    23269429.1794   23269435.7594
        -0.000          -0.000
  -1943150.975 9  -1495014.51046  23365481.992    23365482.5134   23365489.1564
        -0.000          -0.000
  -6768918.079 9  -4974499.29946  23966613.208    23966613.0894   23966621.6384
        -0.000          -0.000
  -5101739.975 9  -3780585.61349  20444729.708    20444729.3194   20444734.5764
        -0.000          -0.000
 97  3  8 22  8 59.9990000  0  7  4  9  2 27 26 24  7               -0.000735666
 -20695827.948 9 -16109272.67848  21577164.693    21577165.1294   21577170.2444
        -0.000          -0.000
 -14027928.519 9  -9055683.29746  22804637.264    22804637.3284   22804642.9204
        -0.000          -0.000
   -463078.051 9   -357895.78448  21422700.375    21422700.1234   21422705.3184
        -0.000          -0.000
  14991212.784 9  11681157.81546  23288899.810    23288899.7504   23288906.4574
        -0.000          -0.000
  -1896587.779 9  -1458731.52946  23374342.811    23374343.2794   23374349.7644
        -0.000          -0.000
  -6887528.423 9  -5066922.91946  23944042.412    23944042.3444   23944050.7934
        -0.000          -0.000
  -5072680.636 9  -3757941.95649  20450259.508    20450259.1604   20450264.3994
        -0.000          -0.000
 97  3  8 22  9 29.9990000  0  7  4  9  2 27 26 24  7               -0.000741837
 -20787973.902 9 -16181074.67848  21559629.899    21559630.3284   21559635.4734
        -0.000          -0.000
 -14123641.830 9  -9130265.02546  22786423.658    22786423.6784   22786429.1974
        -0.000          -0.000
   -443784.738 9   -342862.03448  21426371.735    21426371.5024   21426376.7524
        -0.000          -0.000
  15093749.181 9  11761056.24046  23308411.853    23308411.9324   23308418.6214
        -0.000          -0.000
  -1849769.825 9  -1422250.04046  23383252.074    23383252.5104   23383258.8224
        -0.000          -0.000
  -7006096.831 9  -5159313.83246  23921479.456    23921479.4444   23921487.9454
        -0.000          -0.000
  -5043354.764 9  -3735090.61349  20455840.080    20455839.7174   20455844.8854
        -0.000          -0.000
 97  3  8 22  9 59.9990000  0  7  4  9  2 27 26 24  7               -0.000747984
 -20879738.862 9 -16252579.81248  21542167.597    21542168.0474   21542173.2064
        -0.000          -0.000
 -14219072.273 9  -9204626.31746  22768263.754    22768263.8194   22768269.3304
        -0.000          -0.000
   -424277.297 9   -327661.43148  21430083.847    21430083.5924   21430088.8734
        -0.000          -0.000
  15196498.935 8  11841120.93046  23327964.614    23327964.6264   23327971.2274
        -0.000          -0.000
  -1802691.496 9  -1385565.66746  23392210.858    23392211.2594   23392217.4354
        -0.000          -0.000
  -7124627.958 9  -5251675.68846  23898923.730    23898923.7494   23898932.2144
        -0.000          -0.000
  -5013755.873 9  -3712026.53249  20461472.589    20461472.2374   20461477.3694
        -0.000          -0.000
 97  3  8 22 10 29.9990000  0  7  4  9  2 27 26 24  7               -0.000754134
 -20971147.152 9 -16323807.02548  21524773.172    21524773.6294   21524778.8124
        -0.000          -0.000
 -14314241.925 9  -9278784.42446  22750153.632    22750153.6874   22750159.1024
        -0.000          -0.000
   -404577.378 9   -312310.84048  21433832.629    21433832.3774   21433837.6624
        -0.000          -0.000
  15299425.244 8  11921323.20446  23347550.785    23347550.8474   23347557.4224
        -0.000          -0.000
  -1755361.386 9  -1348685.10746  23401217.418    23401217.8144   23401223.9694
        -0.000          -0.000
  -7243125.927 9  -5344011.69046  23876374.289    23876374.3304   23876382.6814
        -0.000          -0.000
  -4983882.454 9  -3688748.53149  20467157.315    20467156.9224   20467162.1114
        -0.000          -0.000
 97  3  8 22 10 59.9990000  0  7  4  9  2 27 26 24  7               -0.000760281
 -21062174.896 9 -16394737.71548  21507451.126    21507451.5614   21507456.8274
        -0.000          -0.000
 -14409131.163 9  -9352724.02446  22732096.818    22732096.9174   22732102.3044
        -0.000          -0.000
   -384648.698 9   -296781.99348  21437624.942    21437624.6714   21437629.9384
        -0.000          -0.000
  15402542.834 9  12001674.49746  23367173.231    23367173.3734   23367180.1414
        -0.000          -0.000
  -1707748.394 9  -1311584.13646  23410277.930    23410278.3014   23410284.3834
        -0.000          -0.000
  -7361560.003 9  -5436297.90145  23853837.128    23853837.1924   23853845.4114
        -0.000          -0.000
  -4953694.317 9  -3665225.28649  20472901.854    20472901.4854   20472906.7544
        -0.000          -0.000
 97  3  8 22 11 29.9990000  0  7  4  9  2 27 26 24  7               -0.000766456
 -21152848.644 9 -16465392.55948  21490196.357    21490196.7874   21490202.1604
        -0.000          -0.000
 -14503778.005 9  -9426474.74646  22714086.119    22714086.1964   22714091.6324
        -0.000          -0.000
   -364502.497 9   -281083.65548  21441458.691    21441458.3674   21441463.6714
        -0.000          -0.000
  15505806.386 9  12082139.54646  23386823.759    23386823.8994   23386830.4774
        -0.000          -0.000
  -1659865.900 9  -1274273.15446  23419389.738    23419390.0934   23419396.2184
        -0.000          -0.000
  -7479966.143 9  -5528562.32045  23831305.374    23831305.4204   23831313.2574
        -0.000          -0.000
  -4923222.106 9  -3641480.69549  20478700.497    20478700.1214   20478705.3924
        -0.000          -0.000
 97  3  8 22 11 59.9990000  0  7  4  9  2 27 26 24  7               -0.000772654
 -21243151.479 9 -16535758.38447  21473012.139    21473012.5634   21473018.1054
        -0.000          -0.000
 -14598147.882 9  -9500009.66846  22696128.119    22696128.2184   22696133.5984
        -0.000          -0.000
   -344126.252 9   -265206.05648  21445336.223    21445335.8534   21445341.1904
        -0.000          -0.000
  15609205.600 9  12162710.27246  23406500.184    23406500.2574   23406506.7074
        -0.000          -0.000
  -1611692.992 9  -1236735.87346  23428556.735    23428557.1674   23428563.2694
        -0.000          -0.000
  -7598336.285 9  -5620798.65045  23808780.348    23808780.3654   23808788.0374
        -0.000          -0.000
  -4892457.349 9  -3617508.15049  20484554.843    20484554.4884   20484559.7044
        -0.000          -0.000
 97  3  8 22 12 29.9990000  0  7  4  9  2 27 26 24  7               -0.000778858
 -21333061.488 9 -16605818.10947  21455902.651    21455903.0684   21455908.7194
        -0.000          -0.000
 -14692218.881 9  -9573311.69146  22678226.902    22678227.0804   22678232.4124
        -0.000          -0.000
   -323491.767 9   -249127.23848  21449262.778    21449262.4454   21449267.8244
        -0.000          -0.000
  15712754.067 9  12243397.30546  23426204.952    23426204.9764   23426211.2954
        -0.000          -0.000
  -1563236.427 9  -1198977.56046  23437777.780    23437778.1944   23437784.2964
        -0.000          -0.000
  -7716648.836 9  -5712990.08745  23786266.041    23786266.1514   23786273.8114
        -0.000          -0.000
  -4861389.270 9  -3593299.25148  20490466.923    20490466.5254   20490471.7404
        -0.000          -0.000
 97  3  8 22 12 59.9990000  0  7  4  9  2 27 26 24  7               -0.000785062
 -21422569.525 9 -16675564.60347  21438869.769    21438870.1994   21438875.8474
        -0.000          -0.000
 -14785995.947 9  -9646384.68046  22660381.691    22660381.8144   22660387.0244
        -0.000          -0.000
   -302584.736 9   -232836.05148  21453241.275    21453240.9704   21453246.3734
        -0.000          -0.000
  15816455.985 9  12324203.91246  23445938.922    23445938.9144   23445945.1484
        -0.000          -0.000
  -1514517.076 9  -1161014.47746  23447048.846    23447049.2754   23447055.3484
        -0.000          -0.000
  -7834912.547 9  -5805143.47946  23763761.210    23763761.3704   23763768.8154
        -0.000          -0.000
  -4830040.228 9  -3568871.41648  20496432.364    20496431.9864   20496437.2354
        -0.000          -0.000
 97  3  8 22 13 29.9990000  0  7  4  9  2 27 26 24  7               -0.000791262
 -21511672.330 9 -16744995.32547  21421914.110    21421914.5374   21421920.0874
        -0.000          -0.000
 -14879475.471 9  -9719225.82846  22642593.118    22642593.2594   22642598.2824
        -0.000          -0.000
   -281416.108 9   -216341.02148  21457269.591    21457269.2924   21457274.7094
        -0.000          -0.000
  15920303.739 9  12405124.15846  23465700.620    23465700.6434   23465706.8654
        -0.000          -0.000
  -1465548.998 9  -1122857.58546  23456367.231    23456367.6144   23456373.8584
        -0.000          -0.000
  -7953129.583 9  -5897260.49746  23741265.190    23741265.2754   23741272.8194
        -0.000          -0.000
  -4798447.087 9  -3544253.37448  20502444.283    20502443.9434   20502449.1804
        -0.000          -0.000
 97  3  8 22 13 59.9990000  0  7  4  9  2 27 26 24  7               -0.000797442
 -21600360.801 9 -16814103.17748  21405037.283    21405037.7014   21405043.1724
        -0.000          -0.000
 -14972645.048 9  -9791825.45246  22624863.493    22624863.6234   22624868.7074
        -0.000          -0.000
   -259989.136 9   -199644.68248  21461346.978    21461346.6694   21461352.1324
        -0.000          -0.000
  16024312.784 9  12486170.09546  23485492.963    23485492.9324   23485499.2754
        -0.000          -0.000
  -1416355.793 9  -1084525.25946  23465728.459    23465728.7944   23465735.1784
        -0.000          -0.000
  -8071281.845 9  -5989327.07146  23718781.435    23718781.5694   23718789.1054
        -0.000          -0.000
  -4766618.908 9  -3519452.19248  20508501.054    20508500.7004   20508505.8634
        -0.000          -0.000
 97  3  8 22 14 29.9990000  0  7  4  9  2 27 26 24  7               -0.000803614
 -21688637.534 9 -16882890.20448  21388238.867    21388239.2904   21388244.6014
        -0.000          -0.000
 -15065531.333 9  -9864204.31746  22607187.756    22607187.7804   22607193.0684
        -0.000          -0.000
   -238323.383 9   -182762.27848  21465469.843    21465469.4954   21465474.9534
        -0.000          -0.000
  16128487.616 9  12567345.22446  23505316.895    23505316.7684   23505323.3104
        -0.000          -0.000
  -1366952.050 9  -1046028.86746  23475129.548    23475129.9364   23475136.3924
        -0.000          -0.000
  -8189371.360 9  -6081344.73646  23696309.599    23696309.6864   23696317.3844
        -0.000          -0.000
  -4734569.396 9  -3494478.54348  20514599.912    20514599.5384   20514604.6534
        -0.000          -0.000
 97  3  8 22 14 59.9990000  0  7  4  9  2 27 26 24  7               -0.000809778
 -21776501.688 9 -16951355.73748  21371518.907    21371519.3554   21371524.5534
        -0.000          -0.000
 -15158126.752 9  -9936356.54146  22589567.298    22589567.4084   22589572.7114
        -0.000          -0.000
   -216430.246 9   -165702.69948  21469635.961    21469635.6304   21469641.0724
        -0.000          -0.000
  16232830.132 8  12648651.00746  23525172.547    23525172.4924   23525179.1604
        -0.000          -0.000
  -1317306.487 9  -1007344.02946  23484576.786    23484577.2154   23484583.7654
        -0.000          -0.000
  -8307399.892 9  -6173314.90546  23673849.272    23673849.3364   23673857.2534
        -0.000          -0.000
  -4702307.380 9  -3469339.30348  20520739.169    20520738.7784   20520743.9074
        -0.000          -0.000
 97  3  8 22 15 29.9990000  0  7  4  9  2 27 26 24  7               -0.000815937
 -21863980.804 9 -17019521.24448  21354872.261    21354872.6594   21354877.7924
        -0.000          -0.000
 -15250437.982 9 -10008287.32646  22572001.020    22572001.1484   22572006.4614
        -0.000          -0.000
   -194334.861 9   -148485.51948  21473840.558    21473840.2404   21473845.6744
        -0.000          -0.000
  16337330.013 8  12730079.43246  23545058.201    23545058.1954   23545064.8114
        -0.000          -0.000
  -1267424.732 9   -968475.15246  23494068.894    23494069.3254   23494076.1084
        -0.000          -0.000
  -8425386.948 9  -6265252.76946  23651396.840    23651396.8004   23651404.9994
        -0.000          -0.000
  -4669840.250 9  -3444040.22548  20526917.324    20526916.9514   20526922.1254
        -0.000          -0.000
 97  3  8 22 15 59.9990000  0  7  4  9  2 27 26 24  7               -0.000822087
 -21951062.791 9 -17087377.31248  21338301.022    21338301.4324   21338306.6184
        -0.000          -0.000
 -15342459.157 9 -10079992.10446  22554489.927    22554490.0624   22554495.4124
        -0.000          -0.000
   -172025.128 9   -131101.32148  21478085.956    21478085.6614   21478091.0904
        -0.000          -0.000
  16442001.450 8  12811641.52346  23564976.447    23564976.4564   23564983.0684
        -0.000          -0.000
  -1217298.765 9   -929415.97646  23503607.595    23503608.0324   23503614.8904
        -0.000          -0.000
  -8543320.981 8  -6357149.33745  23628954.553    23628954.4664   23628962.6594
        -0.000          -0.000
  -4637137.673 9  -3418557.69348  20533140.416    20533140.0734   20533145.2234
        -0.000          -0.000
 97  3  8 22 16 29.9990000  0  7  4  9  2 27 26 24  7               -0.000828233
 -22037756.341 9 -17154930.69748  21321803.659    21321804.0824   21321809.3754
        -0.000          -0.000
 -15434184.940 9 -10151466.67546  22537035.032    22537035.1254   22537040.6004
        -0.000          -0.000
   -149503.093 9   -113551.68548  21482371.809    21482371.4834   21482376.8844
        -0.000          -0.000
  16546829.797 8  12893325.89145  23584924.673    23584924.5864   23584931.2404
        -0.000          -0.000
  -1166913.001 9   -890154.37846  23513195.668    23513196.1034   23513203.0064
        -0.000          -0.000
  -8661213.181 8  -6449013.31245  23606520.146    23606520.2664   23606528.2514
        -0.000          -0.000
  -4604201.134 9  -3392892.86048  20539408.108    20539407.7344   20539412.7934
        -0.000          -0.000
 97  3  8 22 16 59.9990000  0  7  4  9  2 27 26 24  7               -0.000834356
 -22124062.799 9 -17222182.45748  21305380.015    21305380.4324   21305385.8264
        -0.000          -0.000
 -15525591.559 9 -10222692.55546  22519640.864    22519640.9274   22519646.4714
        -0.000          -0.000
   -126750.526 9    -95822.41648  21486701.524    21486701.1964   21486706.5804
        -0.000          -0.000
  16651816.451 8  12975133.60745  23604903.005    23604902.7864   23604909.3914
        -0.000          -0.000
  -1116262.349 9   -850686.36846  23522834.179    23522834.6014   23522841.5544
        -0.000          -0.000
  -8779052.625 8  -6540836.20445  23584095.825    23584096.1304   23584103.8434
        -0.000          -0.000
  -4571010.917 9  -3367030.35348  20545724.052    20545723.6624   20545728.6434
        -0.000          -0.000
 97  3  8 22 17 29.9990000  0  7  4  9  2 27 26 24  7               -0.000840455
 -22209985.888 9 -17289135.49948  21289029.300    21289029.7314   21289035.1704
        -0.000          -0.000
 -15616685.878 9 -10293675.10746  22502306.208    22502306.2884   22502311.6534
        -0.000          -0.000
   -103763.404 9    -77910.38048  21491075.761    21491075.4384   21491080.8744
        -0.000          -0.000
  16756960.229 8  13057063.76245  23624911.222    23624911.1744   23624917.4404
        -0.000          -0.000
  -1065378.606 9   -811036.72046  23532517.095    23532517.3974   23532524.3484
        -0.000          -0.000
  -8896826.207 8  -6632607.75845  23561684.190    23561684.3364   23561692.2164
        -0.000          -0.000
  -4537563.081 9  -3340967.09848  20552088.936    20552088.5554   20552093.5544
        -0.000          -0.000
 97  3  8 22 17 59.9990000  0  7  4  9  2 27 26 24  7               -0.000846544
 -22295510.275 9 -17355777.86148  21272754.492    21272754.9284   21272760.3454
        -0.000          -0.000
 -15707475.685 9 -10364420.36846  22485029.418    22485029.4784   22485034.6904
        -0.000          -0.000
    -80535.280 9    -59810.54448  21495495.898    21495495.5784   21495501.0624
        -0.000          -0.000
  16862244.272 9  13139103.20645  23644946.203    23644946.0544   23644952.0944
        -0.000          -0.000
  -1014266.281 9   -771208.96146  23542243.456    23542243.8134   23542250.5954
        -0.000          -0.000
  -9014527.067 8  -6724322.65245  23539286.287    23539286.4824   23539294.4474
        -0.000          -0.000
  -4503870.588 9  -3314713.19748  20558500.408    20558500.0274   20558505.0634
        -0.000          -0.000
 97  3  8 22 18 29.9990000  0  7  4  9  2 27 26 24  7               -0.000852639
 -22380635.712 9 -17422109.34848  21256555.673    21256556.1224   21256561.4924
        -0.000          -0.000
 -15797973.266 9 -10434937.90646  22467808.177    22467808.2204   22467813.4994
        -0.000          -0.000
    -57070.641 9    -41526.40848  21499961.113    21499960.8174   21499966.2214
        -0.000          -0.000
  16967656.528 9  13221242.53645  23665005.551    23665005.4584   23665011.4434
        -0.000          -0.000
   -962932.490 9   -731208.65946  23552012.089    23552012.4214   23552019.0974
        -0.000          -0.000
  -9132158.122 9  -6815983.13745  23516901.650    23516901.9484   23516909.9834
        -0.000          -0.000
  -4469933.247 9  -3288268.51648  20564958.490    20564958.1164   20564963.0984
        -0.000          -0.000
 97  3  8 22 18 59.9990000  0  7  4  9  2 27 26 24  7               -0.000858740
 -22465348.125 9 -17488118.98348  21240435.468    21240435.9324   21240441.2404
        -0.000          -0.000
 -15888183.640 9 -10505231.64846  22450641.610    22450641.7544   22450646.9364
        -0.000          -0.000
    -33363.827 9    -23053.55948  21504472.429    21504472.1144   21504477.3964
        -0.000          -0.000
  17073207.264 9  13303489.79745  23685091.154    23685091.1234   23685097.0334
        -0.000          -0.000
   -911396.159 9   -691050.51546  23561819.259    23561819.6314   23561826.0624
        -0.000          -0.000
  -9249701.298 9  -6907575.15245  23494533.882    23494533.9934   23494542.0494
        -0.000          -0.000
  -4435746.727 9  -3261629.66948  20571464.044    20571463.6624   20571468.5874
        -0.000          -0.000
 97  3  8 22 19 29.9990000  0  7  4  9  2 27 26 24  7               -0.000864861
 -22549648.326 9 -17553807.40848  21224393.715    21224394.1684   21224399.3674
        -0.000          -0.000
 -15978117.739 9 -10575310.12246  22433527.765    22433527.8724   22433532.9674
        -0.000          -0.000
     -9433.573 9     -4406.60048  21509026.269    21509025.9314   21509031.1224
        -0.000          -0.000
  17178877.975 9  13385830.55345  23705199.650    23705199.7114   23705205.6544
        -0.000          -0.000
   -859678.674 9   -650751.21146  23571660.964    23571661.3884   23571667.6494
        -0.000          -0.000
  -9367169.493 9  -6999108.73545  23472180.320    23472180.3884   23472188.5224
        -0.000          -0.000
  -4401341.155 9  -3234820.12948  20578011.225    20578010.8504   20578015.7324
        -0.000          -0.000
 97  3  8 22 19 59.9990000  0  7  4  9  2 27 26 24  7               -0.000870996
 -22633521.820 9 -17619163.32648  21208433.109    21208433.5774   21208438.6484
        -0.000          -0.000
 -16067746.977 9 -10645151.02546  22416471.871    22416471.9404   22416476.9424
        -0.000          -0.000
     14726.407 9     14419.35748  21513623.773    21513623.4484   21513628.6314
        -0.000          -0.000
  17284670.436 9  13468266.18245  23725331.466    23725331.4444   23725337.3594
        -0.000          -0.000
   -807770.428 9   -610303.28146  23581538.890    23581539.2304   23581545.4444
        -0.000          -0.000
  -9484558.659 9  -7090580.73046  23449841.885    23449841.9724   23449849.9174
        -0.000          -0.000
  -4366705.076 9  -3207830.97148  20584602.215    20584601.8374   20584606.7574
        -0.000          -0.000
 97  3  8 22 20 29.9990000  0  7  4  9  2 27 26 24  7               -0.000877130
 -22716979.139 9 -17684194.94848  21192551.696    21192552.1424   21192557.1314
        -0.000          -0.000
 -16157053.114 9 -10714740.18046  22399477.396    22399477.4354   22399482.4944
        -0.000          -0.000
     39120.357 9     33427.62748  21518265.759    21518265.4554   21518270.6744
        -0.000          -0.000
  17390587.183 9  13550798.65445  23745486.827    23745486.8624   23745492.8794
        -0.000          -0.000
   -755674.737 9   -569709.26646  23591452.314    23591452.6874   23591458.8934
        -0.000          -0.000
  -9601856.059 9  -7181981.21445  23427520.771    23427520.9554   23427528.9644
        -0.000          -0.000
  -4331832.116 9  -3180657.23648  20591238.331    20591237.9434   20591242.9084
        -0.000          -0.000
 97  3  8 22 20 59.9990000  0  7  4  9  2 27 26 24  7               -0.000883246
 -22800027.752 9 -17748908.09448  21176748.047    21176748.4924   21176753.3824
        -0.000          -0.000
 -16246008.927 9 -10784056.34446  22382549.608    22382549.7134   22382554.8624
        -0.000          -0.000
     63749.268 9     52618.98848  21522952.600    21522952.2404   21522957.4504
        -0.000          -0.000
  17496614.575 9  13633417.33645  23765663.161    23765663.1544   23765669.3484
        -0.000          -0.000
   -703401.659 9   -528977.04746  23601399.415    23601399.8214   23601406.2334
        -0.000          -0.000
  -9719069.926 9  -7273316.59345  23405215.700    23405215.7774   23405223.8014
        -0.000          -0.000
  -4296756.346 9  -3153325.46748  20597912.988    20597912.5924   20597917.5814
        -0.000          -0.000
 97  3  8 22 21 29.9990000  0  7  4  9  2 27 26 24  7               -0.000889361
 -22882659.655 9 -17813296.53648  21161023.692    21161024.1284   21161028.9364
        -0.000          -0.000
 -16334605.276 9 -10853092.38946  22365690.201    22365690.3254   22365695.5714
        -0.000          -0.000
     88611.903 9     71992.46348  21527683.754    21527683.3954   21527688.6824
        -0.000          -0.000
  17602734.102 9  13716107.84845  23785857.063    23785856.9944   23785863.5714
        -0.000          -0.000
   -650937.437 9   -488095.87446  23611382.904    23611383.3494   23611390.0824
        -0.000          -0.000
  -9836210.175 9  -7364594.63645  23382924.658    23382924.6784   23382932.5854
        -0.000          -0.000
  -4261477.874 9  -3125835.74848  20604626.268    20604625.8844   20604630.8684
        -0.000          -0.000
 97  3  8 22 21 59.9990000  0  7  4  9  2 27 26 24  7               -0.000895479
 -22964877.773 9 -17877362.55248  21145378.076    21145378.5294   21145383.3214
        -0.000          -0.000
 -16422856.745 9 -10921859.72547  22348896.494    22348896.6104   22348901.8364
        -0.000          -0.000
    113714.876 9     91553.21748  21532460.695    21532460.3384   21532465.6564
        -0.000          -0.000
  17708938.976 9  13798864.83645  23806067.193    23806067.1424   23806073.8434
        -0.000          -0.000
   -598283.211 9   -447066.65846  23621402.648    23621403.0934   23621409.8904
        -0.000          -0.000
  -9953279.047 9  -7455817.07545  23360647.228    23360647.2214   23360654.8284
        -0.000          -0.000
  -4225996.607 9  -3098188.00548  20611378.042    20611377.6604   20611382.6264
        -0.000          -0.000
 97  3  8 22 22 29.9990000  0  7  4  9  2 27 26 24  7               -0.000901597
 -23046653.498 9 -17941083.84848  21129816.644    21129817.0824   21129821.8734
        -0.000          -0.000
 -16510751.784 9 -10990349.31347  22332170.667    22332170.7594   22332175.9654
        -0.000          -0.000
    139076.871 9    111315.80548  21537286.879    21537286.5874   21537291.9344
        -0.000          -0.000
  17815246.437 9  13881701.77945  23826296.865    23826296.8484   23826303.6334
        -0.000          -0.000
   -545416.361 9   -405871.75546  23631462.916    23631463.3184   23631470.1824
        -0.000          -0.000
 -10070253.740 9  -7546966.12246  23338387.778    23338387.7404   23338395.2354
        -0.000          -0.000
  -4190307.240 9  -3070378.10148  20618169.489    20618169.1284   20618174.0774
        -0.000          -0.000
 97  3  8 22 22 59.9990000  0  7  4  9  2 27 26 24  7               -0.000907724
 -23127969.170 9 -18004446.67548  21114342.771    21114343.2154   21114347.9954
        -0.000          -0.000
 -16598298.459 9 -11058567.44047  22315511.074    22315511.1434   22315516.3134
        -0.000          -0.000
    164675.315 9    131262.63948  21542158.132    21542157.8344   21542163.2074
        -0.000          -0.000
  17921671.960 9  13964630.70145  23846549.108    23846548.9984   23846556.0044
        -0.000          -0.000
   -492340.905 9   -364514.27946  23641562.980    23641563.3964   23641570.1634
        -0.000          -0.000
 -10187137.010 9  -7638043.92146  23316145.691    23316145.6484   23316153.0344
        -0.000          -0.000
  -4154405.658 9  -3042402.83748  20625001.371    20625000.9994   20625005.9084
        -0.000          -0.000
 97  3  8 22 23 29.9990000  0  7  4  9  2 27 26 24  7               -0.000913855
 -23208835.427 9 -18067459.31048  21098954.381    21098954.8184   21098959.7084
        -0.000          -0.000
 -16685517.861 9 -11126530.53947  22298913.780    22298913.8734   22298919.0104
        -0.000          -0.000
    190504.449 9    151389.23748  21547073.251    21547072.9224   21547078.3504
        -0.000          -0.000
  18028232.516 9  14047664.83045  23866827.016    23866826.8494   23866833.8754
        -0.000          -0.000
   -439062.938 9   -322999.01046  23651701.479    23651701.9974   23651708.7284
        -0.000          -0.000
 -10303927.485 9  -7729049.41346  23293921.240    23293921.2144   23293928.5714
        -0.000          -0.000
  -4118272.951 9  -3014247.47948  20631877.161    20631876.7994   20631881.7314
        -0.000          -0.000
 97  3  8 22 23 59.9990000  0  7  4  9  2 27 26 24  7               -0.000919965
 -23289249.108 9 -18130119.28948  21083652.124    21083652.5414   21083657.4774
        -0.000          -0.000
 -16772397.151 9 -11194228.64047  22282381.310    22282381.3694   22282386.4534
        -0.000          -0.000
    216580.065 9    171707.88348  21552035.172    21552034.8774   21552040.3944
        -0.000          -0.000
  18134949.484 9  14130820.82945  23887134.720    23887134.6904   23887141.2764
        -0.000          -0.000
   -385589.715 9   -281331.59946  23661877.261    23661877.6734   23661884.3914
        -0.000          -0.000
 -10420597.401 9  -7819960.96246  23271719.723    23271719.7034   23271727.0174
        -0.000          -0.000
  -4081902.650 9  -2985906.97948  20638798.176    20638797.7984   20638802.7544
        -0.000          -0.000
 97  3  8 22 24 29.9990000  0  7  4  9  2 27 26 24  7               -0.000926064
 -23369220.690 9 -18192434.78048  21068434.035    21068434.4464   21068439.3684
        -0.000          -0.000
 -16858940.012 9 -11261664.58647  22265912.729    22265912.7704   22265917.7974
        -0.000          -0.000
    242887.021 9    192206.80048  21557041.228    21557040.9114   21557046.4964
        -0.000          -0.000
  18241804.196 9  14214084.15645  23907468.582    23907468.6744   23907474.9814
        -0.000          -0.000
   -331935.218 9   -239522.92146  23672087.501    23672087.8744   23672094.6474
        -0.000          -0.000
 -10537151.274 9  -7910782.07746  23249540.134    23249540.2094   23249547.5214
        -0.000          -0.000
  -4045303.405 9  -2957388.08448  20645762.755    20645762.4064   20645767.3504
        -0.000          -0.000
 97  3  8 22 24 59.9990000  0  7  4  9  2 27 26 24  7               -0.000932152
 -23448769.197 9 -18254420.60148  21053296.461    21053296.8764   21053301.7824
        -0.000          -0.000
 -16945156.595 9 -11328846.28347  22249506.118    22249506.1674   22249511.2804
        -0.000          -0.000
    269430.012 9    212889.64148  21562092.159    21562091.8444   21562097.4634
        -0.000          -0.000
  18348784.992 8  14297445.72345  23927826.314    23927826.3614   23927832.6134
        -0.000          -0.000
   -278119.635 9   -197588.73446  23682328.328    23682328.6954   23682335.5394
        -0.000          -0.000
 -10653604.136 9  -8001524.45546  23227379.675    23227379.8204   23227387.2144
        -0.000          -0.000
  -4008465.524 9  -2928683.24048  20652772.810    20652772.4634   20652777.3744
        -0.000          -0.000
 97  3  8 22 25 29.9990000  0  7  4  9  2 27 26 24  7               -0.000938224
 -23527875.666 9 -18316061.97448  21038243.020    21038243.4274   21038248.2714
        -0.000          -0.000
 -17031026.279 9 -11395757.69047  22233165.579    22233165.6804   22233170.7864
        -0.000          -0.000
    296258.851 9    233795.21248  21567197.538    21567197.2004   21567202.8284
        -0.000          -0.000
  18455879.501 8  14380895.89345  23948205.783    23948205.7024   23948211.7514
        -0.000          -0.000
   -224130.158 9   -155519.05546  23692602.184    23692602.5634   23692609.5244
        -0.000          -0.000
 -10769938.823 8  -8092174.75746  23205241.664    23205241.8464   23205249.4104
        -0.000          -0.000
  -3971374.374 9  -2899781.04648  20659830.992    20659830.6374   20659835.5514
        -0.000          -0.000
 97  3  8 22 25 59.9990000  0  7  4  9  2 27 26 24  7               -0.000944318
 -23606528.848 9 -18377350.13348  21023275.862    21023276.2894   21023281.0604
        -0.000          -0.000
 -17116561.966 9 -11462408.84147  22216888.677    22216888.7684   22216893.8664
        -0.000          -0.000
    323353.159 9    254907.64648  21572353.395    21572353.0714   21572358.7284
        -0.000          -0.000
  18563050.492 8  14464405.66445  23968599.899    23968599.7344   23968605.7934
        -0.000          -0.000
   -169973.487 9   -113319.09546  23702907.802    23702908.1684   23702915.2384
        -0.000          -0.000
 -10886151.089 9  -8182729.67546  23183127.067    23183127.2964   23183134.8674
        -0.000          -0.000
  -3934048.493 9  -2870695.93948  20666933.835    20666933.4804   20666938.4764
        -0.000          -0.000
 97  3  8 22 26 29.9990000  0  7  4  9  2 27 26 24  7               -0.000950435
 -23684715.398 9 -18438274.67748  21008397.433    21008397.8694   21008402.6394
        -0.000          -0.000
 -17201756.701 9 -11528794.30347  22200676.566    22200676.6324   22200681.8234
        -0.000          -0.000
    350701.557 9    276218.07348  21577557.574    21577557.2484   21577562.9604
        -0.000          -0.000
  18670301.789 8  14547978.04245  23989009.394    23989009.0344   23989015.1004
        -0.000          -0.000
   -115637.702 9    -70979.56146  23713247.566    23713247.9904   23713254.9884
        -0.000          -0.000
 -11002241.923 9  -8273189.98146  23161035.595    23161035.8694   23161043.4824
        -0.000          -0.000
  -3896501.447 9  -2841438.49648  20674078.773    20674078.4334   20674083.4844
        -0.000          -0.000
 97  3  8 22 26 59.9990000  0  7  4  9  2 27 26 24  7               -0.000956569
 -23762432.955 9 -18498833.77748  20993608.274    20993608.6974   20993613.4694
        -0.000          -0.000
 -17286601.269 9 -11594906.92647  22184531.082    22184531.1694   22184536.4314
        -0.000          -0.000
    378292.861 9    297717.78048  21582808.021    21582807.7034   21582813.4074
        -0.000          -0.000
  18777639.957 8  14631618.10945  24009435.399    24009435.1234   24009441.1704
        -0.000          -0.000
    -61125.435 9    -28502.50846  23723621.013    23723621.3594   23723628.3004
        -0.000          -0.000
 -11118210.121 9  -8363554.73246  23138967.454    23138967.7064   23138975.3344
        -0.000          -0.000
  -3858748.712 9  -2812020.78348  20681262.849    20681262.5104   20681267.6024
        -0.000          -0.000
 97  3  8 22 27 29.9990000  0  7  4  9  2 27 26 24  7               -0.000962727
 -23839675.328 9 -18559022.59448  20978909.493    20978909.9134   20978914.7034
        -0.000          -0.000
 -17371095.278 9 -11660746.38447  22168452.346    22168452.4404   22168457.7024
        -0.000          -0.000
    406111.046 9    319394.27947  21588101.602    21588101.2894   21588107.0024
        -0.000          -0.000
  18885059.666 8  14715321.72845  24029876.705    24029876.4124   24029882.6414
        -0.000          -0.000
     -6430.627 9     14116.78346  23734029.130    23734029.5134   23734036.3544
        -0.000          -0.000
 -11234041.674 9  -8453813.02146  23116925.440    23116925.6864   23116933.3474
        -0.000          -0.000
  -3820826.522 9  -2782471.02448  20688479.225    20688478.8644   20688483.9854
        -0.000          -0.000
 97  3  8 22 27 59.9990000  0  7  4  9  2 27 26 24  7               -0.000968898
 -23916458.396 9 -18618853.52548  20964298.108    20964298.5184   20964303.3564
        -0.000          -0.000
 -17455234.863 9 -11726309.68047  22152441.045    22152441.1244   22152446.3964
        -0.000          -0.000
    434138.108 9    341233.53747  21593435.011    21593434.7064   21593440.3194
        -0.000          -0.000
  18992567.769 9  14799094.20645  24050334.738    24050334.7504   24050341.0014
        -0.000          -0.000
     48436.367 9     56870.25146  23744469.995    23744470.3764   23744477.1864
        -0.000          -0.000
 -11349735.257 9  -8543963.81846  23094909.686    23094909.9774   23094917.5654
        -0.000          -0.000
  -3782757.834 9  -2752807.10648  20695723.463    20695723.0994   20695728.2614
        -0.000          -0.000
 97  3  8 22 28 29.9990000  0  7  4  9  2 27 26 24  7               -0.000975065
 -23992805.342 9 -18678344.63148  20949769.660    20949770.0664   20949774.9764
        -0.000          -0.000
 -17539015.951 9 -11791593.61947  22136497.916    22136498.0024   22136503.3544
        -0.000          -0.000
    462379.669 9    363239.93048  21598809.263    21598808.9564   21598814.4604
        -0.000          -0.000
  19100162.117 9  14882933.90845  24070809.212    24070809.2154   24070815.6034
        -0.000          -0.000
    103450.840 9     99738.59846  23754938.818    23754939.2484   23754946.0484
        -0.000          -0.000
 -11465321.143 9  -8634030.66246  23072914.316    23072914.5544   23072922.2774
        -0.000          -0.000
  -3744545.217 9  -2723031.03848  20702995.066    20702994.7254   20702999.9024
        -0.000          -0.000
 97  3  8 22 28 59.9990000  0  7  4  9  2 27 26 24  7               -0.000981229
 -24068730.552 9 -18737507.10248  20935321.379    20935321.8094   20935326.8644
        -0.000          -0.000
 -17622447.338 9 -11856605.04947  22120621.342    22120621.4424   22120626.9144
        -0.000          -0.000
    490854.896 9    385428.41648  21604227.991    21604227.6744   21604233.1034
        -0.000          -0.000
  19207827.056 8  14966828.57245  24091297.055    24091297.1224   24091303.7194
        -0.000          -0.000
    158600.119 9    142712.00546  23765433.361    23765433.7534   23765440.5564
        -0.000          -0.000
 -11580808.822 9  -8724020.98746  23050937.716    23050937.9274   23050945.6874
        -0.000          -0.000
  -3706167.058 9  -2693125.97548  20710298.232    20710297.8894   20710303.0644
        -0.000          -0.000
 97  3  8 22 29 29.9990000  0  7  4  9  2 27 26 24  7               -0.000987392
 -24144221.089 9 -18796330.87448  20920955.822    20920956.2844   20920961.5124
        -0.000          -0.000
 -17705529.820 9 -11921344.59647  22104811.242    22104811.2984   22104816.7694
        -0.000          -0.000
    519582.548 9    407813.59048  21609694.720    21609694.4104   21609699.8044
        -0.000          -0.000
  19315557.696 8  15050774.44845  24111797.417    24111797.6694   24111804.1364
        -0.000          -0.000
    213888.667 9    185793.95146  23775954.384    23775954.7294   23775961.5724
        -0.000          -0.000
 -11696191.057 9  -8813929.14446  23028981.246    23028981.3184   23028989.0564
        -0.000          -0.000
  -3667601.178 9  -2663074.63648  20717637.147    20717636.7884   20717641.9004
        -0.000          -0.000
 97  3  8 22 29 59.9990000  0  7  4  9  2 27 26 24  7               -0.000993563
 -24219257.188 9 -18854800.54048  20906676.811    20906677.2594   20906682.5924
        -0.000          -0.000
 -17788254.126 9 -11985805.05447  22089069.285    22089069.4054   22089074.7484
        -0.000          -0.000
    548564.755 9    430397.12548  21615209.834    21615209.5224   21615214.9124
        -0.000          -0.000
  19423353.797 9  15134771.32045  24132310.266    24132310.3994   24132317.3084
        -0.000          -0.000
    269315.803 9    228983.86846  23786501.775    23786502.0984   23786508.9264
        -0.000          -0.000
 -11811464.739 9  -8903752.72146  23007045.392    23007045.4244   23007053.0804
        -0.000          -0.000
  -3628814.861 9  -2632851.52148  20725017.940    20725017.5794   20725022.6664
        -0.000          -0.000
 97  3  8 22 30 29.9990000  0  7  4  9  2 27 26 24  7               -0.000999749
 -24293823.935 9 -18912904.46448  20892487.157    20892487.6024   20892492.9734
        -0.000          -0.000
 -17870620.632 9 -12049986.70447  22073395.476    22073395.5764   22073400.7934
        -0.000          -0.000
    577794.855 9    453173.81948  21620772.128    21620771.8514   21620777.1534
        -0.000          -0.000
  19531208.236 9  15218813.69245  24152834.331    24152834.0014   24152840.7484
        -0.000          -0.000
    324888.961 9    272287.57246  23797076.938    23797077.3364   23797084.1404
        -0.000          -0.000
 -11926631.210 9  -8993492.74746  22985129.896    22985129.9754   22985137.4514
        -0.000          -0.000
  -3589800.747 9  -2602450.90548  20732442.052    20732441.6894   20732446.7254
        -0.000          -0.000
 97  3  8 22 30 59.9990000  0  6  4  9  2 26 24  7                  -0.001026589
 -24367905.819 9 -18970630.57248  20878389.860    20878390.3214   20878395.6524
        -0.000          -0.000
 -17952621.848 9 -12113883.70847  22057791.243    22057791.2684   22057796.3914
        -0.000          -0.000
    607277.044 9    476146.96048  21626382.433    21626382.1674   21626387.3494
        -0.000          -0.000
    380633.665 9    315724.94046  23807684.875    23807685.2724   23807692.0414
        -0.000          -0.000
 -12041649.868 9  -9083117.61746  22963242.535    22963242.7084   22963249.9674
        -0.000          -0.000
  -3550564.533 9  -2571877.22148  20739908.457    20739908.1204   20739913.1304
        -0.000          -0.000
 97  3  8 22 31 29.9980000  0  6  4  9  2 26 24  7                  -0.001032463
 -24441486.548 9 -19027966.16648  20864388.008    20864388.4444   20864393.6984
        -0.000          -0.000
 -18034242.364 9 -12177484.05547  22042259.400    22042259.4114   22042264.4724
        -0.000          -0.000
    636996.973 9    499305.34447  21632037.938    21632037.6724   21632042.8094
        -0.000          -0.000
    436544.028 9    359291.37746  23818324.471    23818324.7864   23818331.5594
        -0.000          -0.000
 -12156502.725 9  -9172613.28746  22941386.708    22941386.8994   22941394.0914
        -0.000          -0.000
  -3511121.169 9  -2541142.12448  20747414.316    20747413.9844   20747418.9714
        -0.000          -0.000
 97  3  8 22 31 59.9980000  0  6  4  9  2 26 24  7                  -0.001038322
 -24514557.997 9 -19084904.92848  20850483.052    20850483.4804   20850488.6134
        -0.000          -0.000
 -18115444.240 9 -12240758.20447  22026807.241    22026807.2484   22026812.1494
        -0.000          -0.000
    666979.184 9    522668.10547  21637743.411    21637743.1024   21637748.2154
        -0.000          -0.000
    492636.985 9    403000.11946  23828998.703    23828998.9874   23829005.8334
        -0.000          -0.000
 -12271175.095 9  -9261968.30446  22919565.374    22919565.5144   22919572.5154
        -0.000          -0.000
  -3471460.008 9  -2510237.31748  20754961.590    20754961.2394   20754966.2364
        -0.000          -0.000
 97  3  8 22 32 29.9980000  0  6  4  9  2 26 24  7                  -0.001044144
 -24587167.451 9 -19141483.68848  20836666.006    20836666.4364   20836671.4314
        -0.000          -0.000
 -18196260.075 9 -12303731.53947  22011428.525    22011428.5354   22011433.3754
        -0.000          -0.000
    697215.172 9    546228.61747  21643497.153    21643496.8394   21643501.9164
        -0.000          -0.000
    548877.899 9    446824.13346  23839700.943    23839701.3284   23839708.3194
        -0.000          -0.000
 -12385693.306 9  -9351203.21446  22897773.290    22897773.4424   22897780.0424
        -0.000          -0.000
  -3431621.695 9  -2479194.46848  20762542.576    20762542.2014   20762547.2574
        -0.000          -0.000
 97  3  8 22 32 59.9980000  0  6  4  9  2 26 24  7                  -0.001049934
 -24659308.957 9 -19197697.81048  20822937.998    20822938.4294   20822943.3274
        -0.000          -0.000
 -18276692.012 9 -12366405.73847  21996122.696    21996122.7614   21996127.6654
        -0.000          -0.000
    727715.576 9    569995.15447  21649301.134    21649300.8214   21649305.9304
        -0.000          -0.000
    605244.816 9    490746.35446  23850427.320    23850427.7124   23850434.7104
        -0.000          -0.000
 -12500051.387 9  -9440313.32846  22876011.632    22876011.7474   22876018.2154
        -0.000          -0.000
  -3391600.771 9  -2448009.33248  20770158.244    20770157.8594   20770162.9444
        -0.000          -0.000
 97  3  8 22 33 29.9980000  0  6  4  9  2 26 24  7                  -0.001055724
 -24730977.457 9 -19253543.35448  20809299.996    20809300.4114   20809305.2474
        -0.000          -0.000
 -18356745.639 9 -12428785.15047  21980888.997    21980889.0774   21980894.0114
        -0.000          -0.000
    758479.317 9    593966.89447  21655155.270    21655154.9684   21655160.0674
        -0.000          -0.000
    661705.807 9    534741.87846  23861171.572    23861171.9744   23861178.9614
        -0.000          -0.000
 -12614282.194 9  -9529324.27346  22854274.239    22854274.3354   22854280.7624
        -0.000          -0.000
  -3351399.819 9  -2416683.90748  20777808.145    20777807.8034   20777812.9234
        -0.000          -0.000
 97  3  8 22 33 59.9980000  0  6  4  9  2 26 24  7                  -0.001061515
 -24802172.661 9 -19309020.10248  20795752.043    20795752.4504   20795757.2084
        -0.000          -0.000
 -18436432.113 9 -12490878.48047  21965725.144    21965725.2454   21965730.1864
        -0.000          -0.000
    789511.489 9    618147.80447  21661060.519    21661060.2104   21661065.3304
        -0.000          -0.000
    718250.968 9    578802.98546  23871931.778    23871932.1854   23871939.2474
        -0.000          -0.000
 -12728389.763 9  -9618239.19446  22832560.313    22832560.3774   22832566.7294
        -0.000          -0.000
  -3311024.286 9  -2385222.44748  20785491.366    20785491.0144   20785496.1484
        -0.000          -0.000
 97  3  8 22 34 29.9980000  0  6  4  9  2 26 24  7                  -0.001067345
 -24872910.780 9 -19364140.68748  20782291.034    20782291.4194   20782296.1324
        -0.000          -0.000
 -18515792.049 9 -12552717.35747  21950623.399    21950623.4904   21950628.4954
        -0.000          -0.000
    820777.233 9    642510.71347  21667010.212    21667009.8914   21667015.1124
        -0.000          -0.000
    774849.604 9    622905.76246  23882702.160    23882702.6194   23882709.7114
        -0.000          -0.000
 -12842395.404 9  -9707074.68846  22810865.790    22810865.7964   22810872.2474
        -0.000          -0.000
  -3270496.144 9  -2353642.06448  20793203.619    20793203.2454   20793208.3924
        -0.000          -0.000
 97  3  8 22 34 59.9980000  0  6  4  9  2 26 24  7                  -0.001073233
 -24943155.264 9 -19418876.61948  20768923.860    20768924.2634   20768928.9984
        -0.000          -0.000
 -18594795.986 9 -12614278.84347  21935589.376    21935589.4484   21935594.5044
        -0.000          -0.000
    852277.638 9    667056.47548  21673004.513    21673004.2114   21673009.6054
        -0.000          -0.000
    831518.900 9    667063.61546  23893486.070    23893486.6134   23893493.6504
        -0.000          -0.000
 -12956276.241 9  -9795812.92946  22789194.924    22789194.8894   22789201.4674
        -0.000          -0.000
  -3229798.945 9  -2321929.95548  20800948.049    20800947.6734   20800952.7644
        -0.000          -0.000
 97  3  8 22 35 29.9980000  0  6  4  9  2 26 24  7                  -0.001079147
 -25012894.999 9 -19473219.24348  20755652.730    20755653.1604   20755657.9294
        -0.000          -0.000
 -18673427.367 9 -12675550.01247  21920626.145    21920626.2464   21920631.3774
        -0.000          -0.000
    884029.596 9    691798.24548  21679046.654    21679046.3894   21679051.9504
        -0.000          -0.000
    888298.662 9    711307.51846  23904290.982    23904291.4334   23904298.5484
        -0.000          -0.000
 -13070006.305 9  -9884433.70846  22767552.724    22767552.7624   22767559.3514
        -0.000          -0.000
  -3188928.706 9  -2290083.01348  20808725.324    20808724.9504   20808730.0324
        -0.000          -0.000
 97  3  8 22 35 59.9980000  0  6  4  9  2 26 24  7                  -0.001085070
 -25082134.567 9 -19527172.13048  20742476.849    20742477.2624   20742482.0384
        -0.000          -0.000
 -18751680.388 9 -12736526.35447  21905734.996    21905735.1154   21905740.2824
        -0.000          -0.000
    916022.563 9    716727.82048  21685134.718    21685134.4244   21685140.0534
        -0.000          -0.000
    945211.152 9    755654.87346  23915121.157    23915121.6554   23915128.6444
        -0.000          -0.000
 -13183555.136 9  -9972913.26446  22745944.882    22745944.9504   22745951.6884
        -0.000          -0.000
  -3147892.334 9  -2258106.61948  20816534.290    20816533.9334   20816539.0384
        -0.000          -0.000
 97  3  8 22 36 29.9980000  0  6  4  9  2 26 24  7                  -0.001090984
 -25150865.104 9 -19580728.36348  20729397.782    20729398.1874   20729402.9854
        -0.000          -0.000
 -18829533.609 9 -12797191.18047  21890920.125    21890920.1514   21890925.3314
        -0.000          -0.000
    948266.291 9    741852.78548  21691270.408    21691270.1364   21691275.8404
        -0.000          -0.000
   1002282.607 9    800126.08845  23925981.620    23925982.1174   23925989.2424
        -0.000          -0.000
 -13296906.682 9 -10061239.09946  22724374.609    22724374.7434   22724381.6734
        -0.000          -0.000
  -3106678.532 9  -2225991.96448  20824377.030    20824376.6444   20824381.8254
        -0.000          -0.000
 97  3  8 22 36 59.9980000  0  6  4  9  2 26 24  7                  -0.001096882
 -25219097.600 9 -19633896.50948  20716413.500    20716413.9254   20716418.7154
        -0.000          -0.000
 -18906993.491 9 -12857549.48947  21876179.972    21876180.0054   21876185.2014
        -0.000          -0.000
    980759.371 9    767172.04948  21697453.638    21697453.3564   21697459.1104
        -0.000          -0.000
   1059503.725 8    844713.95745  23936870.568    23936871.0294   23936878.1064
        -0.000          -0.000
 -13410061.447 9 -10149411.59946  22702841.932    22702842.0304   22702849.0954
        -0.000          -0.000
  -3065299.166 9  -2193748.29748  20832251.246    20832250.8834   20832256.1484
        -0.000          -0.000
 97  3  8 22 37 29.9980000  0  6  4  9  2 26 24  7                  -0.001102767
 -25286851.962 9 -19686692.08448  20703520.247    20703520.6814   20703525.4454
        -0.000          -0.000
 -18984068.122 9 -12917607.60947  21861513.203    21861513.2594   21861518.3544
        -0.000          -0.000
   1013490.211 9    792676.58548  21703682.120    21703681.8444   21703687.6144
        -0.000          -0.000
   1116849.918 8    889399.25045  23947783.145    23947783.5944   23947790.7704
        -0.000          -0.000
 -13523021.127 9 -10237432.05746  22681346.367    22681346.4014   22681353.6124
        -0.000          -0.000
  -3023768.654 9  -2161386.85748  20840154.296    20840153.9324   20840159.1804
        -0.000          -0.000
 97  3  8 22 37 59.9980000  0  6  4  9  2 26 24  7                  -0.001108659
 -25354122.126 9 -19739110.36048  20690719.145    20690719.5934   20690724.3334
        -0.000          -0.000
 -19060743.544 9 -12977354.66847  21846922.417    21846922.4604   21846927.3804
        -0.000          -0.000
   1046459.095 9    818366.60748  21709955.970    21709955.6604   21709961.4424
        -0.000          -0.000
   1174300.438 8    934165.86045  23958715.556    23958715.9774   23958723.4644
        -0.000          -0.000
 -13635790.105 9 -10325303.92346  22659886.970    22659887.1164   22659894.4134
        -0.000          -0.000
  -2982079.073 9  -2128901.46648  20848087.597    20848087.2194   20848092.4124
        -0.000          -0.000
 97  3  8 22 38 29.9980000  0  6  4  9  2 26 24  7                  -0.001114556
 -25420891.931 9 -19791138.74048  20678013.239    20678013.6894   20678018.4634
        -0.000          -0.000
 -19137010.297 9 -13036783.27747  21832409.327    21832409.3484   21832414.2294
        -0.000          -0.000
   1079691.332 9    844261.84348  21716279.955    21716279.6524   21716285.3454
        -0.000          -0.000
   1231842.677 9    979003.95545  23969665.303    23969665.6864   23969673.4274
        -0.000          -0.000
 -13748374.600 9 -10413032.01847  22638462.855    22638463.0284   22638470.3104
        -0.000          -0.000
  -2940206.757 9  -2096273.69248  20856055.645    20856055.2644   20856060.4394
        -0.000          -0.000
 97  3  8 22 38 59.9980000  0  6  4  9  2 26 24  7                  -0.001120476
 -25487148.411 9 -19842767.13048  20665405.060    20665405.4984   20665410.2144
        -0.000          -0.000
 -19212865.983 9 -13095891.55047  21817974.458    21817974.4504   21817979.3714
        -0.000          -0.000
   1113188.033 9    870363.15648  21722654.233    21722653.9104   21722659.5074
        -0.000          -0.000
   1289464.498 9   1023904.03945  23980630.020    23980630.5654   23980638.4804
        -0.000          -0.000
 -13860775.947 9 -10500617.42247  22617073.633    22617073.8464   22617081.0554
        -0.000          -0.000
  -2898152.831 9  -2063504.40348  20864058.257    20864057.8734   20864063.0464
        -0.000          -0.000
 97  3  8 22 39 29.9980000  0  6  4  9  2 26 24  7                  -0.001126436
 -25552907.572 9 -19894007.99948  20652891.496    20652891.9404   20652896.5804
        -0.000          -0.000
 -19288319.668 9 -13154686.59447  21803616.069    21803616.0714   21803620.9684
        -0.000          -0.000
   1146925.170 9    896651.81848  21729074.200    21729073.9054   21729079.4294
        -0.000          -0.000
   1347148.325 9   1068852.44845  23991606.847    23991607.3564   23991615.2864
        -0.000          -0.000
 -13973026.016 9 -10588084.93547  22595713.175    22595713.3634   22595720.4664
        -0.000          -0.000
  -2855949.610 9  -2030618.77548  20872089.250    20872088.8644   20872094.0964
        -0.000          -0.000
 97  3  8 22 39 59.9980000  0  6  4  9  2 26 24  7                  -0.001132422
 -25618153.749 9 -19944849.13948  20640475.543    20640475.9964   20640480.5844
        -0.000          -0.000
 -19363356.070 9 -13213156.47647  21789337.119    21789337.1264   21789341.9794
        -0.000          -0.000
   1180919.830 9    923141.15848  21735543.191    21735542.8974   21735548.2984
        -0.000          -0.000
   1404914.004 9   1113864.62945  24002599.518    24002600.0154   24002607.9814
        -0.000          -0.000
 -14085118.795 9 -10675429.90047  22574382.721    22574382.9004   22574389.7444
        -0.000          -0.000
  -2813584.266 9  -1997606.82048  20880151.019    20880150.6734   20880155.9624
        -0.000          -0.000
 97  3  8 22 40 29.9980000  0  6  4  9  2 26 24  7                  -0.001138434
 -25682890.993 9 -19995293.70348  20628156.487    20628156.9144   20628161.4894
        -0.000          -0.000
 -19437985.950 9 -13271309.59947  21775135.502    21775135.5574   21775140.3364
        -0.000          -0.000
   1215162.225 9    949823.53447  21742059.372    21742059.0564   21742064.3634
        -0.000          -0.000
   1462760.708 9   1158939.93045  24013607.493    24013607.9454   24013616.0544
        -0.000          -0.000
 -14197051.863 9 -10762650.41747  22553082.605    22553082.7764   22553089.4224
        -0.000          -0.000
  -2771068.334 9  -1964477.52248  20888241.428    20888241.0924   20888246.3774
        -0.000          -0.000
 97  3  8 22 40 59.9980000  0  7  4  9  2 26 24  5  7               -0.001140404
 -25747106.872 9 -20045332.01148  20615936.563    20615937.0044   20615941.5504
        -0.000          -0.000
 -19512182.152 9 -13329124.78247  21761016.407    21761016.4324   21761021.1904
        -0.000          -0.000
   1249670.669 9    976713.23147  21748626.096    21748625.8004   21748631.0874
        -0.000          -0.000
   1520719.308 9   1204102.40445  24024636.693    24024637.1694   24024645.0764
        -0.000          -0.000
 -14308783.566 9 -10849714.01347  22531820.671    22531820.8464   22531827.4524
        -0.000          -0.000
  -5154933.65318  -3784788.57355  24338512.662    24338512.3885   24338519.6855
        -0.000          -0.000
  -2728392.964 9  -1931223.99348  20896362.233    20896361.9304   20896367.1214
        -0.000          -0.000
 97  3  8 22 41 29.9980000  0  7  4  9  2 26 24  5  7               -0.001146704
 -25810818.845 9 -20094977.66848  20603812.561    20603813.0074   20603817.5114
        -0.000          -0.000
 -19585958.174 9 -13386612.56747  21746977.295    21746977.2914   21746982.0554
        -0.000          -0.000
   1284441.617 9   1003807.48547  21755242.766    21755242.4394   21755247.7524
        -0.000          -0.000
   1578776.634 9   1249341.83545  24035684.956    24035685.3714   24035692.6234
        -0.000          -0.000
 -14420304.863 9 -10936613.65347  22510598.723    22510598.9474   22510605.5974
        -0.000          -0.000
  -5247147.13718  -3856643.06945  24320964.704    24320964.5185   24320971.4944
        -0.000          -0.000
  -2685565.531 9  -1897851.97148  20904512.085    20904511.7584   20904516.8404
        -0.000          -0.000
 97  3  8 22 41 59.9980000  0  7  4  9  2 26 24  5  7               -0.001152974
 -25874020.218 9 -20144225.45548  20591785.731    20591786.1834   20591790.6764
        -0.000          -0.000
 -19659325.826 9 -13443782.14147  21733015.833    21733015.8664   21733020.5794
        -0.000          -0.000
   1319482.563 9   1031112.10947  21761910.790    21761910.5134   21761915.8364
        -0.000          -0.000
   1636925.537 9   1294652.59645  24046750.610    24046751.1004   24046757.7754
        -0.000          -0.000
 -14531601.349 9 -11023338.12247  22489419.696    22489419.9084   22489426.5454
        -0.000          -0.000
  -5339386.110 8  -3928517.44545  24303411.865    24303411.6694   24303419.0104
        -0.000          -0.000
  -2642581.609 9  -1864358.00548  20912691.710    20912691.3454   20912696.3864
        -0.000          -0.000
 97  3  8 22 42 29.9980000  0  7  4  9  2 26 24  5  7               -0.001159220
 -25936716.251 9 -20193079.46648  20579855.085    20579855.5224   20579860.0134
        -0.000          -0.000
 -19732288.356 9 -13500636.03547  21719131.517    21719131.5584   21719136.2444
        -0.000          -0.000
   1354794.844 9   1058628.17847  21768630.519    21768630.2014   21768635.5474
        -0.000          -0.000
   1695147.842 9   1340020.55345  24057830.021    24057830.5204   24057836.8454
        -0.000          -0.000
 -14642684.056 9 -11109896.03747  22468281.348    22468281.5224   22468288.1464
        -0.000          -0.000
  -5431659.634 8  -4000418.75345  24285852.711    24285852.6934   24285860.0044
        -0.000          -0.000
  -2599450.503 9  -1830749.34448  20920899.276    20920898.9034   20920904.0114
        -0.000          -0.000
 97  3  8 22 42 59.9980000  0  7  4  9  2 26 24  5  7               -0.001165440
 -25998915.881 9 -20241546.68148  20568018.823    20568019.2474   20568023.7494
        -0.000          -0.000
 -19804839.209 9 -13557169.13947  21705325.467    21705325.5264   21705330.2454
        -0.000          -0.000
   1390383.191 9   1086359.34647  21775402.764    21775402.4334   21775407.8734
        -0.000          -0.000
   1753436.809 9   1385440.45345  24068922.174    24068922.6824   24068928.7924
        -0.000          -0.000
 -14753564.882 9 -11196296.64347  22447181.438    22447181.5794   22447188.2294
        -0.000          -0.000
  -5523965.133 8  -4072345.00145  24268287.285    24268287.4154   24268294.6404
        -0.000          -0.000
  -2556179.134 9  -1797031.39048  20929133.513    20929133.1434   20929138.2624
        -0.000          -0.000
 97  3  8 22 43 29.9980000  0  7  4  9  2 26 24  5  7               -0.001171659
 -26060607.324 9 -20289617.90548  20556279.303    20556279.7144   20556284.2254
        -0.000          -0.000
 -19876975.953 9 -13613379.56847  21691598.222    21691598.2994   21691603.0574
        -0.000          -0.000
   1426236.500 9   1114296.96847  21782225.308    21782224.9694   21782230.6104
        -0.000          -0.000
   1811773.262 9   1430897.37445  24080023.298    24080023.7674   24080029.6544
        -0.000          -0.000
 -14864263.962 9 -11282555.61447  22426116.022    22426116.1734   22426122.8974
        -0.000          -0.000
  -5616319.257 8  -4144309.11245  24250712.723    24250713.0714   24250720.0764
        -0.000          -0.000
  -2512770.053 9  -1763206.13748  20937394.047    20937393.6844   20937398.7284
        -0.000          -0.000
 97  3  8 22 43 59.9980000  0  7  4  9  2 26 24  5  7               -0.001177895
 -26121779.223 9 -20337284.29048  20544638.610    20544639.0434   20544643.5754
        -0.000          -0.000
 -19948687.619 9 -13669258.76447  21677951.906    21677951.9864   21677956.7884
        -0.000          -0.000
   1462353.651 9   1142440.20247  21789098.146    21789097.8124   21789103.5404
        -0.000          -0.000
   1870157.933 9   1476391.88145  24091133.407    24091133.9164   24091139.9834
        -0.000          -0.000
 -14974788.259 9 -11368678.39947  22405083.861    22405084.0534   22405090.7954
        -0.000          -0.000
  -5708738.938 8  -4216324.29845  24233125.834    24233126.1864   24233133.1834
        -0.000          -0.000
  -2469221.987 9  -1729272.58748  20945681.021    20945680.6474   20945685.5994
        -0.000          -0.000
 97  3  8 22 44 29.9980000  0  7  4  9  2 26 24  5  7               -0.001184155
 -26182437.464 9 -20384550.43148  20533095.666    20533096.1244   20533100.6094
        -0.000          -0.000
 -20019970.605 9 -13724803.92447  21664387.186    21664387.2674   21664392.0684
        -0.000          -0.000
   1498728.018 9   1170783.84047  21796019.871    21796019.5604   21796025.3564
        -0.000          -0.000
   1928583.342 9   1521918.09645  24102251.042    24102251.6394   24102258.1744
        -0.000          -0.000
 -15085141.910 9 -11454668.21647  22384084.181    22384084.3014   22384091.0444
        -0.000          -0.000
  -5801230.426 8  -4288395.43045  24215525.143    24215525.5824   24215532.4214
        -0.000          -0.000
  -2425536.329 9  -1695231.82048  20953994.125    20953993.7524   20953998.7024
        -0.000          -0.000
 97  3  8 22 44 59.9980000  0  7  4  9  2 26 24  5  7               -0.001190434
 -26242550.514 9 -20431391.74248  20521656.482    20521656.9134   20521661.4504
        -0.000          -0.000
 -20090821.464 9 -13780012.36447  21650904.657    21650904.7804   21650909.5534
        -0.000          -0.000
   1535365.210 9   1199332.28447  21802991.713    21802991.3934   21802997.2314
        -0.000          -0.000
   1987071.986 8   1567493.60745  24113380.980    24113381.4154   24113388.5284
        -0.000          -0.000
 -15195280.925 9 -11540490.77547  22363125.350    22363125.4614   22363132.1954
        -0.000          -0.000
  -5893789.180 8  -4360518.98545  24197911.600    24197912.0334   24197918.7944
        -0.000          -0.000
  -2381705.161 9  -1661077.66148  20962334.858    20962334.4884   20962339.5274
        -0.000          -0.000
 97  3  8 22 45 29.9980000  0  7  4  9  2 26 24  5  7               -0.001196739
 -26302094.170 9 -20477789.36848  20510325.659    20510326.0874   20510330.6994
        -0.000          -0.000
 -20161242.237 9 -13834885.66747  21637504.034    21637504.0784   21637508.9214
        -0.000          -0.000
   1572272.711 9   1228091.35047  21810014.940    21810014.6614   21810020.5164
        -0.000          -0.000
   2045627.671 8   1613121.33945  24124523.596    24124523.9094   24124531.5124
        -0.000          -0.000
 -15305181.514 9 -11626127.54947  22342211.959    22342212.0194   22342218.7724
        -0.000          -0.000
  -5986430.937 8  -4432707.19745  24180282.554    24180283.1184   24180289.6134
        -0.000          -0.000
  -2337721.245 9  -1626804.48248  20970704.724    20970704.3534   20970709.4364
        -0.000          -0.000
 97  3  8 22 45 59.9980000  0  7  4  9  2 26 24  5  7               -0.001203062
 -26361084.549 9 -20523755.87048  20499100.110    20499100.5584   20499105.2114
        -0.000          -0.000
 -20231259.352 9 -13889444.43047  21624180.141    21624180.2424   21624185.1334
        -0.000          -0.000
   1609440.861 9   1257053.51847  21817087.893    21817087.5954   21817093.3834
        -0.000          -0.000
   2104249.879 8   1658800.93345  24135678.832    24135679.1784   24135687.0334
        -0.000          -0.000
 -15414845.155 9 -11711579.70147  22321343.647    22321343.6864   22321350.4334
        -0.000          -0.000
  -6079162.879 8  -4504965.73145  24162636.356    24162636.5644   24162643.2754
        -0.000          -0.000
  -2293604.257 9  -1592427.61548  20979100.009    20979099.6214   20979104.6434
        -0.000          -0.000
 97  3  8 22 46 29.9980000  0  7  4  9  2 26 24  5  7               -0.001209390
 -26419511.361 9 -20569283.22948  20487981.803    20487982.2454   20487986.9474
        -0.000          -0.000
 -20300861.457 9 -13943679.81347  21610935.280    21610935.4214   21610940.3244
        -0.000          -0.000
   1646879.047 9   1286226.10447  21824212.223    21824211.9024   21824217.6144
        -0.000          -0.000
   2162950.028 8   1704541.24245  24146849.068    24146850.4334   24146857.8954
        -0.000          -0.000
 -15524255.458 9 -11796834.42747  22300523.556    22300523.6084   22300530.3564
        -0.000          -0.000
  -6171964.829 8  -4577278.78545  24144976.743    24144977.0704   24144983.5424
        -0.000          -0.000
  -2249352.962 9  -1557946.09648  20987520.795    20987520.3924   20987525.3444
        -0.000          -0.000
 97  3  8 22 46 59.9980000  0  7  4  9  2 26 24  5  7               -0.001215716
 -26477379.649 9 -20614375.38348  20476969.804    20476970.2884   20476974.9494
        -0.000          -0.000
 -20370042.990 9 -13997587.48247  21597770.465    21597770.5654   21597775.5054
        -0.000          -0.000
   1684586.973 9   1315608.88347  21831387.840    21831387.5154   21831393.2124
        -0.000          -0.000
   2221726.617 8   1750341.14945  24158034.255    24158035.6904   24158043.0944
        -0.000          -0.000
 -15633407.226 9 -11881887.70547  22279752.601    22279752.6384   22279759.4644
        -0.000          -0.000
  -6264820.267 8  -4649633.55645  24127307.067    24127307.3134   24127313.6814
        -0.000          -0.000
  -2204973.032 9  -1523364.33648  20995965.904    20995965.5264   20995970.4804
        -0.000          -0.000
 97  3  8 22 47 29.9980000  0  7  4  9  2 26 24  5  7               -0.001222032
 -26534710.264 9 -20659048.57048  20466060.187    20466060.6214   20466065.2624
        -0.000          -0.000
 -20438784.992 9 -14051152.65647  21584689.251    21584689.3714   21584694.3084
        -0.000          -0.000
   1722555.056 9   1345194.38747  21838612.952    21838612.6634   21838618.2654
        -0.000          -0.000
   2280576.950 8   1796198.49645  24169233.247    24169234.2574   24169242.0594
        -0.000          -0.000
 -15742323.998 9 -11966757.86347  22259026.347    22259026.3674   22259033.3014
        -0.000          -0.000
  -6357699.909 8  -4722007.19745  24109632.751    24109632.8194   24109639.1204
        -0.000          -0.000
  -2160453.163 9  -1488673.53348  21004437.738    21004437.3714   21004442.3084
        -0.000          -0.000
 97  3  8 22 47 59.9980000  0  7  4  9  2 26 24  5  7               -0.001228331
 -26591517.080 9 -20703313.59948  20455250.192    20455250.6454   20455255.2174
        -0.000          -0.000
 -20507071.508 9 -14104362.90947  21571694.792    21571694.8474   21571699.8514
        -0.000          -0.000
   1760776.254 9   1374977.12347  21845886.313    21845885.9974   21845891.5394
        -0.000          -0.000
   2339503.781 8   1842115.46245  24180446.942    24180447.7254   24180455.4574
        -0.000          -0.000
 -15851015.408 9 -12051452.40947  22238342.940    22238342.9964   22238350.0294
        -0.000          -0.000
  -6450580.428 8  -4794381.52245  24091958.277    24091958.1054   24091964.3794
        -0.000          -0.000
  -2115782.010 9  -1453864.84148  21012938.460    21012938.1054   21012943.0134
        -0.000          -0.000
 97  3  8 22 48 29.9980000  0  7  4  9  2 26 24  5  7               -0.001234623
 -26647810.492 9 -20747178.57548  20444537.902    20444538.3414   20444542.8784
        -0.000          -0.000
 -20574890.782 9 -14157209.08247  21558789.144    21558789.2514   21558794.2624
        -0.000          -0.000
   1799248.735 9   1404955.66247  21853207.489    21853207.1594   21853212.6704
        -0.000          -0.000
   2398479.420 8   1888070.42045  24191669.834    24191670.4254   24191678.1044
        -0.000          -0.000
 -15959492.147 9 -12135979.67547  22217700.395    22217700.4864   22217707.5044
        -0.000          -0.000
  -6543466.497 8  -4866760.18145  24074282.589    24074282.3714   24074288.7324
        -0.000          -0.000
  -2070956.489 9  -1418935.87148  21021468.581    21021468.2104   21021473.0974
        -0.000          -0.000
 97  3  8 22 48 59.9980000  0  7  4  9  2 26 24  5  7               -0.001240921
 -26703598.794 9 -20790649.95148  20433921.717    20433922.1604   20433926.7124
        -0.000          -0.000
 -20642251.718 9 -14209698.10247  21545970.756    21545970.8554   21545975.8644
        -0.000          -0.000
   1837959.499 9   1435119.87247  21860573.910    21860573.5604   21860579.1094
        -0.000          -0.000
   2457486.411 8   1934049.79745  24202898.591    24202899.1224   24202906.7444
        -0.000          -0.000
 -16067768.371 9 -12220350.69147  22197096.156    22197096.2004   22197103.1034
        -0.000          -0.000
  -6636375.219 8  -4939156.47645  24056602.336    24056602.2124   24056608.6704
        -0.000          -0.000
  -2025972.111 9  -1383883.11448  21030028.805    21030028.4154   21030033.3754
        -0.000          -0.000
 97  3  8 22 49 29.9980000  0  7  4  9  2 26 24  5  7               -0.001247230
 -26758858.935 9 -20833709.77349  20423406.009    20423406.4704   20423411.0524
        -0.000          -0.000
 -20709153.654 9 -14261829.46747  21533239.766    21533239.8684   21533244.8294
        -0.000          -0.000
   1876920.191 9   1465478.83147  21867987.861    21867987.5174   21867993.1334
        -0.000          -0.000
   2516524.742 9   1980053.60745  24214133.468    24214133.8644   24214141.3734
        -0.000          -0.000
 -16175842.037 9 -12304563.87347  22176530.332    22176530.4384   22176537.3024
        -0.000          -0.000
  -6729326.624 8  -5011586.01645  24038914.011    24038913.9374   24038920.4504
        -0.000          -0.000
  -1980812.322 9  -1348693.67148  21038622.325    21038621.9354   21038626.9554
        -0.000          -0.000
 97  3  8 22 49 59.9980000  0  7  4  9  2 26 24  5  7               -0.001253558
 -26813566.613 9 -20876339.10949  20412995.500    20412995.9674   20413000.5824
        -0.000          -0.000
 -20775598.187 9 -14313604.40947  21520595.881    21520595.9814   21520600.7794
        -0.000          -0.000
   1916159.407 9   1496054.81447  21875454.771    21875454.4484   21875460.1594
        -0.000          -0.000
   2575572.291 9   2026064.61045  24225369.964    24225370.3454   24225377.5984
        -0.000          -0.000
 -16283688.489 9 -12388600.01047  22156007.794    22156007.8854   22156014.7494
        -0.000          -0.000
  -6822347.674 8  -5084069.84445  24021212.495    24021212.3024   24021219.0954
        -0.000          -0.000
  -1935491.356 9  -1313378.64748  21047246.537    21047246.1944   21047251.1914
        -0.000          -0.000
 97  3  8 22 50 29.9980000  0  7  4  9  2 26 24  5  7               -0.001259900
 -26867697.348 9 -20918518.87249  20402694.768    20402695.2284   20402699.8544
        -0.000          -0.000
 -20841586.761 9 -14365024.06647  21508038.816    21508038.8344   21508043.5464
        -0.000          -0.000
   1955697.248 9   1526863.49847  21882978.508    21882978.1894   21882984.0154
        -0.000          -0.000
   2634629.881 9   2072083.44545  24236608.239    24236608.6454   24236615.6554
        -0.000          -0.000
 -16391280.817 9 -12472438.13247  22135533.534    22135533.6194   22135540.5674
        -0.000          -0.000
  -6915437.155 8  -5156606.97845  24003497.805    24003497.1574   24003504.4234
        -0.000          -0.000
  -1890021.680 9  -1277947.74048  21055899.207    21055898.8344   21055903.7444
        -0.000          -0.000
 97  3  8 22 50 59.9980000  0  7  4  9  2 26 24  5  7               -0.001266253
 -26921252.161 9 -20960249.87249  20392503.676    20392504.1234   20392508.7104
        -0.000          -0.000
 -20907128.839 9 -14416095.78647  21495566.535    21495566.5794   21495571.2364
        -0.000          -0.000
   1995523.553 9   1557896.95447  21890557.215    21890556.9134   21890562.6674
        -0.000          -0.000
   2693705.618 9   2118116.44645  24247850.019    24247850.3524   24247856.9954
        -0.000          -0.000
 -16498605.066 9 -12556067.35547  22115110.152    22115110.2884   22115117.4094
        -0.000          -0.000
  -7008593.849 8  -5229196.53245  23985770.290    23985769.8874   23985776.9234
        -0.000          -0.000
  -1844412.916 9  -1242408.45248  21064578.328    21064577.9564   21064582.8184
        -0.000          -0.000
 97  3  8 22 51 29.9980000  0  7  4  9  2 26 24  5  7               -0.001272612
 -26974239.937 9 -21001539.02249  20382420.447    20382420.8844   20382425.4594
        -0.000          -0.000
 -20972217.859 9 -14466814.48647  21483180.438    21483180.5044   21483185.2124
        -0.000          -0.000
   2035635.159 9   1589152.73447  21898190.282    21898189.9484   21898195.5614
        -0.000          -0.000
   2752797.209 9   2164161.78645  24259094.936    24259095.3074   24259101.7904
        -0.000          -0.000
 -16605652.195 9 -12639480.65047  22094739.614    22094739.7904   22094746.9984
        -0.000          -0.000
  -7101803.620 8  -5301827.44845  23968033.043    23968032.6064   23968039.1024
        -0.000          -0.000
  -1798683.107 9  -1206774.83348  21073280.431    21073280.0624   21073284.9544
        -0.000          -0.000
 97  3  8 22 51 59.9980000  0  7  4  9  2 26 24  5  7               -0.001278972
 -27026670.443 9 -21042393.93749  20372443.247    20372443.6814   20372448.2174
        -0.000          -0.000
 -21036832.248 9 -14517163.33947  21470884.703    21470884.7664   21470889.4954
        -0.000          -0.000
   2076029.222 9   1620628.60547  21905877.085    21905876.7374   21905882.2274
        -0.000          -0.000
   2811911.478 9   2210224.84845  24270344.172    24270344.5114   24270350.8144
        -0.000          -0.000
 -16712409.686 9 -12722668.24047  22074424.306    22074424.4144   22074431.7144
        -0.000          -0.000
  -7195040.152 8  -5374479.21244  23950290.625    23950290.1984   23950296.6974
        -0.000          -0.000
  -1752849.657 9  -1171060.44448  21082002.162    21082001.7944   21082006.7534
        -0.000          -0.000
 97  3  8 22 52 29.9980000  0  7  4  9  2 26 24  5  7               -0.001285326
 -27078569.857 9 -21082835.00849  20362567.096    20362567.5384   20362572.0624
        -0.000          -0.000
 -21100991.696 9 -14567157.69547  21458675.525    21458675.6184   21458680.3784
        -0.000          -0.000
   2116676.305 9   1652301.63047  21913612.105    21913611.7724   21913617.0834
        -0.000          -0.000
   2871054.721 8   2256310.43345  24281598.599    24281598.7414   24281605.3694
        -0.000          -0.000
 -16818898.855 9 -12805646.74547  22054160.070    22054160.1934   22054167.4774
        -0.000          -0.000
  -7288294.821 8  -5447145.10945  23932544.727    23932544.4954   23932550.7544
        -0.000          -0.000
  -1706910.667 9  -1135263.82648  21090744.009    21090743.6424   21090748.5464
        -0.000          -0.000
 97  3  8 22 52 59.9980000  0  7  4  9  2 26 24  5  7               -0.001291670
 -27129940.975 9 -21122864.42949  20352791.494    20352791.9254   20352796.4274
        -0.000          -0.000
 -21164686.830 9 -14616790.24147  21446554.705    21446554.7694   21446559.5894
        -0.000          -0.000
   2157578.300 9   1684173.29547  21921395.625    21921395.2744   21921400.5204
        -0.000          -0.000
   2930229.358 8   2302420.53545  24292858.990    24292859.2644   24292865.9544
        -0.000          -0.000
 -16925116.900 9 -12888414.00347  22033947.418    22033947.4864   22033954.6524
        -0.000          -0.000
  -7381562.622 8  -5519821.23945  23914796.487    23914796.3314   23914802.3554
        -0.000          -0.000
  -1660850.898 9  -1099373.10348  21099508.990    21099508.6144   21099513.4234
        -0.000          -0.000
 97  3  8 22 53 29.9980000  0  7  4  9  2 26 24  5  7               -0.001298013
 -27180777.263 9 -21162477.09249  20343117.631    20343118.0634   20343122.5634
        -0.000          -0.000
 -21227916.060 9 -14666059.75147  21434522.537    21434522.5994   21434527.4214
        -0.000          -0.000
   2198741.095 9   1716248.17147  21929228.647    21929228.2914   21929233.6284
        -0.000          -0.000
   2989424.952 8   2348546.89945  24304123.336    24304123.7254   24304130.5624
        -0.000          -0.000
 -17031071.922 9 -12970976.29547  22013784.789    22013784.9144   22013791.9434
        -0.000          -0.000
  -7474854.596 8  -5592516.16245  23897043.561    23897043.4604   23897049.5984
        -0.000          -0.000
  -1614687.548 9  -1063401.67148  21108293.608    21108293.1934   21108298.0304
        -0.000          -0.000
 97  3  8 22 53 59.9980000  0  7  4  9  2 26 24  5  7               -0.001304356
 -27231055.403 9 -21201654.83249  20333550.026    20333550.4664   20333554.9594
        -0.000          -0.000
 -21290683.014 9 -14714969.04647  21422578.353    21422578.4184   21422583.2694
        -0.000          -0.000
   2240179.337 9   1748537.68347  21937114.017    21937113.6924   21937119.1384
        -0.000          -0.000
   3048639.976 8   2394688.40545  24315391.432    24315391.7954   24315399.0564
        -0.000          -0.000
 -17136757.196 9 -13053328.39447  21993673.571    21993673.7074   21993680.6424
        -0.000          -0.000
  -7568180.052 8  -5665237.14645  23879284.045    23879284.1064   23879290.4494
        -0.000          -0.000
  -1568405.900 9  -1027338.04348  21117100.622    21117100.2164   21117105.2124
        -0.000          -0.000
 97  3  8 22 54 29.9980000  0  7  4  9  2 26 24  5  7               -0.001310695
 -27280770.924 9 -21240394.17649  20324089.456    20324089.8954   20324094.3834
        -0.000          -0.000
 -21353000.840 9 -14763528.37247  21410719.587    21410719.6574   21410724.5244
        -0.000          -0.000
   2281896.535 9   1781044.56247  21945052.473    21945052.1574   21945057.6674
        -0.000          -0.000
   3107867.342 8   2440839.50245  24326661.750    24326662.2824   24326669.7864
        -0.000          -0.000
 -17242177.951 9 -13135474.36947  21973612.758    21973612.8744   21973619.7284
        -0.000          -0.000
  -7661550.240 8  -5737993.00645  23861516.259    23861516.1664   23861522.8084
        -0.000          -0.000
  -1521992.760 9   -991171.95648  21125932.644    21125932.2614   21125937.4594
        -0.000          -0.000
 97  3  8 22 54 59.9980000  0  7  4  9  2 26 24  5  7               -0.001317040
 -27329899.086 9 -21278675.83249  20314740.581    20314741.0384   20314745.5734
        -0.000          -0.000
 -21414849.606 9 -14811722.19747  21398950.143    21398950.2654   21398955.0464
        -0.000          -0.000
   2323901.465 9   1813775.65447  21953045.741    21953045.3934   21953050.9994
        -0.000          -0.000
   3167108.973 9   2487001.73545  24337935.024    24337935.6284   24337943.2364
        -0.000          -0.000
 -17347326.435 9 -13217408.19547  21953603.800    21953603.9264   21953610.5714
        -0.000          -0.000
  -7754968.996 8  -5810786.70745  23843739.309    23843739.0644   23843745.9984
        -0.000          -0.000
  -1475451.181 9   -954905.79348  21134789.276    21134788.9004   21134794.1034
        -0.000          -0.000
 97  3  8 22 55 29.9980000  0  7  4  9  2 26 24  5  7               -0.001323398
 -27378434.049 9 -21316495.26348  20305504.665    20305505.1214   20305509.6544
        -0.000          -0.000
 -21476223.310 9 -14859545.85147  21387271.178    21387271.2904   21387276.0264
        -0.000          -0.000
   2366190.334 9   1846728.00047  21961092.961    21961092.6824   21961098.3404
        -0.000          -0.000
   3226360.149 9   2533171.42345  24349210.211    24349210.7124   24349218.6044
        -0.000          -0.000
 -17452215.424 9 -13299139.81447  21933644.230    21933644.2744   21933650.7384
        -0.000          -0.000
  -7848434.357 8  -5883616.72245  23825953.385    23825953.1254   23825960.1514
        -0.000          -0.000
  -1428780.117 9   -918538.73648  21143670.561    21143670.1524   21143675.3474
        -0.000          -0.000
 97  3  8 22 55 59.9980000  0  7  4  9  2 26 24  5  7               -0.001329760
 -27426380.896 9 -21353856.42448  20296380.620    20296381.0784   20296385.6124
        -0.000          -0.000
 -21537113.704 9 -14906992.88647  21375684.249    21375684.3314   21375689.0424
        -0.000          -0.000
   2408765.714 9   1879903.61747  21969194.814    21969194.4734   21969200.2024
        -0.000          -0.000
   3285619.991 9   2579347.82646  24360486.959    24360487.5254   24360495.7254
        -0.000          -0.000
 -17556853.773 9 -13380676.14047  21913732.178    21913732.2394   21913738.5284
        -0.000          -0.000
  -7941939.859 8  -5956478.04745  23808159.851    23808159.5944   23808166.6704
        -0.000          -0.000
  -1381972.570 9   -882065.32948  21152577.660    21152577.3064   21152582.5294
        -0.000          -0.000
 97  3  8 22 56 29.9980000  0  7  4  9  2 26 24  5  7               -0.001336129
 -27473763.630 9 -21390778.01048  20287363.964    20287364.4104   20287368.9344
        -0.000          -0.000
 -21597523.802 9 -14954065.66847  21364188.677    21364188.7204   21364193.3774
        -0.000          -0.000
   2451611.504 9   1913289.94547  21977348.040    21977347.6894   21977353.4314
        -0.000          -0.000
   3344881.760 9   2625525.76346  24371764.281    24371764.8084   24371772.9954
        -0.000          -0.000
 -17661257.604 9 -13462029.68647  21893864.609    21893864.7234   21893871.1364
        -0.000          -0.000
  -8035484.125 8  -6029369.59445  23790359.063    23790358.8274   23790365.9974
        -0.000          -0.000
  -1335056.073 9   -845507.02048  21161505.556    21161505.2054   21161510.4394
        -0.000          -0.000
 97  3  8 22 56 59.9980000  0  7  4  9  2 26 24  5  7               -0.001342494
 -27520558.433 9 -21427241.47248  20278459.197    20278459.6354   20278464.1494
        -0.000          -0.000
 -21657430.399 9 -15000746.11447  21352788.825    21352788.8524   21352793.4774
        -0.000          -0.000
   2494743.945 9   1946899.63647  21985555.799    21985555.4874   21985561.2514
        -0.000          -0.000
   3404159.101 9   2671715.85046  24383044.754    24383045.2584   24383053.0664
        -0.000          -0.000
 -17765401.839 9 -13543180.97747  21874046.511    21874046.6734   21874053.1204
        -0.000          -0.000
  -8129038.626 8  -6102269.11645  23772556.224    23772556.1424   23772563.0934
        -0.000          -0.000
  -1288022.873 9   -808857.77948  21170455.676    21170455.3594   21170460.5084
        -0.000          -0.000
 97  3  8 22 57 29.9980000  0  7  4  9  2 26 24  5  7               -0.001348863
 -27566810.924 9 -21463282.35848  20269657.619    20269658.0684   20269662.5744
        -0.000          -0.000
 -21716852.192 9 -15047048.79947  21341481.140    21341481.2204   21341485.8044
        -0.000          -0.000
   2538150.374 9   1980722.82347  21993815.709    21993815.4084   21993821.2774
        -0.000          -0.000
   3463418.363 9   2717891.81945  24394321.636    24394322.0624   24394329.7454
        -0.000          -0.000
 -17869294.400 9 -13624136.15747  21854276.412    21854276.5394   21854283.0064
        -0.000          -0.000
  -8222624.446 8  -6175193.04345  23754747.453    23754747.2314   23754754.0164
        -0.000          -0.000
  -1240901.381 9   -772139.74348  21179422.733    21179422.3814   21179427.4204
        -0.000          -0.000
 97  3  8 22 57 59.9980000  0  7  4  9  2 26 24  5  7               -0.001355223
 -27612516.775 9 -21498897.28248  20260960.064    20260960.4894   20260964.9994
        -0.000          -0.000
 -21775781.529 9 -15092967.74447  21330267.163    21330267.3034   21330271.9144
        -0.000          -0.000
   2581840.831 9   2014767.32747  22002129.669    22002129.3434   22002135.3604
        -0.000          -0.000
   3522681.218 9   2764070.60945  24405599.344    24405599.7444   24405607.0694
        -0.000          -0.000
 -17972904.216 9 -13704871.00847  21834559.949    21834560.0894   21834566.6064
        -0.000          -0.000
  -8316236.211 8  -6248137.16945  23736933.814    23736933.3534   23736939.9704
        -0.000          -0.000
  -1193692.833 9   -735353.86548  21188406.304    21188405.9624   21188410.8934
        -0.000          -0.000
 97  3  8 22 58 29.9980000  0  7  4  9  2 26 24  5  7               -0.001361576
 -27657685.632 9 -21534093.77448  20252364.701    20252365.1394   20252369.5964
        -0.000          -0.000
 -21834240.714 9 -15138520.34447  21319142.713    21319142.8654   21319147.4494
        -0.000          -0.000
   2625799.811 9   2049021.07647  22010494.616    22010494.2924   22010500.5534
        -0.000          -0.000
   3581940.509 9   2810246.63545  24416876.265    24416876.6584   24416883.6984
        -0.000          -0.000
 -18076211.841 9 -13785370.39647  21814901.062    21814901.2184   21814907.6644
        -0.000          -0.000
  -8409872.712 8  -6321100.58545  23719115.359    23719114.9794   23719121.2764
        -0.000          -0.000
  -1146391.894 9   -698495.99848  21197407.413    21197407.0304   21197411.9324
        -0.000          -0.000
 97  3  8 22 58 59.9980000  0  7  4  9  2 26 24  5  7               -0.001367927
 -27702312.201 9 -21568867.70449  20243872.537    20243872.9784   20243877.3584
        -0.000          -0.000
 -21892219.512 9 -15183698.62347  21308109.813    21308109.9024   21308114.3844
        -0.000          -0.000
   2670025.266 9   2083482.45547  22018910.346    22018910.0164   22018916.5084
        -0.000          -0.000
   3641186.678 8   2856412.41945  24428150.477    24428150.7934   24428157.8934
        -0.000          -0.000
 -18179195.734 9 -13865617.54047  21795303.884    21795304.0354   21795310.2494
        -0.000          -0.000
  -8503536.216 8  -6394085.03945  23701291.642    23701291.2584   23701297.5504
        -0.000          -0.000
  -1098983.164 9   -661554.13748  21206428.941    21206428.5654   21206433.4904
        -0.000          -0.000
 97  3  8 22 59 29.9980000  0  7  4  9  2 26 24  5  7               -0.001374269
 -27746380.696 9 -21603206.77149  20235486.582    20235487.0344   20235491.3744
        -0.000          -0.000
 -21949701.326 9 -15228489.63647  21297171.478    21297171.5154   21297175.9904
        -0.000          -0.000
   2714527.636 9   2118159.60147  22027378.864    22027378.5334   22027385.0444
        -0.000          -0.000
   3700434.835 9   2902579.76145  24439425.201    24439425.5084   24439432.6204
        -0.000          -0.000
 -18281847.651 9 -13945605.99947  21775769.907    21775770.0284   21775776.1464
        -0.000          -0.000
  -8597215.995 8  -6467082.19245  23683464.923    23683464.5384   23683470.7024
        -0.000          -0.000
  -1051450.077 9   -624515.37348  21215474.208    21215473.8034   21215478.7394
        -0.000          -0.000
 97  3  8 22 59 59.9980000  0  7  4  9  2 26 24  5  7               -0.001380614
 -27789878.125 9 -21637100.85249  20227209.301    20227209.7544   20227214.0724
        -0.000          -0.000
 -22006698.940 9 -15272903.35647  21286325.089    21286325.1344   21286329.6304
        -0.000          -0.000
   2759273.863 9   2153026.76747  22035893.933    22035893.6084   22035899.9814
        -0.000          -0.000
   3759677.678 8   2948742.93345  24450698.913    24450699.0034   24450706.4474
        -0.000          -0.000
 -18384180.867 9 -14025346.10947  21756296.480    21756296.6194   21756302.7724
        -0.000          -0.000
  -8690906.273 8  -6540087.52445  23665636.145    23665635.9024   23665641.9604
        -0.000          -0.000
  -1003789.269 9   -587377.09848  21224543.763    21224543.3544   21224548.2804
        -0.000          -0.000
 97  3  8 23  0 29.9980000  0  7  4  9  2 26 24  5  7               -0.001386979
 -27832798.253 9 -21670545.08249  20219041.856    20219042.3084   20219046.6584
        -0.000          -0.000
 -22063203.521 9 -15316932.89147  21275572.505    21275572.6184   21275577.1514
        -0.000          -0.000
   2804262.207 9   2188082.59747  22044455.139    22044454.7814   22044460.9834
        -0.000          -0.000
   3818883.434 8   2994877.21745  24461965.456    24461965.6434   24461973.0634
        -0.000          -0.000
 -18486203.672 9 -14104844.32747  21736882.093    21736882.2504   21736888.5284
        -0.000          -0.000
  -8784609.867 8  -6613103.24345  23647804.692    23647804.4664   23647810.6554
        -0.000          -0.000
   -955997.826 9   -550137.02248  21233638.150    21233637.7494   21233642.7454
        -0.000          -0.000
 97  3  8 23  0 59.9980000  0  7  4  9  2 26 24  5  7               -0.001393363
 -27875124.222 9 -21703526.33149  20210987.491    20210987.9444   20210992.2874
        -0.000          -0.000
 -22119191.992 9 -15360560.26247  21264918.203    21264918.3334   21264922.9064
        -0.000          -0.000
   2849516.242 9   2223345.46847  22053066.850    22053066.5004   22053072.5054
        -0.000          -0.000
   3878055.446 8   3040985.22345  24473225.532    24473225.7794   24473233.1474
        -0.000          -0.000
 -18587924.054 9 -14184106.90147  21717525.362    21717525.5104   21717531.7574
        -0.000          -0.000
  -8878333.128 8  -6686134.28145  23629969.572    23629969.3534   23629975.5984
        -0.000          -0.000
   -908088.317 9   -512804.93748  21242754.955    21242754.5574   21242759.6834
        -0.000          -0.000
 97  3  8 23  1 29.9980000  0  7  4  9  2 26 24  5  7               -0.001399755
 -27916852.992 9 -21736042.23549  20203046.754    20203047.2024   20203051.4984
        -0.000          -0.000
 -22174677.907 9 -15403796.03347  21254359.518    21254359.6734   21254364.2424
        -0.000          -0.000
   2895051.382 9   2258827.37347  22061731.938    22061731.6214   22061737.4654
        -0.000          -0.000
   3937198.684 8   3087070.80945  24484480.035    24484480.3774   24484487.7944
        -0.000          -0.000
 -18689356.306 9 -14263144.96247  21698223.462    21698223.6224   21698229.7604
        -0.000          -0.000
  -8972079.531 8  -6759183.37845  23612130.171    23612130.0734   23612136.1614
        -0.000          -0.000
   -860067.561 9   -475386.17348  21251892.932    21251892.5514   21251897.8294
        -0.000          -0.000
 97  3  8 23  1 59.9980000  0  7  4  9  2 26 24  5  7               -0.001404716
 -27957997.077 9 -21768102.54149  20195217.286    20195217.7224   20195222.0194
        -0.000          -0.000
 -22229667.117 9 -15446644.76447  21243895.428    21243895.5774   21243900.1404
        -0.000          -0.000
   2940879.753 9   2294537.76547  22070452.840    22070452.5334   22070458.2634
        -0.000          -0.000
   3996299.383 8   3133123.22545  24495726.601    24495726.8424   24495734.3984
        -0.000          -0.000
 -18790490.108 9 -14341950.47047  21678978.398    21678978.5354   21678984.4904
        -0.000          -0.000
  -9065866.072 8  -6832263.72545  23594283.081    23594283.0574   23594289.1794
        -0.000          -0.000
   -811946.014 9   -437888.86848  21261050.074    21261049.7224   21261055.0674
        -0.000          -0.000
 97  3  8 23  2 29.9980000  0  6  4  9  2 24  5  7                  -0.001419067
 -27998560.997 9 -21799710.76449  20187498.191    20187498.6454   20187502.9284
        -0.000          -0.000
 -22284162.979 9 -15489109.06448  21233525.168    21233525.3064   21233529.9764
        -0.000          -0.000
   2987031.297 9   2330499.97647  22079235.223    22079234.9044   22079240.6244
        -0.000          -0.000
 -18891322.194 9 -14420520.86447  21659790.657    21659790.8094   21659796.6974
        -0.000          -0.000
  -9159705.434 8  -6905385.22045  23576426.218    23576426.0704   23576432.2264
        -0.000          -0.000
   -763730.608 9   -400318.42748  21270225.212    21270224.8604   21270230.1484
        -0.000          -0.000
 97  3  8 23  2 59.9980000  0  6  4  9  2 24  5  7                  -0.001425536
 -28038544.080 9 -21830866.39149  20179889.666    20179890.1234   20179894.4064
        -0.000          -0.000
 -22338188.464 9 -15531206.83448  21223244.388    21223244.5434   21223249.2554
        -0.000          -0.000
   3033495.888 9   2366706.11947  22088077.103    22088076.8324   22088082.6244
        -0.000          -0.000
 -18991855.097 9 -14498858.11847  21640659.823    21640659.9834   21640665.9564
        -0.000          -0.000
  -9253590.048 8  -6978542.00745  23558560.675    23558560.4584   23558566.5594
        -0.000          -0.000
   -715418.117 9   -362672.32948  21279418.845    21279418.4754   21279423.6344
        -0.000          -0.000
 97  3  8 23  3 29.9980000  0  6  4  9  2 24  5  7                  -0.001432001
 -28077944.523 9 -21861568.00549  20172392.027    20172392.4734   20172396.7634
        -0.000          -0.000
 -22391743.560 9 -15572938.07248  21213053.170    21213053.3384   21213058.0614
        -0.000          -0.000
   3080253.194 9   2403140.34647  22096974.724    22096974.4834   22096980.2664
        -0.000          -0.000
 -19092071.909 9 -14576949.08847  21621589.099    21621589.3254   21621595.3174
        -0.000          -0.000
  -9347519.024 8  -7051733.34845  23540686.479    23540686.3324   23540692.3724
        -0.000          -0.000
   -666996.777 9   -324941.41248  21288633.143    21288632.7964   21288637.8934
        -0.000          -0.000
 97  3  8 23  3 59.9980000  0  6  4  9  2 24  5  7                  -0.001438465
 -28116762.944 9 -21891816.09949  20165005.154    20165005.5974   20165009.8794
        -0.000          -0.000
 -22444812.260 9 -15614290.29748  21202954.655    21202954.8004   21202959.4114
        -0.000          -0.000
   3127288.331 9   2439791.07847  22105925.289    22105925.0274   22105930.8734
        -0.000          -0.000
 -19191959.946 9 -14654783.88447  21602581.041    21602581.1944   21602587.1724
        -0.000          -0.000
  -9441482.839 9  -7124951.84545  23522805.724    23522805.5904   23522811.5524
        -0.000          -0.000
   -618465.878 9   -287125.12048  21297868.253    21297867.8934   21297873.0274
        -0.000          -0.000
 97  3  8 23  4 29.9980000  0  6  4  9  2 24  5  7                  -0.001444939
 -28154998.942 9 -21921610.36149  20157729.135    20157729.5644   20157733.7904
        -0.000          -0.000
 -22497395.792 9 -15655264.46848  21192948.400    21192948.5074   21192953.0814
        -0.000          -0.000
   3174577.748 9   2476639.93847  22114924.210    22114923.9174   22114929.8664
        -0.000          -0.000
 -19291531.787 9 -14732372.28847  21583633.142    21583633.2624   21583639.1834
        -0.000          -0.000
  -9535470.663 9  -7198189.05345  23504920.401    23504920.2034   23504926.0414
        -0.000          -0.000
   -569825.397 9   -249223.43848  21307124.200    21307123.8754   21307129.1004
        -0.000          -0.000
 97  3  8 23  4 59.9980000  0  6  4  9  2 24  5  7                  -0.001451429
 -28192645.476 9 -21950945.29949  20150565.203    20150565.6244   20150569.8344
        -0.000          -0.000
 -22549484.030 9 -15695852.69148  21183036.339    21183036.4294   21183040.9644
        -0.000          -0.000
   3222110.973 9   2513678.78847  22123969.501    22123969.1954   22123975.1614
        -0.000          -0.000
 -19390782.691 9 -14809710.62247  21564746.323    21564746.3874   21564752.3744
        -0.000          -0.000
  -9629474.561 9  -7271438.76945  23487031.963    23487031.8164   23487037.5344
        -0.000          -0.000
   -521084.296 9   -211243.35548  21316399.276    21316398.9944   21316404.2624
        -0.000          -0.000
 97  3  8 23  5 29.9980000  0  6  4  9  2 24  5  7                  -0.001457914
 -28229684.840 9 -21979807.11949  20143516.759    20143517.1934   20143521.4554
        -0.000          -0.000
 -22601035.315 9 -15736022.52348  21173226.455    21173226.5304   21173231.0474
        -0.000          -0.000
   3269920.747 9   2550933.12647  22133067.390    22133067.0774   22133072.9244
        -0.000          -0.000
 -19489682.973 9 -14886775.73847  21545926.083    21545926.1664   21545932.2744
        -0.000          -0.000
  -9723467.465 9  -7344679.95045  23469145.635    23469145.5594   23469151.3644
        -0.000          -0.000
   -472233.537 9   -173177.83548  21325695.408    21325695.0894   21325700.2934
        -0.000          -0.000
 97  3  8 23  5 59.9980000  0  6  4  9  2 24  5  7                  -0.001464394
 -28266131.387 9 -22008207.01049  20136581.181    20136581.6154   20136585.8724
        -0.000          -0.000
 -22652065.248 9 -15775786.10248  21163515.732    21163515.8134   21163520.3704
        -0.000          -0.000
   3318003.593 9   2588400.26047  22142217.264    22142216.9924   22142222.6514
        -0.000          -0.000
 -19588256.747 9 -14963586.42947  21527167.992    21527168.1224   21527174.3024
        -0.000          -0.000
  -9817455.404 9  -7417917.24545  23451260.390    23451260.2404   23451266.0374
        -0.000          -0.000
   -423291.521 9   -135041.21448  21335008.823    21335008.4814   21335013.5444
        -0.000          -0.000
 97  3  8 23  6 29.9980000  0  6  4  9  2 24  5  7                  -0.001470871
 -28301983.489 9 -22036143.69649  20129758.741    20129759.1684   20129763.4454
        -0.000          -0.000
 -22702597.688 9 -15815162.02348  21153899.737    21153899.8204   21153904.4074
        -0.000          -0.000
   3366356.885 9   2626078.13247  22151418.715    22151418.3824   22151423.8664
        -0.000          -0.000
 -19686502.853 9 -15040141.79547  21508472.264    21508472.4444   21508478.6434
        -0.000          -0.000
  -9911448.889 9  -7491158.85545  23433373.890    23433373.7244   23433379.5704
        -0.000          -0.000
   -374277.593 9    -96848.56748  21344335.738    21344335.4144   21344340.4374
        -0.000          -0.000
 97  3  8 23  6 59.9980000  0  6  4  9  2 24  5  7                  -0.001477330
 -28337221.902 9 -22063602.17949  20123053.037    20123053.4704   20123057.7704
        -0.000          -0.000
 -22752607.355 9 -15854130.58648  21144383.332    21144383.3884   21144387.8984
        -0.000          -0.000
   3415009.688 9   2663989.39347  22160677.039    22160676.7424   22160682.1864
        -0.000          -0.000
 -19784388.186 9 -15116416.04747  21489845.354    21489845.4994   21489851.6694
        -0.000          -0.000
 -10005439.008 9  -7564397.84945  23415488.152    23415487.8764   23415493.7864
        -0.000          -0.000
   -325177.508 9    -58588.77447  21353679.011    21353678.7064   21353683.8194
        -0.000          -0.000
 97  3  8 23  7 29.9980000  0  6  4  9  2 24  5  7                  -0.001483780
 -28371867.863 9 -22090599.01449  20116460.093    20116460.5544   20116464.8864
        -0.000          -0.000
 -22802102.214 9 -15892697.99748  21134964.849    21134964.8584   21134969.3154
        -0.000          -0.000
   3463957.932 9   2702130.85547  22169991.606    22169991.3144   22169996.7554
        -0.000          -0.000
 -19881927.084 9 -15192420.34047  21471284.319    21471284.4794   21471290.6604
        -0.000          -0.000
 -10099445.428 8  -7637649.56445  23397599.166    23397598.9204   23397604.9084
        -0.000          -0.000
   -275994.536 9    -20264.39748  21363038.176    21363037.9064   21363043.1574
        -0.000          -0.000
